[[{"header":{"parameterUnit":"m.s-1","parameterCategory":1,"la1":30.6,"la2":29.2853,"lo1":-89.7004,"lo2":-87.6739,"dy":0.0162,"dx":0.0183,"nx":112,"ny":82,"refTime":"2025-05-24T06:00:00:Z","depth":0,"parameterNumber":2,"parameterNumberName":"U-component_of_WINDS"},"data":[0.0,0.0,0.0,0.0,0.0,0.0,0.0,0.0,0.0,0.0,0.0,0.0,0.0,0.0,0.0,0.0,0.0,0.0,0.0,0.0,0.0,0.0,0.0,0.0,0.0,0.0,0.0,0.0,0.0,0.0,0.0,0.0,0.0,0.0,0.0,0.0,0.0,0.0,0.0,0.0,0.0,0.0,0.0,0.0,0.0,0.0,0.0,0.0,0.0,0.0,0.0,0.0,0.0,0.0,0.0,0.0,0.0,0.0,0.0,0.0,0.0,0.0,0.0,0.0,0.0,0.0,0.0,0.0,0.0,0.0,0.0,0.0,0.0,0.0,0.0,0.0,0.0,0.0,0.0,0.0,0.0,0.0,0.0,0.0,0.0,0.0,0.0,0.0,0.0,0.0,-4.8675,-5.1491,-5.3592,-5.4426,-5.3473,-5.2596,-5.0303,-4.6075,0.0,0.0,0.0,0.0,0.0,0.0,0.0,0.0,0.0,0.0,0.0,0.0,0.0,0.0,0.0,0.0,0.0,0.0,0.0,0.0,0.0,0.0,0.0,0.0,0.0,0.0,0.0,0.0,0.0,0.0,0.0,0.0,0.0,0.0,0.0,0.0,0.0,0.0,0.0,0.0,0.0,0.0,0.0,0.0,0.0,0.0,0.0,0.0,0.0,0.0,0.0,0.0,0.0,0.0,0.0,0.0,0.0,0.0,0.0,0.0,0.0,0.0,0.0,0.0,0.0,0.0,0.0,0.0,0.0,0.0,0.0,0.0,0.0,0.0,0.0,0.0,0.0,0.0,0.0,0.0,0.0,0.0,0.0,0.0,0.0,0.0,0.0,0.0,0.0,0.0,0.0,0.0,0.0,0.0,0.0,0.0,0.0,0.0,0.0,0.0,0.0,0.0,0.0,0.0,-4.9345,-5.3919,-5.47,-5.4481,-5.3482,-5.2596,-5.0564,-4.6932,0.0,0.0,0.0,0.0,0.0,0.0,0.0,0.0,0.0,0.0,0.0,0.0,0.0,0.0,0.0,0.0,0.0,0.0,0.0,0.0,0.0,0.0,0.0,0.0,0.0,0.0,0.0,0.0,0.0,0.0,0.0,0.0,0.0,0.0,0.0,0.0,0.0,0.0,0.0,0.0,0.0,0.0,0.0,0.0,0.0,0.0,0.0,0.0,0.0,0.0,0.0,0.0,0.0,0.0,0.0,0.0,0.0,0.0,0.0,0.0,0.0,0.0,0.0,0.0,0.0,0.0,0.0,0.0,0.0,0.0,0.0,0.0,0.0,0.0,0.0,0.0,0.0,0.0,0.0,0.0,0.0,0.0,0.0,0.0,0.0,0.0,0.0,0.0,0.0,0.0,0.0,0.0,0.0,0.0,0.0,0.0,0.0,0.0,0.0,0.0,0.0,0.0,0.0,-4.8285,-5.06,-5.3346,-5.3934,-5.3747,-5.2787,-5.1901,-4.9909,-4.6422,-4.4586,0.0,0.0,0.0,0.0,0.0,0.0,0.0,0.0,0.0,0.0,0.0,0.0,0.0,0.0,0.0,0.0,0.0,0.0,0.0,0.0,0.0,0.0,0.0,0.0,0.0,0.0,0.0,0.0,0.0,0.0,0.0,0.0,0.0,0.0,0.0,0.0,0.0,0.0,0.0,0.0,0.0,0.0,0.0,0.0,0.0,0.0,0.0,0.0,0.0,0.0,0.0,0.0,0.0,0.0,0.0,0.0,0.0,0.0,0.0,0.0,0.0,0.0,0.0,0.0,0.0,0.0,0.0,0.0,0.0,0.0,0.0,0.0,0.0,0.0,0.0,0.0,0.0,0.0,0.0,0.0,0.0,0.0,0.0,0.0,0.0,0.0,0.0,0.0,0.0,0.0,0.0,0.0,0.0,0.0,0.0,0.0,0.0,0.0,0.0,0.0,0.0,0.0,-5.0321,-5.1876,-5.2719,-5.3079,-5.2953,-5.217,-5.0743,-4.8684,-4.5776,-4.3451,0.0,0.0,0.0,0.0,0.0,0.0,0.0,0.0,0.0,0.0,0.0,0.0,0.0,0.0,0.0,0.0,0.0,0.0,0.0,0.0,0.0,0.0,0.0,0.0,0.0,0.0,0.0,0.0,0.0,0.0,0.0,0.0,0.0,0.0,0.0,0.0,0.0,0.0,0.0,0.0,0.0,0.0,0.0,0.0,0.0,0.0,0.0,0.0,0.0,0.0,0.0,0.0,0.0,0.0,0.0,0.0,0.0,0.0,0.0,0.0,0.0,0.0,0.0,0.0,0.0,0.0,0.0,0.0,0.0,0.0,0.0,0.0,0.0,0.0,0.0,0.0,0.0,0.0,0.0,0.0,0.0,0.0,0.0,0.0,0.0,0.0,0.0,0.0,0.0,0.0,0.0,0.0,0.0,0.0,0.0,0.0,0.0,0.0,0.0,0.0,0.0,0.0,-5.0566,-5.2878,-5.3631,-5.3026,-5.2433,-5.2129,-4.9123,-4.6786,-4.5671,-4.1805,0.0,0.0,0.0,0.0,0.0,0.0,0.0,0.0,0.0,0.0,0.0,0.0,0.0,0.0,0.0,0.0,0.0,0.0,0.0,0.0,0.0,0.0,0.0,0.0,0.0,0.0,0.0,0.0,0.0,0.0,0.0,0.0,0.0,0.0,0.0,0.0,0.0,0.0,0.0,0.0,0.0,0.0,0.0,0.0,0.0,0.0,0.0,0.0,0.0,0.0,0.0,0.0,0.0,0.0,0.0,0.0,0.0,0.0,0.0,0.0,0.0,0.0,0.0,0.0,0.0,0.0,0.0,0.0,0.0,0.0,0.0,0.0,0.0,0.0,0.0,0.0,0.0,0.0,0.0,0.0,0.0,0.0,0.0,0.0,0.0,0.0,0.0,0.0,0.0,0.0,0.0,0.0,0.0,0.0,0.0,0.0,0.0,0.0,0.0,0.0,0.0,0.0,-4.892,-5.1314,0.0,-5.23,-5.2103,-5.141,-5.016,-4.8119,-4.504,0.0,0.0,0.0,0.0,0.0,0.0,0.0,0.0,0.0,0.0,0.0,0.0,0.0,0.0,0.0,0.0,0.0,0.0,0.0,0.0,0.0,0.0,0.0,0.0,0.0,0.0,0.0,0.0,0.0,0.0,0.0,0.0,0.0,0.0,0.0,0.0,0.0,0.0,0.0,0.0,0.0,0.0,0.0,0.0,0.0,0.0,0.0,0.0,0.0,0.0,0.0,0.0,0.0,0.0,0.0,0.0,0.0,0.0,0.0,0.0,0.0,0.0,0.0,0.0,0.0,0.0,0.0,0.0,0.0,0.0,0.0,0.0,0.0,0.0,0.0,0.0,0.0,0.0,0.0,0.0,0.0,0.0,0.0,0.0,0.0,0.0,0.0,0.0,0.0,0.0,0.0,0.0,0.0,0.0,0.0,0.0,0.0,0.0,0.0,0.0,0.0,0.0,-4.4746,-4.8197,-5.0653,0.0,-5.1672,-5.1662,-5.1002,-4.9927,-4.7874,-4.4603,0.0,0.0,0.0,0.0,0.0,0.0,0.0,0.0,0.0,0.0,0.0,0.0,0.0,0.0,0.0,0.0,0.0,0.0,0.0,0.0,0.0,0.0,0.0,0.0,0.0,0.0,0.0,0.0,0.0,0.0,0.0,0.0,0.0,0.0,0.0,0.0,0.0,0.0,0.0,0.0,0.0,0.0,0.0,0.0,0.0,0.0,0.0,0.0,0.0,0.0,0.0,0.0,0.0,0.0,0.0,0.0,0.0,0.0,0.0,0.0,0.0,0.0,0.0,0.0,0.0,0.0,0.0,0.0,0.0,0.0,0.0,0.0,0.0,0.0,0.0,0.0,0.0,0.0,0.0,0.0,0.0,0.0,0.0,0.0,0.0,0.0,0.0,0.0,0.0,0.0,0.0,0.0,0.0,0.0,0.0,0.0,0.0,0.0,0.0,0.0,0.0,0.0,-4.4863,-4.873,-5.1365,-5.1301,-5.1249,-5.1156,-5.1017,-4.7835,-4.543,0.0,0.0,0.0,0.0,0.0,0.0,0.0,0.0,0.0,0.0,0.0,0.0,0.0,0.0,0.0,0.0,0.0,0.0,0.0,0.0,0.0,0.0,0.0,0.0,0.0,0.0,0.0,0.0,0.0,0.0,0.0,0.0,0.0,0.0,0.0,0.0,0.0,0.0,0.0,0.0,0.0,0.0,0.0,0.0,0.0,0.0,0.0,0.0,0.0,0.0,0.0,0.0,0.0,0.0,0.0,0.0,0.0,0.0,0.0,0.0,0.0,0.0,0.0,0.0,0.0,0.0,0.0,0.0,0.0,0.0,0.0,0.0,0.0,0.0,0.0,0.0,0.0,0.0,0.0,0.0,0.0,0.0,0.0,0.0,0.0,0.0,0.0,0.0,0.0,0.0,0.0,0.0,0.0,0.0,0.0,0.0,0.0,0.0,0.0,0.0,0.0,0.0,0.0,-4.3965,-4.8379,-5.1365,-5.1301,-5.1284,-5.1229,-5.1092,-4.9568,-4.7178,-4.3766,0.0,0.0,0.0,0.0,0.0,0.0,0.0,0.0,0.0,0.0,0.0,0.0,0.0,0.0,0.0,0.0,0.0,0.0,0.0,0.0,0.0,0.0,0.0,0.0,0.0,0.0,0.0,0.0,0.0,0.0,0.0,0.0,0.0,0.0,0.0,0.0,0.0,0.0,0.0,0.0,0.0,0.0,0.0,0.0,0.0,0.0,0.0,0.0,0.0,0.0,0.0,0.0,0.0,0.0,0.0,0.0,0.0,0.0,0.0,0.0,0.0,0.0,0.0,0.0,0.0,0.0,0.0,0.0,0.0,0.0,0.0,0.0,0.0,0.0,0.0,0.0,0.0,0.0,0.0,0.0,0.0,0.0,0.0,0.0,0.0,0.0,0.0,0.0,0.0,0.0,0.0,0.0,0.0,0.0,0.0,0.0,0.0,0.0,0.0,0.0,0.0,0.0,-4.3594,-4.8203,-5.1386,-5.1338,-5.1325,-5.1272,-5.1183,-5.0033,-4.7581,-4.3544,0.0,0.0,0.0,0.0,0.0,0.0,0.0,0.0,0.0,0.0,0.0,0.0,0.0,0.0,0.0,0.0,0.0,0.0,0.0,0.0,0.0,0.0,0.0,0.0,0.0,0.0,0.0,0.0,0.0,0.0,0.0,0.0,0.0,0.0,0.0,0.0,0.0,0.0,0.0,0.0,0.0,0.0,0.0,0.0,0.0,0.0,0.0,0.0,0.0,0.0,0.0,0.0,0.0,0.0,0.0,0.0,0.0,0.0,0.0,0.0,0.0,0.0,0.0,0.0,0.0,0.0,0.0,0.0,0.0,0.0,0.0,0.0,0.0,0.0,0.0,0.0,0.0,0.0,0.0,0.0,0.0,0.0,0.0,0.0,0.0,0.0,0.0,0.0,0.0,0.0,0.0,0.0,0.0,0.0,0.0,0.0,0.0,0.0,0.0,0.0,0.0,0.0,-4.3594,-4.8203,-5.1406,-5.1406,-5.1358,-5.1261,-5.1199,-4.9616,-4.7128,-4.3622,0.0,0.0,0.0,0.0,0.0,0.0,0.0,0.0,0.0,0.0,0.0,0.0,0.0,0.0,0.0,0.0,0.0,0.0,0.0,0.0,0.0,0.0,0.0,0.0,0.0,0.0,0.0,0.0,0.0,0.0,0.0,0.0,0.0,0.0,0.0,0.0,0.0,0.0,0.0,0.0,0.0,0.0,0.0,0.0,0.0,0.0,0.0,0.0,0.0,0.0,0.0,0.0,0.0,0.0,0.0,0.0,0.0,0.0,0.0,0.0,-4.7156,0.0,0.0,0.0,0.0,0.0,0.0,0.0,0.0,0.0,0.0,0.0,0.0,0.0,0.0,0.0,0.0,0.0,0.0,0.0,0.0,0.0,0.0,0.0,0.0,0.0,0.0,0.0,0.0,0.0,0.0,0.0,0.0,0.0,0.0,0.0,0.0,0.0,0.0,0.0,0.0,0.0,-4.3594,-4.8203,-5.1406,-5.1406,-5.1386,-5.1088,-5.0342,-4.9337,-4.724,-4.3701,-4.1017,0.0,0.0,0.0,0.0,0.0,0.0,0.0,0.0,0.0,0.0,0.0,0.0,0.0,0.0,0.0,0.0,0.0,0.0,0.0,0.0,0.0,0.0,0.0,0.0,0.0,0.0,0.0,0.0,0.0,0.0,0.0,0.0,0.0,0.0,0.0,0.0,0.0,0.0,0.0,0.0,0.0,0.0,0.0,0.0,0.0,0.0,0.0,0.0,0.0,0.0,0.0,0.0,0.0,0.0,0.0,0.0,0.0,0.0,0.0,0.0,-4.8192,0.0,0.0,0.0,0.0,0.0,0.0,0.0,0.0,0.0,0.0,0.0,0.0,0.0,0.0,0.0,0.0,0.0,0.0,0.0,0.0,0.0,0.0,0.0,0.0,0.0,0.0,0.0,0.0,0.0,0.0,0.0,0.0,0.0,0.0,0.0,0.0,0.0,0.0,0.0,0.0,-4.3535,-4.7871,-5.082,-5.082,-5.082,-5.0468,-4.9543,-4.8703,-4.7053,-4.4334,-4.1755,0.0,0.0,0.0,0.0,0.0,0.0,0.0,0.0,0.0,0.0,0.0,0.0,0.0,0.0,0.0,0.0,0.0,0.0,0.0,0.0,0.0,0.0,0.0,0.0,0.0,0.0,0.0,0.0,0.0,0.0,0.0,0.0,0.0,0.0,0.0,0.0,0.0,0.0,0.0,0.0,0.0,0.0,0.0,0.0,0.0,0.0,0.0,0.0,0.0,0.0,0.0,0.0,0.0,-5.2856,-5.3203,-5.3203,-5.3203,-5.3203,-5.3059,-5.0336,-4.9479,-5.0034,0.0,0.0,0.0,0.0,0.0,0.0,0.0,0.0,0.0,0.0,0.0,0.0,0.0,0.0,0.0,0.0,0.0,0.0,0.0,0.0,0.0,0.0,0.0,0.0,0.0,-4.7109,-4.7266,0.0,0.0,0.0,0.0,0.0,0.0,0.0,0.0,0.0,0.0,0.0,0.0,-4.3945,-4.7695,-5.0195,-5.0195,-5.0058,-4.9629,-4.875,-4.8008,-4.6835,-4.5027,-4.2798,-4.048,0.0,0.0,0.0,0.0,0.0,0.0,0.0,0.0,0.0,0.0,0.0,0.0,0.0,0.0,0.0,0.0,0.0,0.0,0.0,0.0,0.0,0.0,0.0,0.0,0.0,0.0,0.0,0.0,0.0,0.0,0.0,0.0,-4.8965,-4.982,0.0,0.0,0.0,0.0,0.0,0.0,0.0,0.0,0.0,0.0,0.0,0.0,0.0,0.0,-5.2683,-5.2914,-5.3029,-5.3029,-5.3145,-5.3203,-5.3203,-5.3203,-5.3203,-5.3183,-5.2752,0.0,-5.1718,-5.0971,0.0,0.0,0.0,0.0,0.0,0.0,0.0,0.0,0.0,0.0,0.0,0.0,0.0,0.0,0.0,0.0,0.0,0.0,0.0,0.0,0.0,0.0,-5.084,-5.0605,-5.0195,-4.9726,0.0,-4.6191,-4.3203,-4.2109,0.0,0.0,0.0,0.0,0.0,0.0,0.0,0.0,-4.5723,-4.8437,-5.0195,-5.0195,-4.9512,-4.8711,-4.7851,-4.7676,-4.6855,-4.5097,-4.3917,-4.2791,-4.1732,-3.8523,0.0,0.0,0.0,0.0,0.0,0.0,0.0,0.0,0.0,0.0,0.0,0.0,0.0,0.0,0.0,0.0,0.0,0.0,0.0,0.0,0.0,0.0,0.0,0.0,0.0,0.0,0.0,0.0,0.0,-4.8206,-5.0089,-5.1344,-5.1459,-5.1245,0.0,0.0,0.0,0.0,0.0,0.0,0.0,0.0,0.0,-5.401,-5.4511,-5.4953,-5.5318,-5.5338,-5.5338,-5.5318,-5.4838,-5.4607,-5.4607,-5.4607,-5.4607,-5.4607,-5.4607,-5.3888,-5.2655,-5.1787,-5.0728,-4.9563,0.0,0.0,0.0,0.0,0.0,-4.886,-4.9046,0.0,0.0,0.0,0.0,0.0,0.0,0.0,0.0,0.0,0.0,0.0,0.0,0.0,0.0,-5.1406,-5.1133,-5.0879,-5.0879,-4.9375,-4.7207,0.0,-4.4258,-4.332,-3.9297,0.0,0.0,0.0,0.0,-4.4883,-4.6133,-4.8164,-4.9473,-4.9473,-4.8691,-4.7812,-4.6933,-4.6875,-4.6543,-4.5781,-4.4881,-4.402,-4.316,-4.1163,-3.8986,0.0,0.0,0.0,0.0,0.0,0.0,0.0,0.0,0.0,0.0,0.0,0.0,0.0,0.0,0.0,0.0,0.0,0.0,0.0,0.0,0.0,0.0,0.0,0.0,0.0,0.0,0.0,0.0,-4.9118,-5.0864,-5.2422,-5.3039,-5.2844,0.0,0.0,0.0,0.0,0.0,0.0,-5.503,-5.5145,-5.5511,-5.6338,-5.6992,-5.7319,-5.7319,-5.7319,-5.7234,-5.6983,-5.6349,-5.5915,-5.5703,-5.5703,-5.5703,-5.5703,-5.5703,-5.4741,-5.3145,-5.25,-5.1298,-4.9811,-4.9211,-4.9026,-4.9121,-4.9202,-4.9619,-5.0244,-5.0982,-5.1257,-5.1072,-4.9895,0.0,-4.8027,-4.6719,0.0,0.0,0.0,0.0,-4.9687,-5.0332,0.0,-5.1406,-5.1406,-5.1406,-5.1406,-5.1406,-5.1406,-5.0391,0.0,-4.6855,-4.5781,-4.1055,0.0,0.0,0.0,0.0,-4.5644,-4.6523,-4.7969,-4.8808,-4.8594,-4.7793,-4.6992,-4.6367,-4.6308,-4.6191,-4.5976,-4.5566,-4.4941,-4.4062,-4.3203,-4.1308,-3.8273,0.0,0.0,0.0,0.0,0.0,0.0,0.0,0.0,0.0,0.0,0.0,0.0,0.0,0.0,0.0,0.0,0.0,0.0,0.0,0.0,0.0,0.0,0.0,0.0,0.0,0.0,0.0,0.0,0.0,-5.2716,-5.4632,0.0,0.0,0.0,0.0,-5.4357,-5.5011,-5.5857,-5.683,-5.6876,-5.7269,-5.8146,-5.8204,-5.8223,-5.8223,-5.8223,-5.7819,-5.7003,-5.6964,-5.6503,-5.5703,-5.5703,-5.5703,-5.5703,-5.5703,-5.4741,-5.3203,-5.3145,-5.2155,-5.0654,-5.0735,-5.078,-5.0808,-5.0925,-5.0991,-5.1033,-5.1081,-5.1152,-5.1202,-5.1186,-5.0675,-5.0058,-4.9961,-4.9941,0.0,0.0,-5.0644,-5.1289,-5.1328,-5.1367,-5.1406,-5.1406,-5.1406,-5.1406,-5.1406,-5.1406,-5.1113,0.0,-4.9961,-4.8867,-4.5293,0.0,-4.4492,-4.3574,-4.5039,-4.6543,-4.7422,-4.832,-4.8574,-4.7754,-4.6894,-4.6348,-4.6308,-4.6308,-4.5957,-4.5117,-4.5801,-4.584,-4.4961,-4.4101,-4.2793,-4.1035,-3.8516,0.0,0.0,0.0,0.0,0.0,0.0,0.0,0.0,0.0,0.0,0.0,0.0,0.0,0.0,0.0,0.0,0.0,0.0,0.0,0.0,0.0,0.0,0.0,0.0,0.0,0.0,0.0,0.0,-5.424,-5.6027,0.0,-5.5719,-5.5976,-5.6187,-5.6096,-5.6368,-5.7137,-5.8531,-5.8607,-5.9011,-5.9877,-5.9915,-5.9915,-5.9915,-5.9358,-5.8665,-5.7838,-5.7272,-5.6541,-5.5703,-5.5703,-5.5703,-5.5703,-5.5703,-5.4741,-5.3203,-5.3203,-5.2202,-5.0702,-5.0748,-5.0764,-5.0773,-5.0824,-5.0867,-5.0925,-5.1016,-5.1086,-5.1147,-5.1218,-5.1089,-5.0904,-5.0904,-5.0934,-5.0976,-5.0976,-5.1172,-5.1406,-5.1406,-5.1406,-5.1406,-5.1406,-5.1406,-5.1406,-5.1406,-5.1406,-5.1328,-5.1035,-5.0547,-4.9082,-4.5605,-4.5937,-4.5996,-4.4004,-4.5664,-4.7246,-4.7558,-4.7871,-4.7949,-4.7637,-4.6816,-4.6308,-4.6308,-4.5781,-4.5332,-4.5019,-4.4766,-4.4492,-4.418,-4.332,-4.207,-4.0391,-3.8359,-3.6016,0.0,0.0,0.0,0.0,0.0,0.0,0.0,0.0,0.0,0.0,0.0,0.0,0.0,0.0,0.0,0.0,0.0,0.0,0.0,0.0,0.0,0.0,0.0,0.0,0.0,0.0,-5.3947,-5.5283,-5.7379,-5.8307,-5.7263,-5.8047,-5.8527,-5.8308,-5.8561,-5.908,-5.9896,-5.9935,-6.0204,-6.0781,-6.08,-6.08,-6.08,-6.0223,-5.9396,-5.83,-5.7703,-5.6819,-5.5703,-5.5703,-5.5703,-5.5684,-5.5415,-5.4491,-5.3183,-5.2876,-5.1952,-5.0712,-5.0712,-5.0712,-5.0693,-5.0702,-5.073,-5.0801,-5.0913,-5.1018,-5.1117,-5.1152,-5.1214,-5.1274,-5.1293,-5.1333,-5.1365,-5.1386,-5.1406,-5.1406,-5.1406,-5.1406,-5.1406,-5.1406,-5.1406,-5.1406,-5.1406,-5.1406,-5.1406,-5.1406,-5.0976,-4.9687,-4.6816,-4.7266,-4.7246,-4.4922,-4.6308,-4.748,-4.7207,-4.7422,-4.748,-4.7187,-4.6641,-4.6308,-4.6308,-4.5508,-4.4863,-4.457,-4.4023,-4.3574,-4.3262,-4.2715,-4.1758,-4.0371,-3.834,-3.6445,-3.4707,0.0,0.0,0.0,0.0,0.0,0.0,0.0,0.0,0.0,0.0,0.0,0.0,0.0,0.0,0.0,0.0,0.0,0.0,0.0,0.0,0.0,0.0,0.0,-5.0839,-5.2421,-5.4147,-5.5752,-5.8625,-5.9983,-5.8697,-6.1115,-6.2246,-6.093,-6.1608,-6.1716,-6.0839,-6.08,-6.08,-6.08,-6.08,-6.08,-6.08,-6.08,-5.9954,-5.83,-5.83,-5.7396,-5.5703,-5.5703,-5.5703,-5.5665,-5.4857,-5.401,-5.3126,-5.225,-5.1433,-5.0712,-5.0712,-5.0712,-5.0712,-5.0712,-5.0702,-5.071,-5.0846,-5.0974,-5.1093,-5.1093,-5.1137,-5.1214,-5.1277,-5.1295,-5.1304,-5.1385,-5.1406,-5.1406,-5.1406,-5.1406,-5.1406,-5.1406,-5.1406,-5.1406,-5.1406,-5.1406,-5.1406,-5.1406,-5.1387,-5.084,-4.918,-4.8906,-4.8301,-4.6562,-4.7012,0.0,-4.6406,-4.7031,-4.7246,-4.6387,-4.6308,-4.6308,-4.6308,-4.5488,-4.4609,-4.375,-4.3652,-4.3242,-4.2402,-4.2344,-4.1933,-4.1133,-3.8594,-3.7305,-3.7305,0.0,0.0,0.0,0.0,0.0,0.0,0.0,0.0,0.0,0.0,0.0,0.0,0.0,0.0,0.0,0.0,0.0,0.0,0.0,0.0,0.0,-5.0306,-5.1706,-5.175,-5.3771,-5.5646,-5.6784,-5.8774,-6.0032,-5.9946,-6.141,-6.2074,-6.1352,-6.1806,-6.1716,-6.0839,-6.08,-6.08,-6.08,-6.08,-6.08,-6.08,-6.08,-5.9954,-5.83,-5.83,-5.7396,-5.5703,-5.5703,-5.5703,-5.5665,-5.4857,-5.401,-5.3126,-5.225,-5.1433,-5.0712,-5.0712,-5.0712,-5.0712,-5.0712,-5.0702,-5.071,-5.0793,-5.0877,-5.0948,-5.0948,-5.103,-5.1136,-5.1147,-5.1229,-5.1299,-5.1328,-5.1363,-5.1406,-5.1406,-5.1406,-5.1406,-5.1406,-5.1406,-5.1406,-5.1406,-5.1406,-5.1406,-5.1406,-5.0937,-5.0176,-4.9082,-4.8906,-4.8301,-4.6562,0.0,0.0,-4.6328,-4.6504,-4.6562,-4.6328,-4.6308,-4.6308,-4.6308,-4.4922,-4.3965,-4.3711,-4.2558,-4.1777,-4.1543,-4.0918,-4.0195,-3.9336,-3.7988,-3.7305,0.0,0.0,0.0,0.0,0.0,0.0,0.0,0.0,0.0,0.0,0.0,0.0,0.0,0.0,0.0,0.0,0.0,0.0,0.0,0.0,0.0,0.0,-5.2729,-5.4038,-5.4147,-5.5426,-5.6688,-5.7565,-5.927,-6.0513,-6.0884,-6.2203,-6.2751,-6.2088,-6.2262,-6.194,-6.0858,-6.08,-6.08,-6.08,-6.08,-6.08,-6.08,-6.0435,-5.9608,-5.83,-5.7934,-5.703,-5.5703,-5.5703,-5.5703,0.0,-5.4453,-5.3664,-5.3106,-5.1895,-5.1125,0.0,0.0,0.0,0.0,0.0,-5.0711,-5.0757,-5.0793,-5.0836,-5.0905,-5.0908,-5.0956,-5.103,-5.1087,-5.1157,-5.1229,-5.1258,-5.1286,-5.1328,-5.1359,-5.1362,-5.1363,-5.1386,-5.1406,-5.1406,-5.1406,-5.1133,-5.0898,-5.0898,0.0,0.0,-4.8516,-4.8359,-4.7891,-4.6504,-4.6308,-4.6308,0.0,-4.6308,-4.6308,-4.6308,-4.6308,-4.6308,-4.6308,-4.5039,0.0,0.0,0.0,-4.1387,-4.0684,-4.0176,0.0,0.0,0.0,0.0,0.0,0.0,0.0,0.0,-3.8711,-3.8828,0.0,0.0,0.0,0.0,0.0,0.0,0.0,0.0,0.0,0.0,0.0,0.0,0.0,0.0,0.0,0.0,-5.5354,-5.6863,-5.7085,-5.7125,-5.7405,-5.815,-5.986,-6.1113,-6.1439,-6.3136,-6.3785,-6.2746,-6.2737,-6.2202,-6.083,0.0,0.0,0.0,0.0,-6.08,-6.08,-5.9935,-5.9108,-5.83,-5.7415,-5.6541,-5.5703,-5.5703,-5.5645,-5.5472,-5.3895,-5.3145,-5.2933,-5.1337,-5.0712,-5.0712,-5.0712,-5.0712,-5.0693,-5.0692,-5.0748,0.0,0.0,0.0,0.0,-5.0888,-5.0905,-5.0929,-5.1043,-5.1093,-5.1103,-5.1165,-5.1195,-5.1222,-5.1284,-5.1297,-5.1325,-5.1386,-5.1406,-5.1406,-5.1406,-5.0762,-5.0195,-5.0195,-4.9414,-4.8516,-4.7734,-4.7598,-4.7305,-4.6426,-4.6308,0.0,-4.6308,-4.6308,-4.6308,-4.6308,0.0,0.0,-4.6308,-4.541,-4.4512,-4.375,-4.2793,-4.1601,-4.0117,-4.0059,-4.0059,-4.0059,-4.0059,-4.043,-4.1191,-4.1289,-4.1758,-4.2461,-3.9336,-3.9551,0.0,0.0,0.0,0.0,0.0,0.0,0.0,0.0,0.0,0.0,0.0,0.0,0.0,0.0,0.0,-5.4895,-5.6069,-5.7042,-5.7707,-5.789,-5.808,-5.8406,-5.9971,-6.1059,-6.1236,-6.305,-6.3555,-6.2033,-6.2471,-6.2104,-6.0472,-6.0654,0.0,-6.08,-6.08,-6.08,-6.08,-5.9935,-5.9108,-5.83,0.0,0.0,-5.5703,-5.5703,-5.5338,-5.4664,-5.3645,-5.2799,-5.2077,-5.1106,-5.0712,-5.0712,-5.0712,-5.0712,-5.0693,-5.0702,-5.0712,-5.071,-5.071,-5.0801,-5.0888,-5.0899,-5.0905,-5.0906,-5.0937,-5.1017,0.0,-5.1114,-5.1162,-5.1222,-5.1284,-5.1297,-5.1325,-5.1386,-5.1406,-5.1406,-5.1406,-5.0762,-5.0195,-5.0195,-4.8926,-4.7793,-4.7637,-4.7598,-4.7305,-4.6426,-4.6308,-4.6308,-4.6308,-4.6308,-4.6308,-4.6308,-4.6308,-4.6308,-4.6308,-4.4863,-4.3887,-4.3711,-4.2266,-4.1289,-4.0957,-4.0957,-4.0957,-4.0957,-4.0957,-4.1035,-4.1191,-4.1855,-4.2617,-4.3418,-4.2051,-4.2148,0.0,0.0,0.0,0.0,0.0,0.0,0.0,0.0,0.0,0.0,0.0,-5.2729,-5.517,0.0,-5.6124,-5.774,-5.8015,-5.829,-5.9098,-5.9324,-5.9292,-5.898,-6.0167,-6.1182,-6.1656,-6.2662,-6.2859,-6.1786,-6.1824,-6.1435,-6.037,-6.0629,-6.08,-6.08,-6.08,-6.0589,-6.0146,-5.9319,-5.8473,-5.7646,-5.6761,-5.6107,-5.5703,-5.5703,-5.5261,-5.4453,-5.3587,-5.2712,-5.1846,-5.1029,-5.0712,-5.0712,-5.0712,-5.0712,-5.0693,-5.0693,-5.0702,-5.0701,-5.0729,-5.0821,-5.0899,-5.0899,-5.0905,-5.0898,-5.0898,-5.0959,-5.0997,-5.0997,-5.1011,-5.107,-5.1178,-5.1203,-5.1222,-5.1286,-5.133,-5.1223,-5.0793,-5.0096,-4.9414,-4.8984,-4.7832,-4.6953,-4.6953,-4.6953,-4.6797,-4.6367,-4.6308,-4.6308,-4.6308,-4.6308,-4.6308,-4.6308,-4.6308,-4.6308,-4.6308,-4.4707,-4.3516,-4.3086,-4.1894,-4.1191,-4.1191,-4.1191,-4.1191,-4.1191,-4.1191,-4.1406,-4.1797,-4.2207,-4.3066,-4.4336,-4.3906,-4.418,0.0,0.0,0.0,0.0,0.0,0.0,0.0,-4.9281,-5.0106,-5.3081,-5.4458,-5.5739,-5.785,-5.8364,-5.8896,-6.0199,-5.9869,-5.9667,-6.0309,-6.052,-6.043,-5.9955,-6.0696,-6.1515,-6.2164,-6.2328,-6.2172,-6.1629,-6.1166,-6.0695,-6.0232,-6.052,-6.0734,-6.08,-6.08,-6.0377,-5.9511,-5.8704,-5.7857,-5.6983,-5.6107,-5.5703,-5.5703,-5.5703,-5.5164,-5.4184,-5.3164,-5.2318,-5.1625,-5.0971,-5.0712,-5.0712,-5.0712,-5.0712,-5.0693,-5.0692,-5.0692,-5.0701,-5.0766,-5.081,-5.0872,-5.0899,-5.0905,-5.0909,-5.0898,-5.0898,-5.0898,-5.0898,-5.0898,-5.0937,-5.1069,-5.1099,-5.1114,-5.1183,-5.1249,-5.105,-5.0169,-4.938,-4.8612,-4.7753,-4.6894,-4.6308,-4.6308,-4.6308,-4.6308,-4.6308,-4.6308,-4.6308,-4.6308,-4.6308,-4.6308,-4.6308,-4.6308,-4.6152,-4.582,-4.4512,-4.3262,-4.2226,-4.1562,-4.1191,-4.1191,-4.1191,-4.1191,-4.1191,-4.1191,-4.1523,-4.2168,-4.248,-4.3379,-4.4766,-4.5098,-4.5625,-4.9061,-4.8787,-4.8697,-5.0022,-4.997,-5.0156,0.0,-5.2845,-5.3279,-5.5138,-5.6614,-5.7905,-5.8872,-5.9667,-6.0199,-6.0382,-6.0327,-6.0309,-6.0401,-6.0515,-6.0895,-6.162,-6.1925,-6.2149,-6.235,-6.2391,-6.2082,-6.1307,-6.0824,-6.0337,-5.9877,-6.016,-6.0488,-6.08,-6.08,-6.0377,-5.9511,-5.8704,-5.7857,-5.6983,-5.6107,-5.5703,-5.5703,-5.5703,-5.4838,-5.326,-5.1664,-5.0923,-5.0827,-5.075,-5.0712,-5.0712,-5.0712,-5.0712,-5.0693,-5.0693,-5.0702,-5.0701,-5.071,-5.0766,-5.081,-5.0891,-5.0899,-5.0897,-5.0909,-5.0898,-5.0898,-5.0898,-5.0898,-5.0937,-5.1069,-5.1099,-5.1114,-5.1183,-5.1207,-5.0965,-5.0111,-4.9279,-4.847,-4.7673,-4.6851,-4.6308,-4.6308,-4.6308,-4.6308,-4.6308,-4.6308,-4.6308,-4.6308,-4.6308,-4.6308,-4.6308,-4.6308,-4.5664,-4.4121,-4.3808,-4.3027,-4.1426,-4.125,-4.1191,-4.1191,-4.1191,-4.1191,-4.1191,-4.1191,-4.123,-4.1348,-4.2832,-4.3652,-4.3887,-4.543,-4.6211,-4.9618,-4.9859,-5.0063,-5.0323,-5.0841,-5.1561,-5.2557,-5.3477,-5.4451,-5.5564,-5.7398,-5.9044,-5.9758,-6.0181,-6.0737,0.0,-6.1531,-6.1426,-6.1958,-6.215,-6.2373,-6.2776,-6.2923,-6.3033,-6.3078,-6.2264,-6.1558,-6.1243,-6.0296,-5.9665,-5.9469,-5.9992,-6.0349,-6.0488,-6.071,-6.0165,-5.8819,-5.8473,-5.7607,-5.6252,-5.5857,-5.5703,-5.5703,-5.5703,-5.478,-5.3106,-5.1433,-5.0712,-5.0712,-5.0712,-5.0712,-5.0712,-5.0712,-5.0712,-5.0712,-5.0712,-5.0702,-5.0702,-5.0711,-5.071,-5.0738,-5.081,-5.0863,-5.0899,-5.0897,-5.0901,-5.0898,-5.0898,-5.0898,-5.0914,-5.0961,-5.0983,-5.0997,-5.1017,-5.0701,-5.015,-4.927,-4.8487,-4.7683,-4.6844,-4.6454,-4.6241,-4.6241,-4.6268,-4.6308,-4.6308,-4.6308,-4.6308,-4.6308,-4.6308,-4.6308,-4.6308,-4.6308,-4.5586,-4.3848,-4.3691,-4.2988,-4.1308,-4.1191,-4.1191,-4.1191,-4.1191,-4.1191,-4.1191,-4.1191,-4.168,-4.2656,-4.3359,-4.4219,-4.5234,-4.5957,-4.6308,-4.9787,-5.0305,-5.0768,-5.0713,-5.1527,-5.2432,-5.2654,-5.3763,-5.496,-5.5726,-5.7578,-5.9352,-6.0289,-6.0608,-6.1238,-6.2739,-6.2505,-6.2387,-6.3097,-6.3284,-6.3354,-6.34,-6.3488,-6.3557,-6.3598,-6.2153,-6.1206,-6.1206,-5.9878,-5.9084,-5.9197,-5.9704,-6.0082,-6.0293,-6.0533,-5.9903,-5.8319,-5.83,-5.7434,-5.5703,-5.5703,-5.5703,-5.5684,-5.5222,-5.4357,-5.3106,-5.1433,-5.0712,-5.0712,-5.0712,-5.0712,-5.0712,-5.0712,-5.0712,-5.0712,-5.0712,-5.0712,-5.0693,-5.0712,-5.0702,-5.0711,-5.0757,-5.0821,-5.0846,-5.0883,-5.0888,-5.0901,-5.0901,-5.089,-5.0898,-5.0898,-5.0898,-5.0898,-5.0898,-5.031,-4.9536,-4.8657,-4.7884,-4.7081,-4.6244,-4.6128,-4.6189,-4.62,-4.6215,-4.6264,-4.6289,-4.6288,-4.6288,-4.6308,-4.6308,-4.6308,-4.6308,-4.6308,-4.5586,-4.3848,-4.3691,-4.2988,-4.1308,-4.1191,-4.1191,-4.1191,-4.1191,-4.1191,-4.1191,-4.1191,-4.1797,-4.3008,-4.3476,-4.4355,-4.5586,-4.6074,-4.6308,-4.9861,-4.9973,-5.0417,-5.2028,-5.2512,-5.2791,-5.3571,-5.4347,-5.512,-5.5934,-5.7245,-5.8731,-6.0291,-6.1116,-6.1881,-6.2831,-6.2984,-6.3014,-6.3189,-6.3213,-6.326,-6.3377,-6.34,-6.3447,0.0,-6.2153,-6.1206,-6.1206,-5.9645,-5.8865,-5.9197,-5.9215,-5.957,-6.0279,-6.0307,-5.9677,-5.8308,-5.83,-5.7434,-5.5703,-5.5703,-5.5703,-5.5645,-5.403,-5.326,-5.3106,-5.1433,-5.0712,-5.0712,-5.0712,-5.0712,-5.0712,-5.0712,-5.0712,-5.0712,-5.0712,-5.0712,-5.0712,-5.0693,-5.0693,-5.0702,-5.0702,-5.0701,-5.071,-5.0784,-5.0846,-5.0899,-5.0899,-5.0893,-5.0898,-5.0898,-5.0898,-5.0898,-5.0898,-5.0287,-4.9463,-4.8592,-4.7773,-4.6973,-4.6157,-4.6067,-4.6125,-4.6197,-4.6147,-4.6147,-4.6288,-4.6241,-4.6235,-4.6289,-4.6308,-4.6308,-4.6308,-4.6308,-4.5586,-4.3848,-4.3691,-4.2988,-4.1308,-4.1191,-4.1191,-4.1191,-4.1191,-4.1191,-4.1191,-4.1191,-4.123,-4.1289,-4.291,-4.373,-4.3828,-4.5508,-4.6308,-4.9936,-5.0843,-5.1844,-5.2438,-5.2995,-5.3478,-5.3738,-5.4387,-5.5034,-5.5251,-5.6034,-5.7162,-5.8712,-5.9554,-6.0528,-6.2066,-6.2772,-6.3213,-6.3424,-6.3465,-6.3488,-6.3534,-6.3534,0.0,0.0,0.0,0.0,-6.1206,-5.9664,-5.876,-5.8865,-5.9083,-5.945,-5.995,-6.0175,-5.9664,-5.8308,-5.83,-5.7434,-5.5703,-5.5703,-5.5703,-5.5645,-5.3953,-5.3203,-5.3106,-5.1433,-5.0712,-5.0712,-5.0712,-5.0712,-5.0712,-5.0712,-5.0712,-5.0712,-5.0712,-5.0712,-5.0712,-5.0712,-5.0712,-5.0693,-5.0712,-5.0692,-5.0701,-5.072,-5.0784,-5.0819,-5.0819,-5.0872,-5.0905,-5.0905,-5.0901,-5.0898,-5.0898,-4.9842,-4.8732,-4.8419,-4.7253,-4.6197,-4.5925,-4.5964,-4.6046,-4.6056,-4.6084,-4.6115,-4.6158,-4.6215,-4.6268,-4.6308,-4.6308,-4.6308,-4.6308,-4.6308,-4.5586,-4.3848,-4.3691,-4.2988,-4.1308,-4.1191,-4.1191,-4.1191,-4.1191,-4.1191,-4.1191,-4.1191,-4.1758,-4.2851,-4.3418,-4.4297,-4.5449,-4.6035,-4.6308,-5.0768,-5.1751,-5.2679,-5.2958,-5.3423,-5.3813,-5.3813,-5.4203,-5.4648,-5.4885,-5.5005,-5.5713,-5.7822,-5.8336,-5.92,-6.1602,-6.2484,-6.3021,-6.3519,-6.3602,-6.3602,-6.3602,-6.3602,-6.3602,0.0,0.0,0.0,-6.1206,-5.9924,-5.9014,-5.8735,-5.8906,-5.9197,-5.9571,-5.9931,-5.9463,-5.8091,-5.8235,-5.7434,-5.5703,-5.5703,-5.5703,-5.5645,-5.3953,-5.3203,-5.3106,-5.1433,-5.0712,-5.0712,-5.0712,-5.0712,-5.0712,-5.0712,-5.0712,-5.0712,-5.0712,-5.0712,-5.0712,-5.0712,-5.0712,-5.0712,-5.0712,-5.0712,-5.0692,-5.0692,-5.073,-5.0756,-5.0756,-5.0801,-5.0855,-5.0855,-5.0888,-5.0901,-5.0901,-4.9838,-4.8729,-4.8377,-4.7198,-4.6136,-4.5831,-4.5854,-4.5935,-4.5956,-4.6039,-4.6091,-4.606,-4.6155,-4.6235,-4.6235,-4.6235,-4.6235,-4.6235,-4.6235,-4.5513,-4.3775,-4.3639,-4.2916,-4.1237,-4.1139,-4.1143,-4.1169,-4.1169,-4.117,-4.1191,-4.1191,-4.1875,-4.3242,-4.3555,-4.4433,-4.584,-4.6152,-4.6308,-5.2159,-5.2624,-5.2847,-5.3608,-5.3813,-5.3813,-5.3813,-5.3813,-5.3998,-5.4741,-5.4101,-5.4367,-5.7433,-5.7416,-5.8021,-6.1292,-6.2036,-6.2538,-6.3468,-6.3602,-6.3602,-6.3602,-6.3602,-6.3602,-6.3602,0.0,0.0,-6.1206,0.0,-5.9515,-5.8754,-5.8716,-5.8845,-5.9197,-5.9571,-5.9102,-5.7707,-5.8007,-5.7338,-5.5703,-5.5703,-5.5703,-5.5645,-5.3953,-5.3203,-5.3106,-5.1433,-5.0712,-5.0712,-5.0712,-5.0712,-5.0712,-5.0712,-5.0712,-5.0712,-5.0712,-5.0712,-5.0712,-5.0712,-5.0712,-5.0712,-5.0712,-5.0712,-5.0712,-5.0712,-5.0702,-5.0692,-5.0692,-5.0757,-5.0793,-5.0793,-5.0846,-5.0899,-5.0899,-5.0223,-4.9354,-4.8485,-4.7615,-4.6733,-4.5873,-4.5758,-4.5812,-4.5885,-4.5998,-4.606,-4.5982,-4.6035,-4.6091,-4.6098,-4.6098,-4.6098,-4.6098,-4.6098,-4.542,-4.3705,-4.353,-4.2806,-4.1166,-4.101,-4.1039,-4.1085,-4.1087,-4.1119,-4.1191,-4.123,-4.164,-4.2461,-4.334,-4.4218,-4.5078,-4.5918,-4.6289,-5.2494,-5.3051,-5.3553,-5.3757,-5.3813,-5.3813,-5.3813,-5.3813,-5.3701,-5.3292,-5.2879,-5.2853,-5.3684,-5.5078,-5.6826,-5.8966,-6.0944,0.0,-6.3468,-6.3602,-6.3602,-6.3602,-6.3602,-6.3602,-6.3602,-6.2692,0.0,0.0,-5.985,-5.8921,-5.8716,-5.8716,-5.8845,-5.9197,-5.9307,-5.8824,-5.7726,-5.6798,-5.6145,-5.5703,-5.5703,-5.5703,-5.5645,-5.3953,-5.3203,-5.3106,-5.1433,-5.0712,-5.0712,-5.0712,-5.0712,-5.0712,-5.0712,-5.0712,-5.0712,-5.0712,-5.0712,-5.0712,-5.0712,-5.0712,-5.0712,-5.0712,-5.0712,-5.0712,-5.0712,-5.0702,-5.0702,-5.0702,-5.0702,-5.0739,-5.0739,-5.0775,-5.0838,-5.0838,-5.0154,-4.9296,-4.8422,-4.7574,-4.6744,-4.5872,-4.5711,-4.5739,-4.5757,-4.5827,-4.5854,-4.5786,-4.5835,-4.5936,-4.6084,-4.6098,-4.6098,-4.6098,-4.6098,-4.565,-4.4556,-4.3877,-4.3039,-4.1965,-4.1322,-4.1019,-4.1017,-4.1037,-4.1022,-4.1057,-4.164,-4.2381,-4.3308,-4.4118,-4.4996,-4.5902,-4.6117,-4.6234,-5.3032,-5.346,-5.3813,-5.3813,-5.3813,-5.3813,-5.3813,-5.3813,-5.3663,-5.318,-5.2379,-5.2096,-5.3167,-5.4142,-5.571,-5.8554,-6.0548,-6.2175,-6.3431,-6.3602,-6.3602,-6.3602,-6.3602,-6.3602,-6.3602,-6.2562,-6.1689,0.0,-5.998,-5.9069,-5.8735,-5.8716,-5.8782,-5.8967,-5.9122,-5.8723,-5.7726,-5.6368,-5.5703,-5.5703,-5.5703,-5.5511,-5.5126,-5.3799,-5.2991,-5.2568,0.0,-5.0712,-5.0712,-5.0712,-5.0712,-5.0712,-5.0712,-5.0712,-5.0712,-5.0712,-5.0712,-5.0712,-5.0712,-5.0712,-5.0712,-5.0712,-5.0712,-5.0712,-5.0712,-5.0712,-5.0712,-5.0712,-5.0712,-5.0712,-5.0712,-5.073,-5.0766,-5.0766,-5.0371,-4.9688,-4.8465,-4.782,-4.7118,-4.5932,-4.5698,-4.5703,-4.57,-4.5723,-4.5731,-4.5708,-4.5727,-4.5801,-4.5947,-4.5973,-4.5959,-4.5959,-4.5959,-4.5629,-4.4788,-4.4263,-4.3603,-4.2748,-4.1893,-4.1444,-4.1482,-4.1136,-4.0979,-4.099,-4.1789,-4.2649,-4.3563,-4.438,-4.528,-4.6153,-4.6153,-4.6153,-5.3665,-5.3832,-5.3813,-5.3813,-5.3813,-5.3813,-5.3813,-5.3813,-5.3737,-5.3604,-5.2341,-5.1876,-5.3869,-5.3761,-5.4707,-5.8807,-6.0268,-6.1521,-6.3342,-6.3602,-6.3602,-6.3602,-6.3602,-6.3602,-6.3602,-6.2153,-6.1206,-6.1206,-6.0295,-5.9438,-5.8754,-5.8716,-5.8661,-5.8549,-5.8745,-5.8423,-5.7466,-5.6252,-5.5662,-5.5703,-5.5703,-5.528,-5.4472,-5.3606,-5.2712,-5.1865,0.0,0.0,-5.0712,-5.0712,-5.0712,-5.0712,-5.0712,-5.0712,-5.0712,-5.0712,-5.0712,-5.0712,-5.0712,-5.0712,-5.0712,-5.0712,-5.0712,-5.0712,-5.0712,-5.0712,-5.0712,-5.0712,-5.0712,-5.0712,-5.0712,-5.0702,-5.0711,-5.0711,-5.0711,-5.0249,-4.8544,-4.7969,-4.7364,-4.5954,-4.5693,-4.5682,-4.5684,-4.5692,-4.5692,-4.5692,-4.57,-4.5715,-4.5785,-4.5791,-4.58,-4.5807,-4.5807,-4.551,-4.4813,-4.4652,-4.4284,-4.3518,-4.255,-4.2039,-4.2082,-4.131,-4.0906,-4.0963,-4.1878,-4.2719,-4.3497,-4.4452,-4.5328,-4.6084,-4.6084,-4.6084,-5.4087,-5.3999,-5.3813,-5.3813,-5.3813,-5.3813,-5.3813,-5.3813,-5.3627,-5.2939,-5.2474,-5.2102,-5.1861,-5.2268,-5.3788,-5.7179,-5.8524,-6.0184,-6.3193,-6.3602,-6.3602,-6.3602,-6.3602,-6.3602,-6.3602,-6.2153,0.0,0.0,0.0,-5.8865,-5.8716,-5.8716,-5.8401,-5.7732,-5.7323,-5.6854,-5.6292,-5.5668,-5.5473,-5.5703,-5.5703,-5.528,-5.4472,-5.3606,-5.2712,-5.1865,0.0,0.0,-5.0712,-5.0712,-5.0712,-5.0712,-5.0712,-5.0712,-5.0712,-5.0712,-5.0712,-5.0712,-5.0712,-5.0712,-5.0712,-5.0712,-5.0712,-5.0712,-5.0712,-5.0712,-5.0712,-5.0712,-5.0712,-5.0712,-5.0712,-5.0693,-5.0702,-5.0702,-5.0702,-5.024,-4.848,-4.7018,-4.596,-4.5661,-4.5622,-4.5622,-4.5612,-4.5665,-4.5682,-4.562,-4.566,-4.57,-4.5726,-4.577,-4.581,-4.58,-4.5807,-4.5749,-4.5587,-4.4987,-4.4536,-4.4381,-4.2879,-4.2022,-4.2021,-4.1234,-4.082,-4.0818,-4.2329,-4.3214,-4.3427,-4.4901,-4.5761,-4.6027,-4.6027,-4.6027,-5.4296,-5.4177,-5.4036,-5.3851,-5.3813,-5.3813,-5.3813,-5.3813,-5.3682,-5.3254,-5.2789,-5.2473,-5.2491,-5.2454,-5.34,-5.6296,-5.6781,-5.8085,-6.1837,-6.1967,-6.2153,-6.3453,-6.3602,-6.3453,-6.3026,-6.1911,-6.102,-6.0574,0.0,-5.8716,-5.8716,-5.8308,-5.7899,-5.7509,-5.6557,-5.6049,-5.6008,-5.5524,-5.5425,-5.5703,-5.5703,-5.503,-5.3818,-5.3395,-5.251,-5.1241,0.0,0.0,-5.0712,-5.0712,-5.0712,-5.0712,-5.0712,-5.0712,-5.0712,-5.0712,-5.0712,-5.0712,-5.0712,-5.0712,-5.0712,-5.0712,-5.0712,-5.0712,-5.0712,-5.0712,-5.0712,-5.0712,-5.0712,-5.0712,-5.0712,-5.0712,-5.0712,-5.0712,-5.001,-4.9125,-4.8279,-4.6778,-4.5594,-4.5594,-4.5594,-4.5594,-4.5594,-4.5631,-4.564,-4.5594,-4.5629,-4.5662,-4.5701,-4.5734,-4.5762,-4.5742,-4.5783,-4.5798,-4.5798,-4.5445,-4.522,-4.522,-4.4059,-4.315,-4.2705,-4.1874,-4.1242,-4.0816,-4.2454,-4.3318,-4.3346,-4.5002,-4.5822,-4.5905,-4.5905,-4.5905,-5.4576,-5.4413,-5.4246,-5.3981,-5.3851,-5.3813,-5.3813,-5.3813,-5.3793,-5.3734,-5.3215,-5.2974,-5.3585,-5.303,-5.3216,-5.5632,-5.5614,-5.6543,-6.0165,-6.0537,-6.1147,-6.3119,-6.3509,-6.3286,-6.2487,-6.167,0.0,-5.998,0.0,0.0,-5.8698,-5.7955,-5.7416,-5.7249,-5.6033,-5.5476,-5.5634,-5.5332,-5.532,-5.5618,-5.5662,-5.4818,-5.3203,-5.3203,-5.2299,-5.0712,0.0,0.0,0.0,-5.0712,-5.0712,-5.0712,-5.0712,-5.0712,-5.0712,-5.0712,-5.0712,-5.0712,-5.0712,-5.0712,-5.0712,-5.0712,-5.0712,-5.0712,-5.0712,-5.0712,-5.0712,-5.0712,-5.0712,-5.0712,-5.0712,-5.0712,-5.0654,-5.0481,-4.9221,-4.8048,-4.7875,-4.6663,-4.5594,-4.5594,-4.5594,-4.5594,-4.5594,-4.5594,-4.5594,-4.5594,-4.5594,-4.5622,-4.5665,-4.5684,-4.5682,-4.5676,-4.5743,-4.5773,-4.5773,-4.5791,-4.5793,-4.5793,-4.5039,-4.4284,-4.3614,-4.2744,-4.197,-4.1358,-4.2802,-4.3576,-4.3576,-4.5065,-4.5807,-4.5807,-4.5807,-4.5807,-5.5138,-5.4758,-5.4298,-5.4264,-5.4036,-5.3813,-5.3813,-5.3813,-5.3813,-5.3793,-5.3738,-5.3701,-5.3775,-5.3125,-5.3125,-5.4853,-5.5726,-5.6822,-5.8679,-6.0815,-6.2264,-6.2487,-6.3175,-6.3286,-6.2487,-6.167,-6.0853,0.0,0.0,0.0,-5.8661,-5.7955,-5.7175,-5.6432,-5.5504,-5.4876,-5.4461,-5.4723,-5.5009,-5.5339,-5.5585,-5.4818,-5.3203,-5.3203,-5.2299,-5.0712,0.0,0.0,0.0,-5.0712,-5.0712,-5.0712,-5.0712,-5.0712,-5.0712,-5.0712,-5.0712,-5.0712,-5.0712,-5.0712,-5.0712,-5.0712,-5.0712,-5.0712,-5.0712,-5.0712,-5.0712,-5.0712,-5.0712,-5.0712,-5.0712,-5.0712,-5.05,-4.9702,-4.8798,-4.7894,-4.7173,-4.6278,-4.5594,-4.5594,-4.5594,-4.5594,-4.5594,-4.5594,-4.5594,-4.5594,-4.5594,-4.5594,-4.5614,-4.5622,-4.5603,-4.5603,-4.566,-4.5715,-4.5715,-4.5765,-4.5795,-4.5795,-4.5044,-4.4555,-4.4478,-4.3634,-4.315,-4.3073,-4.4001,-4.4478,-4.4478,-4.5374,-4.5807,-4.5807,-4.5807,-4.5807,-5.518,-5.5111,-5.4866,-5.4654,-5.4347,-5.4107,-5.4107,-5.3944,-5.3813,-5.3813,-5.3813,-5.3813,-5.3813,-5.3144,-5.281,-5.346,-5.3014,-5.3311,-5.5466,-5.7026,-5.8679,-6.0667,-6.1651,-6.2041,0.0,0.0,-6.0072,0.0,0.0,0.0,-5.7973,-5.6729,-5.5856,-5.554,-5.4723,-5.428,-5.4298,-5.443,-5.4776,-5.5282,-5.4884,-5.4158,-5.3183,-5.2654,-5.1798,-5.0712,0.0,0.0,0.0,-5.0712,-5.0712,-5.0712,-5.0712,-5.0712,-5.0712,-5.0712,-5.0712,-5.0712,-5.0712,-5.0712,-5.0712,-5.0712,-5.0712,-5.0712,-5.0712,-5.0712,-5.0712,-5.0712,-5.0712,-5.0712,-5.0712,-5.0712,-5.0616,-5.0269,-4.9125,-4.8009,-4.7702,-4.6567,-4.5594,-4.5594,-4.5594,-4.5594,-4.5594,-4.5594,-4.5594,-4.5594,-4.5594,-4.5594,-4.5594,-4.5594,-4.5594,-4.5594,-4.5673,-4.5706,-4.5706,-4.5727,-4.5731,-4.5731,-4.5479,-4.5088,-4.4559,-4.4258,-4.3846,-4.3305,-4.4149,-4.4594,-4.4594,-4.5413,-4.5807,-4.5807,-4.5807,-4.5807,-5.4963,-5.5192,-5.523,-5.5014,-5.4623,-5.4315,-5.4315,-5.4035,-5.3813,-5.3813,-5.3813,-5.3813,-5.3813,-5.3144,-5.2512,-5.2289,-5.1454,-5.1528,-5.3534,-5.4927,-5.6764,-5.9571,0.0,-6.1113,0.0,-6.0054,0.0,0.0,0.0,0.0,0.0,-5.5429,-5.476,-5.5001,-5.4221,-5.3907,-5.4142,-5.4246,-5.4459,-5.4751,-5.4257,-5.3587,-5.2799,-5.2173,-5.1471,-5.0712,0.0,0.0,0.0,-5.0712,-5.0712,-5.0712,-5.0712,-5.0712,-5.0712,-5.0712,-5.0712,-5.0712,-5.0712,-5.0712,-5.0712,-5.0712,-5.0712,-5.0712,-5.0712,-5.0712,-5.0712,-5.0712,-5.0712,-5.0712,-5.0712,-5.0712,-5.0635,-5.0385,-4.9183,-4.8029,-4.7798,-4.6624,-4.5594,-4.5594,-4.5594,-4.5594,-4.5594,-4.5594,-4.5594,-4.5594,-4.5594,-4.5594,-4.5594,-4.5594,-4.5594,-4.5594,-4.564,-4.5665,-4.5665,-4.5679,-4.5703,-4.5703,-4.5743,-4.5495,-4.487,-4.4926,-4.4657,-4.4045,-4.4632,-4.4949,-4.4968,-4.551,-4.5807,-4.5807,-4.5807,-4.5807,-5.4511,-5.4902,-5.5301,-5.5301,-5.4787,-5.4315,-5.4315,-5.4035,-5.3813,-5.3813,-5.3813,-5.3813,-5.3813,-5.3144,-5.2345,-5.1546,-5.2067,0.0,-5.3683,-5.593,-5.8085,-5.9698,-6.0685,-6.0871,-6.0017,-5.9199,0.0,0.0,0.0,0.0,0.0,-5.4258,-5.4184,-5.4983,-5.4221,-5.3794,-5.3813,-5.4124,-5.403,-5.3518,-5.3847,-5.3269,-5.1904,-5.1904,-5.1471,0.0,0.0,0.0,0.0,-5.0712,-5.0712,-5.0712,-5.0712,-5.0712,-5.0712,-5.0712,-5.0712,-5.0712,-5.0712,-5.0712,-5.0712,-5.0712,-5.0712,-5.0712,-5.0712,-5.0712,-5.0712,-5.0712,-5.0712,-5.0712,-5.0712,-5.0712,-5.0481,-4.9625,-4.874,-4.7875,-4.7077,-4.622,-4.5594,-4.5594,-4.5594,-4.5594,-4.5594,-4.5594,-4.5594,-4.5594,-4.5594,-4.5594,-4.5594,-4.5594,-4.5594,-4.5594,-4.5594,-4.5594,-4.5594,-4.5657,-4.5701,-4.5701,-4.5703,-4.5708,-4.5688,-4.5746,-4.5788,-4.5769,-4.5786,-4.5787,-4.5787,-4.5807,-4.5807,-4.5807,-4.5807,-4.5807,-5.4337,-5.5034,-5.5573,-5.5573,-5.5099,-5.4639,-5.4639,-5.4212,-5.3645,-5.3088,-5.2977,-5.281,-5.2271,-5.1955,-5.1881,-5.2178,-5.2438,0.0,-5.3701,-5.5466,-5.7082,-5.8141,-5.9478,-5.9998,0.0,0.0,0.0,0.0,0.0,0.0,0.0,-5.424,-5.3924,-5.4184,-5.3943,-5.3813,-5.3813,-5.3367,-5.317,-5.3201,-5.2179,-5.1662,-5.1603,-5.1009,0.0,0.0,0.0,0.0,0.0,-5.0712,-5.0712,-5.0712,-5.0712,-5.0712,-5.0712,-5.0712,-5.0712,-5.0712,-5.0712,-5.0712,-5.0712,-5.0712,-5.0712,-5.0712,-5.0712,-5.0712,-5.0712,-5.0712,-5.0712,-5.0712,-5.0712,-5.0712,-5.0481,-4.9606,-4.874,-4.7875,-4.7058,-4.622,-4.5594,-4.5594,-4.5594,-4.5594,-4.5594,-4.5594,-4.5594,-4.5594,-4.5594,-4.5594,-4.5594,-4.5594,-4.5594,-4.5594,-4.5594,-4.5594,-4.5594,-4.5622,-4.5631,-4.5631,-4.5673,-4.5698,-4.5698,-4.5719,-4.5723,-4.5723,-4.5788,-4.5803,-4.5803,-4.5793,-4.5807,-4.5807,-4.5807,-4.5807,-5.3857,-5.4838,-5.5682,-5.5573,-5.5172,-5.4761,-5.4639,-5.4177,-5.3664,-5.3162,-5.281,-5.2457,-5.1955,-5.1361,-5.1101,-5.1584,-5.1398,-5.1714,-5.3144,-5.4518,-5.6004,-5.7751,0.0,0.0,0.0,0.0,0.0,0.0,0.0,0.0,0.0,0.0,-5.3813,-5.3813,-5.3813,-5.3664,-5.3348,-5.2847,-5.2452,-5.2137,-5.1107,-5.0688,-5.0837,-5.0388,0.0,0.0,0.0,0.0,0.0,-5.0712,-5.0712,-5.0712,-5.0712,-5.0712,-5.0712,-5.0712,-5.0712,-5.0712,-5.0712,-5.0712,-5.0712,-5.0712,-5.0712,-5.0712,-5.0712,-5.0712,-5.0712,-5.0712,-5.0712,-5.0712,-5.0712,-5.0712,-5.0481,-4.9606,-4.874,-4.7875,-4.7058,-4.622,-4.5594,-4.5594,-4.5594,-4.5594,-4.5594,-4.5594,-4.5594,-4.5594,-4.5594,-4.5594,-4.5594,-4.5594,-4.5594,-4.5594,-4.5594,-4.5594,-4.5594,-4.5594,-4.5594,-4.5594,-4.564,-4.5657,-4.5657,-4.5698,-4.5703,-4.5703,-4.5743,-4.5765,-4.5765,-4.5783,-4.5805,-4.5805,-4.58,-4.5807,0.0,-5.4376,-5.564,-5.5389,-5.505,-5.4716,-5.4397,-5.4054,0.0,-5.3738,-5.307,-5.2512,-5.2512,-5.1193,-5.0135,-5.0265,-4.9652,-5.0005,-5.2438,-5.3515,-5.5224,0.0,-5.8716,0.0,0.0,0.0,0.0,0.0,0.0,0.0,0.0,0.0,-5.3775,-5.372,-5.372,-5.3367,-5.2605,-5.2494,-5.1802,-5.0553,-5.0496,-5.0233,-4.979,-5.0038,0.0,0.0,0.0,0.0,0.0,-5.0712,-5.0712,-5.0712,-5.0712,-5.0712,-5.0712,-5.0712,-5.0712,-5.0712,-5.0712,-5.0712,-5.0712,-5.0712,-5.0712,-5.0712,-5.0712,-5.0712,-5.0712,-5.0712,-5.0712,-5.0712,-5.0712,-5.0712,-5.0462,-4.9529,-4.8682,-4.7855,-4.699,-4.6163,-4.5594,-4.5594,-4.5594,-4.5594,-4.5594,-4.5594,-4.5594,-4.5594,-4.5594,-4.5594,-4.5594,-4.5594,-4.5594,-4.5594,-4.5594,-4.5594,-4.5594,-4.5594,-4.5594,-4.5594,-4.5594,-4.5594,-4.5594,-4.5657,-4.5693,-4.5693,-4.5703,-4.57,-4.5708,-4.5765,-4.5807,-4.5807,-4.5805,-4.58,-5.2385,0.0,-5.5673,-5.5618,-5.5198,-5.4776,0.0,-5.4229,-5.3627,-5.3014,-5.2234,-5.1676,-5.1676,-5.0339,-4.9819,-5.1714,-5.1862,-5.2364,-5.4184,-5.5707,-5.7156,-5.8549,-5.8716,-5.8475,0.0,0.0,0.0,0.0,0.0,0.0,0.0,0.0,-5.3534,-5.2902,-5.2884,-5.2791,-5.2605,-5.1379,-5.0579,-5.022,-4.9587,-4.9361,-4.9503,-4.9558,0.0,0.0,0.0,0.0,0.0,-5.0712,-5.0712,-5.0712,-5.0712,-5.0712,-5.0712,-5.0712,-5.0712,-5.0712,-5.0712,-5.0712,-5.0712,-5.0712,-5.0712,-5.0712,-5.0712,-5.0712,-5.0712,-5.0712,-5.0712,-5.0712,-5.0712,-5.0712,-5.0308,-4.8779,-4.8259,-4.7702,-4.622,-4.5748,-4.5594,-4.5594,-4.5594,-4.5594,-4.5594,-4.5594,-4.5594,-4.5594,-4.5594,-4.5594,-4.5594,-4.5594,-4.5594,-4.5594,-4.5594,-4.5594,-4.5594,-4.5594,-4.5594,-4.5594,-4.5594,-4.5594,-4.5594,-4.5622,-4.5631,-4.5631,-4.5673,-4.5695,-4.5708,-4.5715,-4.5758,-4.5807,-4.5795,-4.5798,-5.2019,-5.376,-5.5566,-5.5052,-5.4982,-5.4938,-5.4639,-5.4298,-5.3776,-5.2791,-5.1955,-5.1286,-5.0878,-4.9763,-4.9466,-5.1175,-5.1454,-5.2289,-5.4686,-5.6134,-5.7379,-5.8568,-5.8382,0.0,0.0,0.0,0.0,0.0,0.0,0.0,0.0,0.0,-5.2884,-5.2067,-5.1658,-5.1454,-5.1454,-5.0599,-4.9949,-4.954,-4.9113,-4.9012,-4.9176,-4.9337,0.0,0.0,0.0,0.0,-5.0483,-5.0653,-5.0712,-5.0712,-5.0712,-5.0712,-5.0712,-5.0712,-5.0712,-5.0712,-5.0712,-5.0712,-5.0712,-5.0712,-5.0712,-5.0712,-5.0712,-5.0712,-5.0712,-5.0712,-5.0712,-5.0712,-5.0712,-5.0712,-5.0269,-4.8509,-4.8105,-4.7644,-4.596,-4.5594,-4.5594,-4.5594,-4.5594,-4.5594,-4.5594,-4.5594,-4.5594,-4.5594,-4.5594,-4.5594,-4.5594,-4.5594,-4.5594,-4.5594,-4.5594,-4.5594,-4.5594,-4.5594,-4.5594,-4.5594,-4.5594,-4.5594,-4.5594,-4.5594,-4.5594,-4.5594,-4.564,-4.5646,-4.5643,-4.5687,-4.573,-4.5754,-4.575,-4.5754,-5.1712,-5.3491,-5.5122,-5.4271,-5.46,-5.4999,-5.4554,-5.4319,-5.3887,-5.2882,-5.1935,-5.108,-5.0413,-4.9633,-4.9355,-5.0172,-5.0506,-5.1769,-5.4946,-5.6023,-5.7026,-5.8531,-5.7992,0.0,0.0,0.0,0.0,0.0,0.0,0.0,0.0,0.0,0.0,-5.1231,-5.0488,-5.0042,-4.993,-4.993,-4.9577,-4.8909,-4.8909,-4.8909,-4.8909,-4.9193,0.0,0.0,0.0,0.0,-5.0237,-5.0565,-5.0712,-5.0712,-5.0712,-5.0712,-5.0712,-5.0712,-5.0712,-5.0712,-5.0712,-5.0712,-5.0712,-5.0712,-5.0712,-5.0712,-5.0712,-5.0712,-5.0712,-5.0712,-5.0712,-5.0712,-5.0712,-5.0712,-5.0289,-4.8682,-4.8202,-4.7682,-4.6124,-4.5691,-4.5594,-4.5594,-4.5594,-4.5594,-4.5594,-4.5594,-4.5594,-4.5594,-4.5594,-4.5594,-4.5594,-4.5594,-4.5594,-4.5594,-4.5594,-4.5594,-4.5594,-4.5594,-4.5594,-4.5594,-4.5594,-4.5594,-4.5594,-4.5594,-4.5594,-4.5594,-4.5594,-4.5594,-4.5594,-4.5648,-4.5693,-4.5701,-4.5695,-4.57,-5.0875,-5.2202,-5.3712,-5.4276,-5.43,-5.4365,-5.4993,-5.4354,-5.3508,-5.3113,-5.1811,-5.0815,-5.1136,-5.0506,-5.0209,-5.1063,-5.2345,-5.4147,0.0,0.0,-5.7658,-5.8605,0.0,0.0,0.0,0.0,0.0,0.0,0.0,0.0,0.0,0.0,0.0,-5.0339,-5.0172,-4.9782,-4.9094,-4.9076,-4.902,-4.8909,-4.8909,-4.8909,-4.8909,-4.8942,-4.9127,0.0,0.0,0.0,-5.0237,-5.0565,-5.0712,-5.0712,-5.0712,-5.0712,-5.0712,-5.0712,-5.0712,-5.0712,-5.0712,-5.0712,-5.0712,-5.0712,-5.0712,-5.0712,-5.0712,-5.0712,-5.0712,-5.0712,-5.0712,-5.0712,-5.0712,-5.0712,-5.0462,-4.9433,-4.8644,-4.7836,-4.6913,-4.6124,-4.5594,-4.5594,-4.5594,-4.5594,-4.5594,-4.5594,-4.5594,-4.5594,-4.5594,-4.5594,-4.5594,-4.5594,-4.5594,-4.5594,-4.5594,-4.5594,-4.5594,-4.5594,-4.5594,-4.5594,-4.5594,-4.5594,-4.5594,-4.5594,-4.5594,-4.5594,-4.5594,-4.5594,-4.5594,-4.5622,-4.564,-4.5701,-4.5709,-4.5695,-4.9413,-5.0548,-5.1952,-5.2337,-5.3686,-5.4848,-5.4657,-5.4529,-5.4144,-5.2915,-5.1927,-5.1094,-5.0443,-5.0202,-5.0543,-5.1844,-5.3032,-5.4351,-5.593,-5.6153,-5.6469,0.0,0.0,0.0,0.0,0.0,0.0,0.0,0.0,0.0,0.0,0.0,0.0,0.0,-4.9447,-4.928,-4.8909,-4.8909,-4.8909,-4.8909,-4.8909,-4.8909,-4.8909,-4.8909,-4.8976,0.0,0.0,-4.9754,-5.0012,-5.0313,-5.0544,-5.0712,-5.0712,-5.0712,-5.0712,-5.0712,-5.0712,-5.0712,-5.0712,-5.0712,-5.0712,-5.0712,-5.0712,-5.0712,-5.0712,-5.0712,-5.0712,-5.0712,-5.0712,-5.0712,-5.0712,-5.0712,-5.0481,-4.9606,-4.874,-4.7875,-4.7058,-4.622,-4.5594,-4.5594,-4.5594,-4.5594,-4.5594,-4.5594,-4.5594,-4.5594,-4.5594,-4.5594,-4.5594,-4.5594,-4.5594,-4.5594,-4.5594,-4.5594,-4.5594,-4.5594,-4.5594,-4.5594,-4.5594,-4.5594,-4.5594,-4.5594,-4.5594,-4.5594,-4.5594,-4.5594,-4.5594,-4.5594,-4.5622,-4.5648,-4.5648,-4.5657,-4.8529,-4.9375,-5.0346,-5.0144,-5.2626,-5.4949,-5.4276,-5.4489,-5.4415,-5.2979,-5.238,-5.1696,-5.0323,-5.0474,-5.132,-5.2903,-5.3683,-5.437,-5.5206,-5.5299,0.0,0.0,0.0,0.0,0.0,0.0,0.0,0.0,0.0,0.0,0.0,0.0,0.0,0.0,-4.8874,-4.8874,-4.8874,-4.8874,-4.8891,-4.8909,-4.8909,-4.8909,-4.8909,-4.8909,-4.8909,-4.8926,-4.9239,-4.9558,-4.9811,-5.0099,-5.041,-5.0712,-5.0712,-5.0712,-5.0712,-5.0712,-5.0712,-5.0712,-5.0712,-5.0712,-5.0712,-5.0712,-5.0712,-5.0712,-5.0712,-5.0712,-5.0712,-5.0712,-5.0712,-5.0712,-5.0712,-5.0712,-5.0481,-4.9606,-4.874,-4.7875,-4.7058,-4.622,-4.5594,-4.5594,-4.5594,-4.5594,-4.5594,-4.5594,-4.5594,-4.5594,-4.5594,-4.5594,-4.5594,-4.5594,-4.5594,-4.5594,-4.5594,-4.5594,-4.5594,-4.5594,-4.5594,-4.5594,-4.5594,-4.5594,-4.5594,-4.5594,-4.5594,-4.5594,-4.5594,-4.5594,-4.5594,-4.5594,-4.5594,-4.5594,-4.5594,-4.5594,-4.9106,-4.9394,-4.9298,-4.849,-5.0856,-5.3558,-5.4297,-5.3893,-5.3445,-5.379,-5.327,-5.2597,-5.2172,-5.2532,-5.3298,-5.4632,-5.489,-5.5224,-5.6079,0.0,0.0,0.0,0.0,0.0,0.0,0.0,0.0,0.0,0.0,0.0,0.0,0.0,0.0,0.0,0.0,-4.8804,-4.8804,-4.8804,-4.884,-4.8909,-4.8909,-4.8909,-4.8909,-4.8909,-4.8909,-4.8926,-4.9239,-4.9558,-4.9811,-5.0099,-5.041,-5.0712,-5.0712,-5.0712,-5.0712,-5.0712,-5.0712,-5.0712,-5.0712,-5.0712,-5.0712,-5.0712,-5.0712,-5.0712,-5.0712,-5.0712,-5.0712,-5.0712,-5.0712,-5.0712,-5.0712,-5.0712,-5.0481,-4.9606,-4.874,-4.7875,-4.7058,-4.622,-4.5594,-4.5594,-4.5594,-4.5594,-4.5594,-4.5594,-4.5594,-4.5594,-4.5594,-4.5594,-4.5594,-4.5594,-4.5594,-4.5594,-4.5594,-4.5594,-4.5594,-4.5594,-4.5594,-4.5594,-4.5594,-4.5594,-4.5594,-4.5594,-4.5594,-4.5594,-4.5594,-4.5594,-4.5594,-4.5594,-4.5594,-4.5594,-4.5594,-4.5594,-4.8644,-4.976,-5.0625,-4.926,-5.1068,-5.3145,-5.2933,-5.3472,-5.4066,-5.4279,-5.3893,-5.3461,-5.3167,-5.3259,-5.3663,-5.444,-5.4556,-5.4614,0.0,0.0,0.0,0.0,0.0,0.0,0.0,0.0,0.0,0.0,0.0,0.0,0.0,0.0,0.0,0.0,0.0,-4.8697,-4.8697,-4.8769,-4.8804,-4.884,-4.8874,-4.8909,-4.8909,-4.8909,-4.8909,-4.8909,-4.9027,-4.927,-4.9554,-4.9844,-5.0123,-5.041,-5.0614,-5.0712,-5.0712,-5.0712,-5.0712,-5.0712,-5.0712,-5.0712,-5.0712,-5.0712,-5.0712,-5.0712,-5.0712,-5.0712,-5.0712,-5.0712,-5.0712,-5.0712,-5.0712,-5.0712,-5.0481,-4.9606,-4.874,-4.7875,-4.7058,-4.622,-4.5594,-4.5594,-4.5594,-4.5594,-4.5594,-4.5594,-4.5594,-4.5594,-4.5594,-4.5594,-4.5594,-4.5594,-4.5594,-4.5594,-4.5594,-4.5594,-4.5594,-4.5594,-4.5594,-4.5594,-4.5594,-4.5594,-4.5594,-4.5594,-4.5594,-4.5594,-4.5594,-4.5594,-4.5594,-4.5594,-4.5594,-4.5594,-4.5594,-4.5594,-4.8259,-4.9567,-5.0837,-4.9683,-5.1106,-5.2712,-5.2385,-5.3241,-5.4241,-5.4761,-5.4498,-5.4146,-5.4128,-5.3902,-5.3884,0.0,-5.4364,0.0,0.0,0.0,0.0,0.0,0.0,0.0,0.0,0.0,0.0,0.0,0.0,0.0,0.0,0.0,0.0,0.0,0.0,0.0,-4.8569,-4.8678,-4.8769,-4.8787,-4.8856,-4.8909,-4.8909,-4.8909,-4.8909,-4.8909,-4.8909,-4.9094,-4.9411,-4.9679,-5.0025,-5.0369,-5.0614,-5.0712,-5.0712,-5.0712,-5.0712,-5.0712,-5.0712,-5.0712,-5.0712,-5.0712,-5.0712,-5.0712,-5.0712,-5.0712,-5.0712,-5.0712,-5.0712,-5.0712,-5.0712,-5.0712,-5.0423,-4.926,-4.8529,-4.7798,-4.6721,-4.6009,-4.5594,-4.5594,-4.5594,-4.5594,-4.5594,-4.5594,-4.5594,-4.5594,-4.5594,-4.5594,-4.5594,-4.5594,-4.5594,-4.5594,-4.5594,-4.5594,-4.5594,-4.5594,-4.5594,-4.5594,-4.5594,-4.5594,-4.5594,-4.5594,-4.5594,-4.5594,-4.5594,-4.5594,-4.5594,-4.5594,-4.5594,-4.5594,-4.5594,-4.5594,-4.8105,-4.8759,-4.9413,-4.9413,-5.0683,-5.2135,-5.301,-5.3222,-5.3683,-5.5357,-5.5068,-5.4677,-5.5218,-5.4613,0.0,-5.4699,0.0,0.0,0.0,0.0,0.0,0.0,0.0,0.0,0.0,0.0,0.0,0.0,0.0,0.0,0.0,0.0,0.0,0.0,0.0,0.0,-4.8513,-4.8587,-4.866,-4.8787,-4.8856,-4.8909,-4.8909,-4.8909,-4.8909,-4.8909,-4.8909,-4.9094,-4.943,-4.9679,-5.0155,-5.0683,-5.0712,-5.0712,-5.0702,-5.0712,-5.0712,-5.0712,-5.0712,-5.0712,-5.0712,-5.0712,-5.0712,-5.0712,-5.0712,-5.0712,-5.0712,-5.0712,-5.0712,-5.0712,-5.0712,-5.0712,-5.0269,-4.8509,-4.8105,-4.7644,-4.596,-4.5594,-4.5594,-4.5594,-4.5594,-4.5594,-4.5594,-4.5594,-4.5594,-4.5594,-4.5594,-4.5594,-4.5594,-4.5594,-4.5594,-4.5594,-4.5594,-4.5594,-4.5594,-4.5594,-4.5594,-4.5594,-4.5594,-4.5594,-4.5594,-4.5594,-4.5594,-4.5594,-4.5594,-4.5594,-4.5594,-4.5594,-4.5594,-4.5594,-4.5594,-4.5594,-4.9183,-5.0067,-5.1154,-5.1154,-5.1981,-5.3049,-5.3914,-5.4107,-5.4414,-5.5472,-5.5511,-5.5393,-5.5558,-5.5374,0.0,0.0,0.0,0.0,0.0,0.0,0.0,0.0,0.0,0.0,0.0,0.0,0.0,0.0,0.0,0.0,0.0,0.0,0.0,0.0,0.0,0.0,-4.8363,-4.8457,-4.855,-4.8587,-4.866,-4.8767,-4.8909,-4.8909,-4.8909,-4.8909,-4.8909,-4.896,-4.9094,-4.9594,-4.991,-5.0106,-5.0534,-5.0554,-5.0369,-5.0614,-5.0712,-5.0712,-5.0712,-5.0712,-5.0712,-5.0712,-5.0712,-5.0712,-5.0712,-5.0712,-5.0712,-5.0712,-5.0712,-5.0712,-5.0712,-5.0712,-5.0269,-4.8509,-4.8105,-4.7644,-4.596,-4.5594,-4.5594,-4.5594,-4.5594,-4.5594,-4.5594,-4.5594,-4.5594,-4.5594,-4.5594,-4.5594,-4.5594,-4.5594,-4.5594,-4.5594,-4.5594,-4.5594,-4.5594,-4.5594,-4.5594,-4.5594,-4.5594,-4.5594,-4.5594,-4.5594,-4.5594,-4.5594,-4.5594,-4.5594,-4.5594,-4.5594,-4.5594,-4.5594,-4.5594,-4.5594,-4.9452,-5.0394,-5.1587,-5.225,-5.2818,-5.351,-5.4703,-5.4972,-5.5011,-5.5184,-5.4953,-5.4703,-5.4703,-5.4414,0.0,0.0,0.0,0.0,0.0,0.0,0.0,0.0,0.0,0.0,0.0,0.0,0.0,0.0,0.0,0.0,0.0,0.0,0.0,0.0,0.0,0.0,-4.8306,-4.8438,-4.8513,-4.8513,-4.8569,-4.8696,-4.8856,-4.8856,-4.8874,-4.8909,-4.8909,-4.8995,-4.9127,-4.948,-4.9693,-4.9857,-5.0313,-5.0369,-5.023,-5.0594,-5.0712,-5.0712,-5.0712,-5.0712,-5.0712,-5.0712,-5.0712,-5.0712,-5.0712,-5.0712,-5.0712,-5.0712,-5.0712,-5.0712,-5.0712,-5.0712,-5.0346,-4.8952,-4.8625,-4.824,-4.6894,-4.6586,-4.649,-4.6182,-4.6124,-4.6009,-4.5671,-4.5594,-4.5594,-4.5594,-4.5594,-4.5594,-4.5594,-4.5594,-4.5594,-4.5594,-4.5594,-4.5594,-4.5594,-4.5594,-4.5594,-4.5594,-4.5594,-4.5594,-4.5594,-4.5594,-4.5594,-4.5594,-4.5594,-4.5594,-4.5594,-4.5594,-4.5594,-4.5594,-4.5594,-4.5421,-4.9086,-5.0029,-5.1183,-5.2799,-5.3318,-5.3818,-5.5261,-5.5588,-5.5376,-5.4645,-5.3818,-5.3203,-5.3203,-5.2538,0.0,0.0,0.0,0.0,0.0,0.0,0.0,0.0,0.0,0.0,0.0,0.0,0.0,0.0,0.0,0.0,0.0,0.0,0.0,0.0,0.0,0.0,-4.8306,-4.8419,-4.8476,0.0,-4.8532,-4.8642,-4.8769,-4.8787,-4.884,-4.8909,-4.8909,-4.9077,-4.9368,-4.9399,-4.9529,-4.9744,-5.0062,-5.0171,-5.0195,-5.0544,-5.0673,-5.0712,-5.0712,-5.0712,-5.0712,-5.0712,-5.0712,-5.0712,-5.0712,-5.0712,-5.0712,-5.0712,-5.0712,-5.0712,-5.0712,-5.0712,-5.05,-4.9702,-4.9452,-4.9144,-4.8202,-4.799,-4.7759,-4.6951,-4.6778,-4.6528,-4.5748,-4.5594,-4.5594,-4.5594,-4.5594,-4.5594,-4.5594,-4.5594,-4.5594,-4.5594,-4.5594,-4.5594,-4.5594,-4.5594,-4.5594,-4.5594,-4.5594,-4.5594,-4.5594,-4.5594,-4.5594,-4.5594,-4.5594,-4.5594,-4.5594,-4.5594,-4.5594,-4.5594,-4.5594,-4.519,-4.8509,-4.999,-5.1895,-5.2953,-5.4184,-5.5088,-5.4818,-5.4761,-5.4703,-5.453,-5.3818,-5.3203,-5.3203,-5.3049,0.0,0.0,0.0,0.0,0.0,0.0,0.0,0.0,0.0,0.0,0.0,0.0,0.0,0.0,0.0,0.0,0.0,0.0,0.0,0.0,0.0,-4.8306,-4.8306,-4.8325,-4.8325,0.0,-4.8363,-4.8438,-4.8587,-4.8715,-4.884,-4.8909,-4.8909,-4.8925,-4.9027,-4.9305,-4.927,-4.9139,-4.9674,-4.9897,-4.9917,-5.0195,-5.0464,-5.0712,-5.0712,-5.0712,-5.0712,-5.0712,-5.0712,-5.0712,-5.0712,-5.0712,-5.0712,-5.0712,-5.0712,-5.0712,-5.0712,-5.0712,-5.0654,-5.0462,-4.9894,-4.899,-4.749,-4.7154,-4.6894,-4.6047,-4.5874,-4.5825,-4.5633,-4.5594,-4.5594,-4.5594,-4.5594,-4.5594,-4.5594,-4.5594,-4.5594,-4.5594,-4.5594,-4.5594,-4.5594,-4.5594,-4.5594,-4.5594,-4.5594,-4.5594,-4.5594,-4.5594,-4.5594,-4.5594,-4.5594,-4.5594,-4.5594,-4.5594,-4.5594,-4.5594,-4.5594,-4.5498,-4.8625,-4.9683,-5.1106,-5.2779,-5.4164,-5.5011,-5.4607,-5.3857,-5.326,-5.326,-5.2895,-5.2472,-5.2068,0.0,0.0,0.0,0.0,0.0,0.0,0.0,0.0,0.0,0.0,0.0,0.0,0.0,0.0,0.0,0.0,0.0,0.0,0.0,0.0,0.0,-4.8306,-4.8306,-4.8306,-4.8306,-4.8306,-4.8306,-4.8306,-4.8401,-4.855,-4.8733,-4.884,-4.8909,-4.8909,-4.8909,-4.8907,-4.9094,-4.9061,-4.8942,-4.942,-4.9698,-4.9825,-5.0111,-5.0421,-5.0712,-5.0712,-5.0712,-5.0712,-5.0712,-5.0712,-5.0712,-5.0712,-5.0712,-5.0712,-5.0712,-5.0712,-5.0712,-5.0712,-5.0712,-5.0712,-5.0712,-5.0346,-4.9779,-4.8913,-4.8394,-4.7836,-4.6971,-4.649,-4.6086,-4.5671,-4.5594,-4.5594,-4.5594,-4.5594,-4.5594,-4.5594,-4.5495,-4.5467,-4.5586,-4.5485,-4.5448,-4.5586,-4.5594,-4.5594,-4.5594,-4.5594,-4.5594,-4.5594,-4.5594,-4.5594,-4.5594,-4.5594,-4.5594,-4.5594,-4.5594,-4.5594,-4.5594,-4.5594,-4.5383,-4.8586,-4.9279,-5.0202,-5.2606,-5.3741,-5.4241,-5.4087,-5.2953,-5.1865,-5.1712,-5.1692,-5.1491,0.0,0.0,0.0,0.0,0.0,0.0,0.0,0.0,0.0,0.0,0.0,0.0,0.0,0.0,0.0,0.0,0.0,0.0,0.0,0.0,-4.8306,-4.8306,-4.8306,-4.8306,-4.8306,-4.8306,-4.8306,-4.8306,-4.8306,-4.842,-4.8605,-4.8715,-4.8804,-4.8909,-4.8909,-4.8909,-4.8909,-4.8909,-4.8909,-4.8926,-4.9209,-4.9484,-4.9762,-5.0019,-5.0336,-5.0614,-5.0614,-5.0653,-5.0683,-5.0624,-5.0663,-5.0712,-5.0712,-5.0712,-5.0712,-5.0712,-5.0712,-5.0712,-5.0712,-5.0712,-5.0712,-5.0712,-5.0712,-5.0654,-5.0519,-4.9779,-4.8913,-4.8067,-4.724,-4.6451,-4.5729,-4.5594,-4.5594,-4.5594,-4.5568,-4.5522,-4.5522,-4.5302,-4.5211,-4.5438,-4.5312,-4.5292,-4.5513,-4.5577,-4.5594,-4.5594,-4.5594,-4.5594,-4.5594,-4.5594,-4.5594,-4.5594,-4.5594,-4.5594,-4.5594,-4.5594,-4.5594,-4.5594,-4.5594,-4.521,-4.7173,-4.8856,-5.0952,-5.276,-5.3299,-5.3183,-5.2423,-5.2077,-5.1692,0.0,-5.0856,0.0,0.0,0.0,0.0,0.0,0.0,0.0,0.0,0.0,0.0,0.0,0.0,0.0,0.0,0.0,0.0,0.0,0.0,0.0,0.0,-4.8306,-4.8306,-4.8306,-4.8306,-4.8306,-4.8306,-4.8306,-4.8306,-4.8306,-4.8306,-4.842,-4.8605,-4.8605,-4.8732,-4.8909,-4.8909,-4.8909,-4.8909,-4.8909,-4.8909,-4.889,-4.8942,-4.9176,-4.9503,-4.9749,-5.0038,-5.0272,-5.0272,-5.0472,-5.0663,-5.0358,-5.0453,-5.0712,-5.0712,-5.0712,-5.0712,-5.0712,-5.0712,-5.0712,-5.0712,-5.0712,-5.0712,-5.0712,-5.0712,-5.05,-4.974,-4.8894,-4.8029,-4.7212,-4.6355,-4.5748,-4.5614,-4.5594,-4.5594,-4.5594,-4.541,-4.5253,-4.5253,-4.5019,-4.4879,-4.4896,-4.5085,-4.5211,-4.5243,-4.5476,-4.5594,-4.5594,-4.5594,-4.5594,-4.5594,-4.5594,-4.5594,-4.5594,-4.5594,-4.5594,-4.5594,-4.5594,-4.5594,-4.5594,-4.5594,-4.5537,-4.7317,-4.9106,-5.1,-5.2183,-5.2462,-5.2365,-5.195,-5.1498,-5.1065,-5.0661,0.0,0.0,0.0,0.0,0.0,0.0,0.0,0.0,0.0,0.0,0.0,0.0,0.0,0.0,0.0,0.0,0.0,0.0,0.0,0.0,-4.8306,-4.8306,-4.8306,-4.8306,-4.8306,0.0,-4.8306,-4.8306,-4.8306,-4.8306,-4.8306,-4.8401,-4.855,-4.8587,-4.8714,-4.8909,-4.8909,-4.8909,-4.8909,-4.8909,-4.8909,-4.8909,-4.8909,-4.911,-4.9427,-4.9693,-4.9865,-5.0012,-5.0147,-5.0294,-5.041,-5.026,-5.0432,-5.0712,-5.0712,-5.0565,-5.0472,-5.0653,-5.0565,-5.0453,-5.0653,-5.0712,-5.0663,-5.0453,-5.0565,-5.0508,-4.9778,-4.8811,-4.7721,-4.6413,-4.6259,-4.6127,-4.5486,-4.539,-4.5322,-4.5161,-4.5052,-4.4985,-4.4985,-4.4739,-4.4637,-4.4776,-4.4776,-4.4812,-4.4954,-4.5085,-4.514,-4.514,-4.514,-4.514,-4.514,-4.514,-4.514,-4.514,-4.5438,-4.5594,-4.5594,-4.5594,-4.5594,-4.5594,-4.5594,-4.5594,-4.7067,-4.8586,-4.9971,-5.101,-5.1413,-5.1547,-5.1516,0.0,-5.0572,0.0,0.0,0.0,0.0,0.0,0.0,0.0,0.0,0.0,0.0,0.0,0.0,0.0,0.0,0.0,0.0,0.0,0.0,0.0,0.0,0.0,-4.8306,-4.8306,-4.8306,-4.8306,-4.8306,-4.8306,-4.8306,-4.8306,-4.8306,-4.8306,-4.8306,-4.8363,-4.8513,-4.8569,-4.8714,-4.8874,-4.8891,-4.8909,-4.8909,-4.8909,-4.8909,-4.8909,-4.8909,-4.9044,-4.9302,-4.9598,-4.9693,-4.9721,-4.9936,-5.005,-5.0099,-5.0025,-5.0202,-5.0462,-5.0462,-5.0302,-5.0147,-5.0399,-5.0291,-5.0147,-5.0399,-5.0462,-5.0399,-5.0147,-5.0291,-5.0309,-4.9721,-4.869,-4.7461,-4.5985,-4.6061,-4.6098,-4.5243,-4.5096,-4.503,-4.4825,-4.4739,-4.4701,-4.4701,-4.4452,-4.4374,-4.4591,-4.4465,-4.4479,-4.4676,-4.4751,-4.4788,-4.4788,-4.4788,-4.4788,-4.4788,-4.4788,-4.4788,-4.4788,-4.5201,-4.5429,-4.5504,-4.5504,-4.5522,-4.5594,-4.5594,-4.5594,-4.5479,-4.6394,-4.749,-4.9125,-5.0105,-5.068,-5.0661,0.0,-5.0511,0.0,0.0,0.0,0.0,0.0,0.0,0.0,0.0,0.0,0.0,0.0,0.0,0.0,0.0,0.0,0.0,0.0,0.0,0.0,0.0,0.0,-4.8306,-4.8306,-4.8306,-4.8306,-4.8306,-4.8306,-4.8306,-4.8306,-4.8306,-4.8306,-4.8306,-4.8363,-4.8513,-4.8569,-4.8697,-4.8804,-4.8874,-4.8909,-4.8909,-4.8909,-4.8909,-4.8909,-4.8909,-4.8926,-4.8978,-4.9305,-4.9411,-4.9411,-4.9427,-4.9598,-4.9776,-4.9514,-4.9627,-4.9857,-4.9857,-4.9825,-4.9811,-4.9844,-4.9825,-4.9811,-4.9844,-4.9857,-4.9844,-4.9811,-4.9825,-4.9701,-4.9151,-4.8147,-4.7075,-4.6158,-4.5393,-4.4893,-4.4831,-4.4812,-4.4831,-4.48,-4.4585,-4.4411,-4.4411,-4.4196,-4.4036,-4.4033,-4.4265,-4.4416,-4.4411,-4.465,-4.4788,-4.4788,-4.4788,-4.4788,-4.4788,-4.4788,-4.4788,-4.4788,-4.4825,-4.4973,-4.5222,-4.5222,-4.5352,-4.5594,-4.5594,-4.5594,-4.4756,-4.5331,-4.6271,-4.7434,-4.8337,-4.9076,-4.9573,-5.0076,-5.0416,0.0,0.0,0.0,0.0,0.0,0.0,0.0,0.0,0.0,0.0,0.0,0.0,0.0,0.0,0.0,0.0,0.0,0.0,0.0,0.0,0.0,-4.8306,-4.8306,-4.8306,-4.8306,-4.8306,-4.8306,-4.8306,-4.8306,-4.8306,-4.8306,-4.8306,-4.8343,-4.8382,-4.8532,-4.8605,-4.8606,-4.8821,-4.8909,-4.8909,-4.8909,-4.8909,-4.8909,-4.8909,-4.8909,-4.8925,-4.9289,-4.9255,-4.911,-4.9337,-4.9472,-4.9529,-4.9427,-4.9569,-4.9803,-4.9803,-4.9665,-4.9569,-4.9749,-4.9684,-4.9569,-4.9762,-4.9803,-4.9803,-4.9803,-4.9506,-4.9237,-4.9254,-4.867,-4.7561,-4.5603,-4.5445,-4.5395,-4.4667,-4.4546,-4.4479,-4.4322,-4.4192,-4.4151,-4.4151,-4.4064,-4.4005,-4.4005,-4.4094,-4.4121,-4.4094,-4.4166,-4.421,-4.4151,-4.4151,-4.4151,-4.4151,-4.4151,-4.4151,-4.4151,-4.4151,-4.4416,-4.4931,-4.4931,-4.4996,-4.5085,-4.5085,-4.5085,-4.3511,-4.398,-4.49,-4.6071,-4.6753,-4.7414,-4.8505,0.0,-4.9602,0.0,0.0,0.0,0.0,0.0,0.0,0.0,0.0,0.0,0.0,0.0,0.0,0.0,0.0,0.0,0.0,0.0,0.0,0.0,0.0,0.0,-4.8306,-4.8306,-4.8306,-4.8306,-4.8306,-4.8306,-4.8306,-4.8306,-4.8306,-4.8306,-4.8306,-4.8306,-4.8306,-4.8476,-4.8532,-4.8513,-4.8715,-4.882,-4.8856,-4.8891,-4.8909,-4.8909,-4.8909,-4.8909,-4.8926,-4.916,-4.9094,-4.8925,-4.916,-4.9241,-4.9241,-4.9241,-4.9362,-4.9506,-4.9506,-4.9358,-4.927,-4.9465,-4.9377,-4.927,-4.9446,-4.9506,-4.9506,-4.9506,-4.9204,-4.881,-4.8501,-4.8153,-4.7391,-4.5706,-4.538,-4.5138,-4.4401,-4.4279,-4.4206,-4.4036,-4.4005,-4.4005,-4.4005,-4.4005,-4.3989,-4.3958,-4.3958,-4.3945,-4.3883,-4.3867,-4.3851,-4.3804,-4.3804,-4.3804,-4.3804,-4.3804,-4.3804,-4.3804,-4.3804,-4.402,-4.4471,-4.4546,-4.4486,-4.4303,-4.4347,-4.4227,0.0,0.0,0.0,-4.4969,0.0,0.0,-4.7418,0.0,0.0,0.0,0.0,0.0,0.0,0.0,0.0,0.0,0.0,0.0,0.0,0.0,0.0,0.0,0.0,0.0,0.0,0.0,0.0,0.0,0.0,-4.8306,-4.8306,-4.8306,-4.8306,-4.8306,-4.8306,-4.8306,-4.8306,-4.8306,-4.8306,-4.8306,-4.8306,-4.8306,-4.8306,-4.8438,-4.8513,-4.8513,-4.8569,-4.866,-4.8787,-4.8856,-4.8909,-4.8909,-4.8909,-4.8909,-4.8909,-4.8909,-4.8909,-4.8909,-4.8909,-4.8909,-4.8909,-4.8909,-4.8909,-4.8909,-4.8909,-4.8909,-4.8909,-4.8909,-4.8909,-4.8909,-4.8909,-4.8909,-4.8909,-4.8909,-4.8909,-4.8481,-4.6884,-4.6513,-4.6494,-4.6438,-4.5119,-4.4005,-4.4005,-4.4005,-4.4005,-4.4005,-4.4005,-4.4005,-4.4005,-4.4005,-4.3974,-4.3897,-4.3915,-4.3867,-4.3804,-4.3788,-4.3788,-4.3788,-4.3788,-4.3788,-4.3788,-4.3788,-4.3788,-4.3788,-4.3788,-4.3788,-4.3788,-4.4064,-4.3887,-4.3316,-4.3454,-4.3087,-4.117,0.0,0.0,0.0,0.0,0.0,0.0,0.0,0.0,0.0,0.0,0.0,0.0,0.0,0.0,0.0,0.0,0.0,0.0,0.0,0.0,0.0,0.0,0.0,0.0,0.0,0.0,0.0,-4.8306,-4.8306,-4.8306,-4.8306,-4.8306,-4.8306,-4.8306,-4.8306,-4.8306,-4.8306,-4.8306,-4.8306,-4.8306,-4.8306,-4.8306,-4.8438,-4.8438,-4.8344,-4.8532,-4.8587,-4.8606,-4.8769,-4.8875,-4.8909,-4.8909,-4.8909,-4.8909,-4.8909,-4.8874,-4.884,-4.884,-4.884,-4.884,-4.884,-4.8856,-4.8891,-4.8839,-4.8856,-4.8891,-4.8839,-4.8856,-4.8909,-4.8909,-4.8909,-4.8909,-4.8909,-4.8909,-4.863,-4.759,-4.6903,-4.6141,-4.4934,-4.4321,-4.4005,-4.4005,-4.4005,-4.4005,-4.4005,-4.4005,-4.4005,-4.4005,-4.3961,-4.3913,-4.3897,-4.3851,-4.3786,-4.3667,-4.3651,-4.3634,-4.3583,-4.3583,-4.3583,-4.3583,-4.3583,-4.3583,-4.3583,-4.3583,-4.3583,-4.3583,-4.38,-4.3831,-4.3664,-4.3698,-4.3301,-4.1189,-4.1265,-4.1734,-4.158,0.0,0.0,0.0,-4.4152,0.0,0.0,0.0,0.0,0.0,0.0,0.0,0.0,0.0,0.0,0.0,0.0,0.0,0.0,0.0,0.0,0.0,0.0,0.0,0.0,-4.8306,-4.8306,-4.8306,-4.7994,-4.7791,-4.7791,-4.7791,-4.7791,-4.7791,-4.8141,-4.8306,-4.8306,-4.8306,-4.8306,-4.8306,-4.8382,-4.8198,-4.781,-4.7905,-4.7795,-4.75,-4.7627,-4.8104,-4.8785,-4.8839,-4.8856,-4.8856,-4.8891,-4.8856,-4.8787,-4.8787,-4.875,-4.8715,-4.8715,-4.8786,-4.8839,-4.875,-4.8786,-4.8839,-4.875,-4.8786,-4.8839,-4.8785,-4.8562,-4.8338,-4.8285,-4.8008,-4.7562,-4.678,-4.6259,-4.5628,-4.4729,-4.4246,-4.4005,-4.4005,-4.4005,-4.4005,-4.4005,-4.3974,-4.3961,-4.3961,-4.3897,-4.3835,-4.3783,-4.3734,-4.3667,-4.3565,-4.3548,-4.3531,-4.3496,-4.3515,-4.3515,-4.3515,-4.3515,-4.3515,-4.3515,-4.3515,-4.3515,-4.3515,-4.3618,-4.352,-4.3221,-4.3221,-4.2977,-4.1686,-4.1189,-4.0855,-4.1495,0.0,0.0,-4.3261,-4.3252,-4.3195,0.0,0.0,0.0,0.0,0.0,0.0,0.0,0.0,0.0,0.0,0.0,0.0,0.0,0.0,0.0,0.0,0.0,-4.8306,-4.8306,-4.8306,-4.8306,-4.8306,-4.7535,-4.7094,-4.7094,-4.7094,-4.7094,-4.7094,-4.7901,-4.8306,-4.8306,-4.8306,-4.8251,-4.8177,-4.8177,-4.7718,-4.6966,-4.6966,-4.6618,-4.6083,-4.6083,-4.6965,-4.8347,-4.8473,-4.8564,-4.8675,-4.8744,-4.8765,-4.8787,-4.8787,-4.8697,-4.8605,-4.8605,-4.866,-4.875,-4.8624,-4.8678,-4.875,-4.8623,-4.8697,-4.8732,-4.8531,-4.8012,-4.7529,-4.7312,-4.6722,-4.6,-4.5253,-4.5084,-4.5101,-4.5127,-4.4509,-4.3989,-4.3974,-4.3974,-4.3974,-4.3974,-4.3929,-4.3899,-4.3899,-4.3818,-4.3736,-4.3599,-4.3582,-4.3565,-4.3515,-4.3515,-4.3515,-4.3515,-4.3515,-4.3515,-4.3515,-4.3515,-4.3515,-4.3515,-4.3515,-4.3515,-4.3515,-4.3515,-4.3164,-4.2533,-4.2531,-4.2509,-4.2908,-4.2908,-4.3166,0.0,0.0,0.0,-4.2183,-4.2412,-4.2698,0.0,0.0,0.0,0.0,0.0,0.0,0.0,0.0,0.0,0.0,0.0,0.0,0.0,0.0,0.0,0.0,0.0,-4.8306,-4.8306,-4.8306,-4.8306,-4.8306,-4.7535,-4.7094,-4.7094,-4.7094,-4.7094,-4.7094,-4.7901,-4.8306,-4.8306,-4.8306,-4.7957,-4.7333,-4.7333,-4.6892,-4.614,-4.614,-4.6067,-4.5938,-4.5938,-4.623,-4.6684,-4.6752,-4.7212,-4.7841,-4.7909,-4.8229,-4.8642,-4.8642,-4.8587,-4.8513,-4.8513,-4.8569,-4.8624,-4.8532,-4.8569,-4.8623,-4.8605,-4.8605,-4.8476,-4.7811,-4.7534,-4.7274,-4.6574,-4.6316,-4.5965,-4.5188,-4.5003,-4.4835,-4.4204,-4.3994,-4.3897,-4.3851,-4.3835,-4.3835,-4.3835,-4.3837,-4.382,-4.382,-4.3701,-4.3634,-4.3599,-4.3548,-4.3496,-4.3515,-4.3515,-4.3515,-4.3515,-4.3515,-4.3515,-4.3515,-4.3515,-4.3515,-4.3515,-4.3515,-4.3515,-4.3515,-4.3515,-4.3423,-4.3293,-4.3293,-4.2944,0.0,0.0,0.0,-4.3221,0.0,0.0,0.0,0.0,0.0,0.0,0.0,0.0,0.0,0.0,0.0,0.0,0.0,0.0,0.0,0.0,0.0,0.0,0.0,0.0,0.0,0.0,-4.8306,-4.8306,-4.8306,-4.8306,-4.8306,-4.7535,-4.7094,-4.7094,-4.7094,-4.7094,-4.7094,-4.7901,-4.8306,-4.8306,-4.8306,-4.7865,-4.7094,-4.7094,-4.6434,-4.5296,-4.5296,-4.5076,-4.469,-4.469,-4.4761,-4.494,-4.5856,-4.6463,-4.6906,-4.7381,-4.7717,-4.8015,-4.8403,-4.8476,-4.8401,-4.8401,-4.8457,-4.8532,-4.842,-4.842,-4.8439,-4.8439,-4.8495,-4.844,-4.7979,-4.7297,-4.6633,-4.6156,-4.5438,-4.4756,-4.4385,-4.4292,-4.4182,-4.3776,-4.3734,-4.3751,-4.3804,-4.3804,-4.3804,-4.3804,-4.3736,-4.3703,-4.3703,-4.3617,-4.3548,-4.3548,-4.3513,-4.3515,-4.3515,-4.3515,-4.3515,-4.3515,-4.3515,-4.3515,-4.3515,-4.3515,-4.3515,-4.3515,-4.3515,-4.3515,-4.3515,-4.3515,-4.3515,-4.3515,-4.3515,-4.3277,0.0,0.0,0.0,0.0,0.0,-4.3028,0.0,0.0,0.0,0.0,0.0,0.0,0.0,0.0,0.0,0.0,0.0,0.0,0.0,0.0,0.0,0.0,0.0,0.0,0.0,0.0,-4.7755,-4.8049,-4.7939,-4.7976,-4.8288,-4.7388,-4.6929,-4.7094,-4.6947,-4.6929,-4.7094,-4.7901,-4.8233,-4.8086,-4.8086,-4.7571,-4.6636,-4.6636,-4.5828,-4.447,-4.447,-4.4103,-4.3515,-4.3515,-4.3515,-4.3643,-4.5053,-4.5714,-4.5953,-4.6668,-4.6982,-4.7169,-4.7813,-4.7941,-4.7847,-4.7847,-4.8032,-4.8199,-4.8105,-4.8196,-4.8306,-4.8306,-4.8271,-4.818,-4.7921,-4.6838,-4.5771,-4.5498,-4.4451,-4.3496,-4.3565,-4.3582,-4.3582,-4.3582,-4.3582,-4.3617,-4.3719,-4.3736,-4.3736,-4.3736,-4.3651,-4.3582,-4.3582,-4.3531,-4.3515,-4.3515,-4.3515,-4.3515,-4.3515,-4.3515,-4.3515,-4.3515,-4.3515,-4.3515,-4.3515,-4.3515,-4.3515,-4.3515,-4.3515,-4.3515,-4.3515,-4.3515,-4.3515,-4.3515,-4.3515,-4.3515,0.0,0.0,0.0,0.0,-4.6021,0.0,0.0,0.0,0.0,0.0,0.0,0.0,0.0,0.0,0.0,0.0,0.0,0.0,0.0,0.0,0.0,0.0,0.0,0.0,0.0,0.0,0.0,-4.7131,-4.6581,-4.6801,-4.8233,-4.6856,-4.6361,-4.7076,-4.6416,-4.6379,-4.7094,-4.7901,-4.7938,-4.7241,-4.7241,-4.6434,-4.4966,-4.4966,-4.4488,-4.3626,-4.3626,-4.3571,-4.3515,-4.3515,-4.3515,-4.3533,-4.3767,-4.4353,-4.5069,-4.521,-4.5691,-4.6248,-4.634,-4.6286,-4.6177,-4.6177,-4.6673,-4.726,-4.7241,-4.7718,-4.8306,-4.8306,-4.781,-4.7095,-4.6361,-4.5516,-4.469,-4.3938,-4.3643,-4.3496,-4.3515,-4.3515,-4.3515,-4.3515,-4.3515,-4.3515,-4.3532,-4.3532,-4.3532,-4.3532,-4.3532,-4.3515,-4.3515,-4.3496,-4.3515,-4.3515,-4.3515,-4.3515,-4.3515,-4.3515,-4.3515,-4.3515,-4.3515,-4.3515,-4.3515,-4.3515,-4.3515,-4.3515,-4.3515,-4.3515,-4.3515,-4.3515,-4.3515,-4.3515,-4.3515,-4.3515,0.0,0.0,0.0,0.0,0.0,0.0,-4.4931,0.0,-4.3402,0.0,0.0,0.0,0.0,0.0,0.0,0.0,0.0,0.0,0.0,0.0,0.0,0.0,0.0,0.0,0.0,0.0,0.0,0.0,0.0,-4.592,-4.7516,-4.6947,-4.6966,-4.7755,-4.748,-4.7462,-4.7791,-4.8141,-4.7901,-4.7094,-4.7094,-4.625,-4.4691,-4.4691,-4.4268,-4.3515,-4.3515,-4.3515,-4.3515,-4.3515,-4.3515,-4.3496,-4.3513,-4.3787,-4.4154,-4.4649,-4.5017,-4.535,-4.5809,-4.5956,-4.5902,-4.5902,-4.614,-4.6416,-4.6416,-4.6636,-4.6911,-4.6911,-4.6673,-4.6342,-4.5993,-4.5296,-4.4617,-4.4287,-4.3828,-4.3515,-4.3515,-4.3515,-4.3515,-4.3515,-4.3515,-4.3515,-4.3515,-4.3515,-4.3515,-4.3515,-4.3515,-4.3515,-4.3515,-4.3515,-4.3515,-4.3515,-4.3515,-4.3515,-4.3515,-4.3515,-4.3515,-4.3515,-4.3515,-4.3515,-4.3515,-4.3515,-4.3515,-4.3515,-4.3515,-4.3515,-4.3515,-4.3515,-4.3515,-4.3515,-4.3515,-4.3515,-4.727,0.0,0.0,0.0,0.0,0.0,0.0,0.0,0.0,0.0,0.0,0.0,0.0,0.0,0.0,0.0,0.0,0.0,0.0,0.0,0.0,0.0,0.0,0.0,0.0,0.0,0.0,0.0,0.0,0.0,-4.6984,-4.6892,-4.7241,-4.8269,-4.8104,-4.8067,-4.8306,-4.8067,-4.7571,-4.6764,-4.6544,-4.57,-4.4378,-4.4378,-4.4048,-4.3515,-4.3515,-4.3515,-4.3515,-4.3515,-4.3515,-4.3515,-4.3515,-4.3515,-4.357,-4.4158,-4.4378,-4.4452,-4.5039,-4.5241,-4.5241,-4.5241,-4.5388,-4.5571,-4.5571,-4.5736,-4.5902,-4.5902,-4.5736,-4.5571,-4.5571,-4.4966,-4.4378,-4.4378,-4.392,-4.3515,-4.3515,-4.3515,-4.3515,-4.3515,-4.3515,-4.3515,-4.3515,-4.3515,-4.3515,-4.3515,-4.3515,-4.3515,-4.3515,-4.3515,-4.3515,-4.3515,-4.3515,-4.3515,-4.3515,-4.3515,-4.3515,-4.3515,-4.3515,-4.3515,-4.3515,-4.3515,-4.3515,-4.3515,-4.3515,-4.3515,-4.3515,-4.3515,-4.3515,-4.3515,-4.3515,-4.3515,0.0,0.0,0.0,-4.6396,0.0,0.0,0.0,0.0,-4.4327,0.0,0.0,0.0,0.0,0.0,-4.2242,-4.1234,0.0,0.0,0.0,0.0,0.0,0.0,0.0,0.0,0.0,0.0,0.0,0.0,0.0,0.0,-4.6929,-4.6361,-4.6654,-4.8251,-4.7535,-4.7498,-4.8306,-4.7516,-4.6727,-4.592,-4.5149,-4.4342,-4.3551,-4.3551,-4.3533,-4.3515,-4.3515,-4.3515,-4.3515,-4.3515,-4.3515,-4.3515,-4.3515,-4.3515,-4.3515,-4.3533,-4.3551,-4.3551,-4.357,-4.3588,-4.3588,-4.3588,-4.4103,-4.4745,-4.4745,-4.5278,-4.5902,-4.5902,-4.5351,-4.4745,-4.4745,-4.414,-4.3551,-4.3551,-4.3533,-4.3515,-4.3515,-4.3515,-4.3515,-4.3515,-4.3515,-4.3515,-4.3515,-4.3515,-4.3515,-4.3515,-4.3515,-4.3515,-4.3515,-4.3515,-4.3515,-4.3515,-4.3515,-4.3515,-4.3515,-4.3515,-4.3515,-4.3515,-4.3515,-4.3515,-4.3515,-4.3515,-4.3515,-4.3515,-4.3515,-4.3515,-4.3515,-4.3515,-4.3515,-4.3515,-4.3515,-4.3515,0.0,0.0,-4.8182,-4.6985,0.0,0.0,0.0,0.0,0.0,0.0,0.0,0.0,0.0,0.0,-4.2353,-4.127,-4.0414,0.0,0.0,0.0,0.0,0.0,0.0,0.0,0.0,0.0,0.0,0.0,0.0,0.0,0.0,-4.5773,-4.6397,-4.7461,-4.7755,-4.8012,-4.8306,-4.7498,-4.6691,-4.5883,-4.5094,-4.4287,-4.3515,-4.3515,-4.3515,-4.3515,-4.3515,-4.3515,-4.3515,-4.3515,-4.3515,-4.3515,-4.3515,-4.3515,-4.3515,-4.3515,-4.3515,-4.3515,-4.3515,-4.3515,-4.3515,-4.3515,-4.3681,-4.3901,-4.3901,-4.4085,-4.4322,-4.4322,-4.4121,-4.3901,-4.3901,-4.3699,-4.3515,-4.3515,-4.3515,-4.3515,-4.3515,-4.3515,-4.3515,-4.3515,-4.3515,-4.3515,-4.3515,-4.3515,-4.3515,-4.3515,-4.3515,-4.3515,-4.3515,-4.3515,-4.3515,-4.3515,-4.3515,-4.3515,-4.3515,-4.3515,-4.3515,-4.3515,-4.3515,-4.3515,-4.3515,-4.3515,-4.3515,-4.3515,-4.3515,-4.3515,-4.3515,-4.3515,-4.3515,-4.3515,-4.3515,-4.3515,-4.8306,-4.8306,0.0,0.0,-4.6287,0.0,-4.4158,0.0,0.0,0.0,0.0,0.0,0.0,0.0,-4.1899,-4.1217,-4.0414,-3.9625,0.0,0.0,0.0,0.0,0.0,0.0,0.0,0.0,-4.0139,-4.1754,0.0,0.0,0.0,0.0,-4.6269,-4.7076,-4.7865,-4.8306,-4.8306,-4.7204,-4.6416,-4.5883,-4.48,-4.3993,-4.3515,-4.3515,-4.3515,-4.3515,-4.3515,-4.3515,-4.3515,-4.3515,-4.3515,-4.3515,-4.3515,-4.3515,-4.3515,-4.3515,-4.3515,-4.3515,-4.3515,-4.3515,-4.3515,-4.3515,-4.3515,-4.3515,-4.3515,-4.3515,-4.3515,-4.3515,-4.3515,-4.3515,-4.3515,-4.3515,-4.3515,-4.3515,-4.3515,-4.3515,-4.3515,-4.3515,-4.3515,-4.3515,-4.3515,-4.3515,-4.3515,-4.3515,-4.3515,-4.3515,-4.3515,-4.3515,-4.3515,-4.3515,-4.3515,-4.3515,-4.3515,-4.3515,-4.3515,-4.3515,-4.3515,-4.3515,-4.3515,-4.3515,-4.3515,-4.3515,-4.3515,-4.3515,-4.3515,-4.3515,-4.3515,-4.3515,-4.3515,-4.3515,-4.3515,-4.3349]},{"header":{"parameterUnit":"m.s-1","parameterCategory":1,"la1":30.6,"la2":29.2853,"lo1":-89.7004,"lo2":-87.6739,"dy":0.0162,"dx":0.0183,"nx":112,"ny":82,"refTime":"2025-05-24T06:00:00:Z","depth":0,"parameterNumber":3,"parameterNumberName":"V-component_of_WINDS"},"data":[0.0,0.0,0.0,0.0,0.0,0.0,0.0,0.0,0.0,0.0,0.0,0.0,0.0,0.0,0.0,0.0,0.0,0.0,0.0,0.0,0.0,0.0,0.0,0.0,0.0,0.0,0.0,0.0,0.0,0.0,0.0,0.0,0.0,0.0,0.0,0.0,0.0,0.0,0.0,0.0,0.0,0.0,0.0,0.0,0.0,0.0,0.0,0.0,0.0,0.0,0.0,0.0,0.0,0.0,0.0,0.0,0.0,0.0,0.0,0.0,0.0,0.0,0.0,0.0,0.0,0.0,0.0,0.0,0.0,0.0,0.0,0.0,0.0,0.0,0.0,0.0,0.0,0.0,0.0,0.0,0.0,0.0,0.0,0.0,0.0,0.0,0.0,0.0,0.0,0.0,-0.1275,-0.3657,-0.5988,-0.7649,-0.835,-0.8272,-0.8136,-0.8073,0.0,0.0,0.0,0.0,0.0,0.0,0.0,0.0,0.0,0.0,0.0,0.0,0.0,0.0,0.0,0.0,0.0,0.0,0.0,0.0,0.0,0.0,0.0,0.0,0.0,0.0,0.0,0.0,0.0,0.0,0.0,0.0,0.0,0.0,0.0,0.0,0.0,0.0,0.0,0.0,0.0,0.0,0.0,0.0,0.0,0.0,0.0,0.0,0.0,0.0,0.0,0.0,0.0,0.0,0.0,0.0,0.0,0.0,0.0,0.0,0.0,0.0,0.0,0.0,0.0,0.0,0.0,0.0,0.0,0.0,0.0,0.0,0.0,0.0,0.0,0.0,0.0,0.0,0.0,0.0,0.0,0.0,0.0,0.0,0.0,0.0,0.0,0.0,0.0,0.0,0.0,0.0,0.0,0.0,0.0,0.0,0.0,0.0,0.0,0.0,0.0,0.0,0.0,0.0,-0.1023,-0.3652,-0.5147,-0.6629,-0.8291,-0.8272,-0.8235,-0.8275,0.0,0.0,0.0,0.0,0.0,0.0,0.0,0.0,0.0,0.0,0.0,0.0,0.0,0.0,0.0,0.0,0.0,0.0,0.0,0.0,0.0,0.0,0.0,0.0,0.0,0.0,0.0,0.0,0.0,0.0,0.0,0.0,0.0,0.0,0.0,0.0,0.0,0.0,0.0,0.0,0.0,0.0,0.0,0.0,0.0,0.0,0.0,0.0,0.0,0.0,0.0,0.0,0.0,0.0,0.0,0.0,0.0,0.0,0.0,0.0,0.0,0.0,0.0,0.0,0.0,0.0,0.0,0.0,0.0,0.0,0.0,0.0,0.0,0.0,0.0,0.0,0.0,0.0,0.0,0.0,0.0,0.0,0.0,0.0,0.0,0.0,0.0,0.0,0.0,0.0,0.0,0.0,0.0,0.0,0.0,0.0,0.0,0.0,0.0,0.0,0.0,0.0,0.0,-0.1212,-0.2541,-0.373,-0.555,-0.7136,-0.8184,-0.8162,-0.8128,-0.8133,-0.7862,0.0,0.0,0.0,0.0,0.0,0.0,0.0,0.0,0.0,0.0,0.0,0.0,0.0,0.0,0.0,0.0,0.0,0.0,0.0,0.0,0.0,0.0,0.0,0.0,0.0,0.0,0.0,0.0,0.0,0.0,0.0,0.0,0.0,0.0,0.0,0.0,0.0,0.0,0.0,0.0,0.0,0.0,0.0,0.0,0.0,0.0,0.0,0.0,0.0,0.0,0.0,0.0,0.0,0.0,0.0,0.0,0.0,0.0,0.0,0.0,0.0,0.0,0.0,0.0,0.0,0.0,0.0,0.0,0.0,0.0,0.0,0.0,0.0,0.0,0.0,0.0,0.0,0.0,0.0,0.0,0.0,0.0,0.0,0.0,0.0,0.0,0.0,0.0,0.0,0.0,0.0,0.0,0.0,0.0,0.0,0.0,0.0,0.0,0.0,0.0,0.0,0.0,-0.1757,-0.3173,-0.3744,-0.5462,-0.703,-0.8088,-0.798,-0.7874,-0.7969,-0.7662,0.0,0.0,0.0,0.0,0.0,0.0,0.0,0.0,0.0,0.0,0.0,0.0,0.0,0.0,0.0,0.0,0.0,0.0,0.0,0.0,0.0,0.0,0.0,0.0,0.0,0.0,0.0,0.0,0.0,0.0,0.0,0.0,0.0,0.0,0.0,0.0,0.0,0.0,0.0,0.0,0.0,0.0,0.0,0.0,0.0,0.0,0.0,0.0,0.0,0.0,0.0,0.0,0.0,0.0,0.0,0.0,0.0,0.0,0.0,0.0,0.0,0.0,0.0,0.0,0.0,0.0,0.0,0.0,0.0,0.0,0.0,0.0,0.0,0.0,0.0,0.0,0.0,0.0,0.0,0.0,0.0,0.0,0.0,0.0,0.0,0.0,0.0,0.0,0.0,0.0,0.0,0.0,0.0,0.0,0.0,0.0,0.0,0.0,0.0,0.0,0.0,0.0,-0.0165,-0.1154,-0.3574,-0.3824,-0.5049,-0.7965,-0.7725,-0.762,-0.8002,-0.7324,0.0,0.0,0.0,0.0,0.0,0.0,0.0,0.0,0.0,0.0,0.0,0.0,0.0,0.0,0.0,0.0,0.0,0.0,0.0,0.0,0.0,0.0,0.0,0.0,0.0,0.0,0.0,0.0,0.0,0.0,0.0,0.0,0.0,0.0,0.0,0.0,0.0,0.0,0.0,0.0,0.0,0.0,0.0,0.0,0.0,0.0,0.0,0.0,0.0,0.0,0.0,0.0,0.0,0.0,0.0,0.0,0.0,0.0,0.0,0.0,0.0,0.0,0.0,0.0,0.0,0.0,0.0,0.0,0.0,0.0,0.0,0.0,0.0,0.0,0.0,0.0,0.0,0.0,0.0,0.0,0.0,0.0,0.0,0.0,0.0,0.0,0.0,0.0,0.0,0.0,0.0,0.0,0.0,0.0,0.0,0.0,0.0,0.0,0.0,0.0,0.0,0.0,-0.0747,-0.1848,0.0,-0.4346,-0.5591,-0.7626,-0.7664,-0.7568,-0.7638,0.0,0.0,0.0,0.0,0.0,0.0,0.0,0.0,0.0,0.0,0.0,0.0,0.0,0.0,0.0,0.0,0.0,0.0,0.0,0.0,0.0,0.0,0.0,0.0,0.0,0.0,0.0,0.0,0.0,0.0,0.0,0.0,0.0,0.0,0.0,0.0,0.0,0.0,0.0,0.0,0.0,0.0,0.0,0.0,0.0,0.0,0.0,0.0,0.0,0.0,0.0,0.0,0.0,0.0,0.0,0.0,0.0,0.0,0.0,0.0,0.0,0.0,0.0,0.0,0.0,0.0,0.0,0.0,0.0,0.0,0.0,0.0,0.0,0.0,0.0,0.0,0.0,0.0,0.0,0.0,0.0,0.0,0.0,0.0,0.0,0.0,0.0,0.0,0.0,0.0,0.0,0.0,0.0,0.0,0.0,0.0,0.0,0.0,0.0,0.0,0.0,0.0,0.0,-0.0789,-0.1769,0.0,-0.4123,-0.5487,-0.6884,-0.7239,-0.7368,-0.7414,0.0,0.0,0.0,0.0,0.0,0.0,0.0,0.0,0.0,0.0,0.0,0.0,0.0,0.0,0.0,0.0,0.0,0.0,0.0,0.0,0.0,0.0,0.0,0.0,0.0,0.0,0.0,0.0,0.0,0.0,0.0,0.0,0.0,0.0,0.0,0.0,0.0,0.0,0.0,0.0,0.0,0.0,0.0,0.0,0.0,0.0,0.0,0.0,0.0,0.0,0.0,0.0,0.0,0.0,0.0,0.0,0.0,0.0,0.0,0.0,0.0,0.0,0.0,0.0,0.0,0.0,0.0,0.0,0.0,0.0,0.0,0.0,0.0,0.0,0.0,0.0,0.0,0.0,0.0,0.0,0.0,0.0,0.0,0.0,0.0,0.0,0.0,0.0,0.0,0.0,0.0,0.0,0.0,0.0,0.0,0.0,0.0,0.0,0.0,0.0,0.0,0.0,0.0,0.0,-0.0448,-0.1679,-0.2854,-0.4195,-0.5644,-0.6404,-0.6942,0.0,0.0,0.0,0.0,0.0,0.0,0.0,0.0,0.0,0.0,0.0,0.0,0.0,0.0,0.0,0.0,0.0,0.0,0.0,0.0,0.0,0.0,0.0,0.0,0.0,0.0,0.0,0.0,0.0,0.0,0.0,0.0,0.0,0.0,0.0,0.0,0.0,0.0,0.0,0.0,0.0,0.0,0.0,0.0,0.0,0.0,0.0,0.0,0.0,0.0,0.0,0.0,0.0,0.0,0.0,0.0,0.0,0.0,0.0,0.0,0.0,0.0,0.0,0.0,0.0,0.0,0.0,0.0,0.0,0.0,0.0,0.0,0.0,0.0,0.0,0.0,0.0,0.0,0.0,0.0,0.0,0.0,0.0,0.0,0.0,0.0,0.0,0.0,0.0,0.0,0.0,0.0,0.0,0.0,0.0,0.0,0.0,0.0,0.0,0.0,0.0,0.0,0.0,0.0,0.0,-0.0448,-0.1679,-0.2127,-0.3189,-0.5314,-0.5593,-0.6002,-0.6834,0.0,0.0,0.0,0.0,0.0,0.0,0.0,0.0,0.0,0.0,0.0,0.0,0.0,0.0,0.0,0.0,0.0,0.0,0.0,0.0,0.0,0.0,0.0,0.0,0.0,0.0,0.0,0.0,0.0,0.0,0.0,0.0,0.0,0.0,0.0,0.0,0.0,0.0,0.0,0.0,0.0,0.0,0.0,0.0,0.0,0.0,0.0,0.0,0.0,0.0,0.0,0.0,0.0,0.0,0.0,0.0,0.0,0.0,0.0,0.0,0.0,0.0,0.0,0.0,0.0,0.0,0.0,0.0,0.0,0.0,0.0,0.0,0.0,0.0,0.0,0.0,0.0,0.0,0.0,0.0,0.0,0.0,0.0,0.0,0.0,0.0,0.0,0.0,0.0,0.0,0.0,0.0,0.0,0.0,0.0,0.0,0.0,0.0,0.0,0.0,0.0,0.0,0.0,0.0,-0.028,-0.1008,-0.1512,-0.2407,-0.386,-0.4267,-0.4896,-0.5781,0.0,0.0,0.0,0.0,0.0,0.0,0.0,0.0,0.0,0.0,0.0,0.0,0.0,0.0,0.0,0.0,0.0,0.0,0.0,0.0,0.0,0.0,0.0,0.0,0.0,0.0,0.0,0.0,0.0,0.0,0.0,0.0,0.0,0.0,0.0,0.0,0.0,0.0,0.0,0.0,0.0,0.0,0.0,0.0,0.0,0.0,0.0,0.0,0.0,0.0,0.0,0.0,0.0,0.0,0.0,0.0,0.0,0.0,0.0,0.0,0.0,0.0,0.0,0.0,0.0,0.0,0.0,0.0,0.0,0.0,0.0,0.0,0.0,0.0,0.0,0.0,0.0,0.0,0.0,0.0,0.0,0.0,0.0,0.0,0.0,0.0,0.0,0.0,0.0,0.0,0.0,0.0,0.0,0.0,0.0,0.0,0.0,0.0,0.0,0.0,0.0,0.0,0.0,0.0,0.0,0.0,-0.0953,-0.1678,-0.1788,-0.2655,-0.3606,-0.4441,0.0,0.0,0.0,0.0,0.0,0.0,0.0,0.0,0.0,0.0,0.0,0.0,0.0,0.0,0.0,0.0,0.0,0.0,0.0,0.0,0.0,0.0,0.0,0.0,0.0,0.0,0.0,0.0,0.0,0.0,0.0,0.0,0.0,0.0,0.0,0.0,0.0,0.0,0.0,0.0,0.0,0.0,0.0,0.0,0.0,0.0,0.0,0.0,0.0,0.0,0.0,0.0,0.0,0.0,0.0,0.0,0.0,0.0,0.0,0.0,0.647,0.0,0.0,0.0,0.0,0.0,0.0,0.0,0.0,0.0,0.0,0.0,0.0,0.0,0.0,0.0,0.0,0.0,0.0,0.0,0.0,0.0,0.0,0.0,0.0,0.0,0.0,0.0,0.0,0.0,0.0,0.0,0.0,0.0,0.0,0.0,0.0,0.0,0.0,0.0,0.0,0.0,0.0,0.0,0.0,0.0,-0.0224,-0.078,-0.1703,-0.1938,-0.2476,-0.3583,-0.3995,0.0,0.0,0.0,0.0,0.0,0.0,0.0,0.0,0.0,0.0,0.0,0.0,0.0,0.0,0.0,0.0,0.0,0.0,0.0,0.0,0.0,0.0,0.0,0.0,0.0,0.0,0.0,0.0,0.0,0.0,0.0,0.0,0.0,0.0,0.0,0.0,0.0,0.0,0.0,0.0,0.0,0.0,0.0,0.0,0.0,0.0,0.0,0.0,0.0,0.0,0.0,0.0,0.0,0.0,0.0,0.0,0.0,0.0,0.0,0.0,0.6077,0.0,0.0,0.0,0.0,0.0,0.0,0.0,0.0,0.0,0.0,0.0,0.0,0.0,0.0,0.0,0.0,0.0,0.0,0.0,0.0,0.0,0.0,0.0,0.0,0.0,0.0,0.0,0.0,0.0,0.0,0.0,0.0,0.0,0.0,0.0,0.0,0.0,0.0,0.0,0.0,0.0,0.0,0.0,0.0,0.0,-0.0275,-0.0865,-0.085,-0.1283,-0.2323,-0.26,0.0,0.0,0.0,0.0,0.0,0.0,0.0,0.0,0.0,0.0,0.0,0.0,0.0,0.0,0.0,0.0,0.0,0.0,0.0,0.0,0.0,0.0,0.0,0.0,0.0,0.0,0.0,0.0,0.0,0.0,0.0,0.0,0.0,0.0,0.0,0.0,0.0,0.0,0.0,0.0,0.0,0.0,0.0,0.0,0.0,0.0,0.0,0.0,0.0,0.0,0.0,0.0,0.0,0.932,0.9381,0.9381,0.9381,0.9381,0.9296,0.7804,0.7064,0.6754,0.0,0.0,0.0,0.0,0.0,0.0,0.0,0.0,0.0,0.0,0.0,0.0,0.0,0.0,0.0,0.0,0.0,0.0,0.0,0.0,0.0,0.0,0.0,0.0,0.0,0.0,0.0,0.0,0.0,0.0,0.0,0.0,0.0,0.0,0.0,0.0,0.0,0.0,0.0,0.0,0.0,0.0,0.0,0.0,0.0,0.0,0.0,-0.0307,-0.1032,-0.1121,-0.1502,0.0,0.0,0.0,0.0,0.0,0.0,0.0,0.0,0.0,0.0,0.0,0.0,0.0,0.0,0.0,0.0,0.0,0.0,0.0,0.0,0.0,0.0,0.0,0.0,0.0,0.0,0.0,0.0,0.0,0.0,0.0,0.0,1.3752,1.1159,0.0,0.0,0.0,0.0,0.0,0.0,0.0,0.0,0.0,0.0,0.0,0.0,0.0,0.0,0.9289,0.933,0.9351,0.9351,0.9371,0.9381,0.9381,0.9381,0.9381,0.9378,0.9124,0.0,0.7269,0.6824,0.0,0.0,0.0,0.0,0.0,0.0,0.0,0.0,0.0,0.0,0.0,0.0,0.0,0.0,0.0,0.0,0.0,0.0,0.0,0.0,0.0,0.0,0.0,0.0,0.0,0.0,0.0,0.0,0.0,0.0,0.0,0.0,0.0,0.0,0.0,0.0,0.0,0.0,0.0,0.0,0.0,0.0,0.0,0.0,0.0,0.0,-0.0051,-0.0148,-0.0862,-0.1354,-0.1457,-0.1977,0.0,0.0,0.0,0.0,0.0,0.0,0.0,0.0,0.0,0.0,0.0,0.0,0.0,0.0,0.0,0.0,0.0,0.0,0.0,0.0,0.0,0.0,0.0,0.0,0.0,0.0,0.0,0.0,0.0,1.5779,1.4718,1.2031,1.1703,1.0951,0.0,0.0,0.0,0.0,0.0,0.0,0.0,0.0,0.0,0.9523,0.9612,0.969,0.9754,0.9758,0.9758,0.9754,0.9669,0.9629,0.9629,0.9629,0.9629,0.9629,0.9629,0.9199,0.8517,0.826,0.7299,0.5811,0.0,0.0,0.0,0.0,0.0,0.2133,0.1284,0.0,0.0,0.0,0.0,0.0,0.0,0.0,0.0,0.0,0.0,0.0,0.0,0.0,0.0,0.0,0.0,0.0,0.0,0.0,0.0,0.0,0.0,0.0,0.0,0.0,0.0,0.0,0.0,0.0,0.0,0.0,0.0,0.0,0.0,0.0,0.0,0.0,0.0,0.0,-0.0343,-0.0576,-0.0565,-0.0853,-0.1191,0.0,0.0,0.0,0.0,0.0,0.0,0.0,0.0,0.0,0.0,0.0,0.0,0.0,0.0,0.0,0.0,0.0,0.0,0.0,0.0,0.0,0.0,0.0,0.0,0.0,0.0,0.0,0.0,1.6256,1.5733,1.3374,1.2917,1.1957,0.0,0.0,0.0,0.0,0.0,0.0,0.9703,0.9724,0.9788,0.9934,1.0049,1.0107,1.0107,1.0107,1.0027,0.9984,0.9872,0.9859,0.9822,0.9822,0.9822,0.9822,0.9822,0.9652,0.9371,0.9316,0.8469,0.7222,0.6861,0.602,0.5,0.4359,0.4068,0.3844,0.2728,0.2294,0.2062,0.0871,0.0,0.0,0.0,0.0,0.0,0.0,0.0,0.0,0.0,0.0,0.0,0.0,0.0,0.0,0.0,0.0,0.0,0.0,0.0,0.0,0.0,0.0,0.0,0.0,0.0,0.0,0.0,0.0,0.0,0.0,0.0,0.0,0.0,0.0,0.0,0.0,0.0,0.0,0.0,0.0,-0.027,-0.0793,0.0,0.0,0.0,0.0,0.0,0.0,0.0,0.0,0.0,0.0,0.0,0.0,0.0,0.0,0.0,0.0,0.0,0.0,0.0,0.0,0.0,0.0,0.0,0.0,0.0,0.0,0.0,0.0,0.0,1.5615,1.4575,0.0,0.0,0.0,0.0,0.9585,0.97,0.9849,0.9957,1.0029,1.0163,1.0253,1.0263,1.0266,1.0266,1.0266,1.0195,0.9987,0.998,0.9899,0.9822,0.9822,0.9822,0.9822,0.9822,0.9652,0.9381,0.9371,0.9138,0.8647,0.7243,0.6629,0.6407,0.5016,0.4293,0.4016,0.3908,0.3745,0.33,0.2123,0.094,0.0,0.0,0.0,0.0,0.0,0.0,0.0,0.0,0.0,0.0,0.0,0.0,0.0,0.0,0.0,0.0,0.0,0.0,0.0,0.0,0.0,0.0,0.0,0.0,0.0,0.0,0.0,0.0,0.0,0.0,0.0,0.0,0.0,0.0,0.0,0.0,0.0,0.0,0.0,0.0,-0.0045,0.0,0.0,0.0,0.0,0.0,0.0,0.0,0.0,0.0,0.0,0.0,0.0,0.0,0.0,0.0,0.0,0.0,0.0,0.0,0.0,0.0,0.0,0.0,0.0,0.0,0.0,0.0,0.0,0.0,1.6583,1.6264,0.0,1.2162,1.1516,1.0858,0.9954,0.9876,1.0011,1.0321,1.0334,1.0405,1.0558,1.0565,1.0565,1.0565,1.0466,1.0344,1.0198,1.0034,0.9906,0.9822,0.9822,0.9822,0.9822,0.9822,0.9652,0.9381,0.9381,0.9205,0.8826,0.8322,0.8097,0.8042,0.7313,0.6866,0.6422,0.5475,0.4975,0.4531,0.3357,0.2119,0.1166,0.1166,0.0611,0.0,0.0,0.0,0.0,0.0,0.0,0.0,0.0,0.0,0.0,0.0,0.0,0.0,0.0,0.0,0.0,0.0,0.0,0.0,0.0,0.0,0.0,0.0,0.0,0.0,0.0,0.0,0.0,0.0,0.0,0.0,0.0,0.0,0.0,0.0,0.0,0.0,0.0,0.0,0.0,0.0,0.0,0.0,0.0,0.0,0.0,0.0,0.0,0.0,0.0,0.0,0.0,0.0,0.0,0.0,0.0,0.0,0.0,0.0,0.0,0.0,0.0,0.0,0.0,0.0,0.0,1.8378,1.7763,1.7474,1.617,1.322,1.267,1.1908,1.0347,1.026,1.0351,1.0561,1.0568,1.0616,1.0717,1.0721,1.0721,1.0721,1.0619,1.0473,1.028,1.0175,1.0019,0.9822,0.9822,0.9822,0.9819,0.9771,0.9608,0.9378,0.9323,0.9161,0.8885,0.8885,0.8885,0.8881,0.8712,0.8432,0.7989,0.6816,0.5982,0.526,0.4475,0.3413,0.2351,0.1903,0.1232,0.0504,0.0112,0.0,0.0,0.0,0.0,0.0,0.0,0.0,0.0,0.0,0.0,0.0,0.0,0.0,0.0,0.0,0.0,0.0,0.0,0.0,0.0,0.0,0.0,0.0,0.0,0.0,0.0,0.0,0.0,0.0,0.0,0.0,0.0,0.0,0.0,0.0,0.0,0.0,0.0,0.0,0.0,0.0,0.0,0.0,0.0,0.0,0.0,0.0,0.0,0.0,0.0,0.0,0.0,0.0,0.0,0.0,0.0,0.0,0.0,0.0,0.0,0.0,0.0,1.8504,1.837,1.8578,1.9197,1.8204,1.6705,1.4771,1.3899,1.2735,1.0881,1.0863,1.0813,1.0727,1.0721,1.0721,1.0721,1.0721,1.0721,1.0721,1.0721,1.0571,1.028,1.028,1.012,0.9822,0.9822,0.9822,0.9815,0.9673,0.9523,0.9367,0.9272,0.9069,0.8885,0.8885,0.8885,0.8885,0.8885,0.8712,0.8429,0.7826,0.6654,0.5483,0.5483,0.4643,0.3413,0.2295,0.1847,0.1567,0.0392,0.0056,0.0,0.0,0.0,0.0,0.0,0.0,0.0,0.0,0.0,0.0,0.0,0.0,0.0,0.0,0.0,0.0,0.0,0.0,0.0,0.0,0.0,0.0,0.0,0.0,0.0,0.0,0.0,0.0,0.0,0.0,0.0,0.0,0.0,0.0,0.0,0.0,0.0,0.0,0.0,0.0,0.0,0.0,0.0,0.0,0.0,0.0,0.0,0.0,0.0,0.0,0.0,0.0,0.0,0.0,0.0,0.0,0.0,0.0,0.0,1.831,1.8692,1.8453,1.8712,1.9025,1.9137,1.9026,1.8282,1.6765,1.5596,1.426,1.2622,1.1525,1.0813,1.0727,1.0721,1.0721,1.0721,1.0721,1.0721,1.0721,1.0721,1.0571,1.028,1.028,1.012,0.9822,0.9822,0.9822,0.9815,0.9673,0.9523,0.9367,0.9272,0.9069,0.8885,0.8885,0.8885,0.8885,0.8885,0.8712,0.8429,0.8045,0.749,0.699,0.699,0.604,0.4868,0.4531,0.3189,0.1735,0.14,0.0672,0.0,0.0,0.0,0.0,0.0,0.0,0.0,0.0,0.0,0.0,0.0,0.0,0.0,0.0,0.0,0.0,0.0,0.0,0.0,0.0,0.0,0.0,0.0,0.0,0.0,0.0,0.0,0.0,0.0,0.0,0.0,0.0,0.0,0.0,0.0,0.0,0.0,0.0,0.0,0.0,0.0,0.0,0.0,0.0,0.0,0.0,0.0,0.0,0.0,0.0,0.0,0.0,0.0,0.0,0.0,0.0,0.0,0.0,0.0,1.9192,1.9535,1.9174,1.9423,1.9658,1.9751,1.9831,1.9298,1.7818,1.7104,1.5791,1.3481,1.2455,1.155,1.0731,1.0721,1.0721,1.0721,1.0721,1.0721,1.0721,1.0656,1.051,1.028,1.0215,1.0056,0.9822,0.9822,0.9822,0.0,0.9602,0.9462,0.9364,0.915,0.9015,0.0,0.0,0.0,0.0,0.0,0.8543,0.8266,0.8045,0.7768,0.7438,0.7551,0.6935,0.604,0.5539,0.4419,0.3189,0.2686,0.2071,0.14,0.0896,0.0728,0.0616,0.0112,0.0,0.0,0.0,0.0,0.0,0.0,0.0,0.0,0.0,0.0,0.0,0.0,0.0,0.0,0.0,0.0,0.0,0.0,0.0,0.0,0.0,0.0,0.0,0.0,0.0,0.0,0.0,0.0,0.0,0.0,0.0,0.0,0.0,0.0,0.0,0.0,0.0,0.0,0.0,0.0,0.0,0.0,0.0,0.0,0.0,0.0,0.0,0.0,0.0,0.0,0.0,0.0,0.0,0.0,2.0147,2.0626,2.0355,2.0299,2.0328,2.0449,2.0465,1.9857,1.8418,1.8328,1.7166,1.4126,1.3622,1.2655,1.1,0.0,0.0,0.0,0.0,1.0721,1.0721,1.0568,1.0422,1.028,1.0124,0.9906,0.9822,0.9822,0.9812,0.9781,0.9503,0.9371,0.9334,0.9052,0.8885,0.8885,0.8885,0.8885,0.8881,0.8654,0.8322,0.0,0.0,0.0,0.0,0.7549,0.7438,0.6988,0.5929,0.5483,0.5202,0.4083,0.3692,0.3301,0.2127,0.1791,0.1512,0.028,0.0,0.0,0.0,0.0,0.0,0.0,0.0,0.0,0.0,0.0,0.0,0.0,0.0,0.0,0.0,0.0,0.0,0.0,0.0,0.0,0.0,0.0,0.0,0.0,0.0,0.0,0.0,0.0,0.0,0.0,0.0,0.0,0.0,0.0,0.0,0.0,0.0,0.0,0.0,0.0,0.0,0.0,0.0,0.0,0.0,0.0,0.0,0.0,0.0,0.0,0.0,0.0,0.0,1.998,2.0408,2.0762,2.0933,2.0713,2.0353,1.9826,2.0139,2.0208,1.9602,1.8826,1.7999,1.6985,1.471,1.313,1.2441,1.131,0.0,1.0721,1.0721,1.0721,1.0721,1.0568,1.0422,1.028,0.0,0.0,0.9822,0.9822,0.9758,0.9639,0.9459,0.931,0.9241,0.9011,0.8885,0.8885,0.8885,0.8885,0.8881,0.8826,0.8657,0.8429,0.8429,0.7989,0.7549,0.7607,0.7438,0.7154,0.6932,0.6151,0.0,0.5091,0.4364,0.3301,0.2127,0.1791,0.1512,0.028,0.0,0.0,0.0,0.0,0.0,0.0,0.0,0.0,0.0,0.0,0.0,0.0,0.0,0.0,0.0,0.0,0.0,0.0,0.0,0.0,0.0,0.0,0.0,0.0,0.0,0.0,0.0,0.0,0.0,0.0,0.0,0.0,0.0,0.0,0.0,0.0,0.0,0.0,0.0,0.0,0.0,0.0,0.0,0.0,0.0,0.0,0.0,0.0,0.0,1.9192,2.008,0.0,2.0428,2.1015,2.1116,2.1216,2.151,2.1227,2.0851,2.0381,2.0351,2.0397,2.0331,1.9757,1.8918,1.7863,1.563,1.3901,1.2832,1.1442,1.0721,1.0721,1.0721,1.0683,1.0605,1.046,1.031,1.0164,1.0008,0.9893,0.9822,0.9822,0.9744,0.9602,0.9449,0.9354,0.92,0.8998,0.8885,0.8885,0.8885,0.8885,0.8881,0.8768,0.8598,0.8484,0.8318,0.7992,0.7607,0.7607,0.7438,0.721,0.721,0.6765,0.6318,0.6318,0.5868,0.5142,0.3916,0.358,0.3301,0.2071,0.1344,0.0894,0.0887,0.0437,0.0,0.0,0.0,0.0,0.0,0.0,0.0,0.0,0.0,0.0,0.0,0.0,0.0,0.0,0.0,0.0,0.0,0.0,0.0,0.0,0.0,0.0,0.0,0.0,0.0,0.0,0.0,0.0,0.0,0.0,0.0,0.0,0.0,0.0,0.0,0.0,0.0,0.0,0.0,0.0,0.0,1.7815,1.8175,1.9254,1.9754,2.0287,2.1056,2.1243,2.1436,2.1911,2.179,2.1717,2.1951,2.1654,2.1325,2.1084,2.0677,2.0508,2.0724,2.0477,1.9752,1.8328,1.6676,1.4992,1.3284,1.1901,1.0982,1.0721,1.0721,1.0646,1.0493,1.0351,1.0202,0.9984,0.9893,0.9822,0.9822,0.9822,0.9727,0.9554,0.9374,0.9225,0.9103,0.8988,0.8885,0.8885,0.8885,0.8885,0.8881,0.8654,0.854,0.8484,0.8211,0.7934,0.766,0.7607,0.7438,0.7268,0.721,0.721,0.721,0.721,0.721,0.6932,0.5706,0.5427,0.5091,0.386,0.2854,0.2117,0.2136,0.1185,0.0318,0.0313,0.0153,0.0,0.0,0.0,0.0,0.0,0.0,0.0,0.0,0.0,0.0,0.0,0.0,0.0,0.0,0.0,0.0,0.0,0.0,0.0,0.0,0.0,0.0,0.0,0.0,0.0,0.0,0.0,0.0,0.0,0.0,0.0,1.7735,1.7516,1.7244,1.7714,1.745,1.7331,0.0,1.8519,1.8933,1.9593,2.0396,2.1076,2.1501,2.1717,2.1911,2.1977,2.1957,2.1951,2.1984,2.1727,2.1415,2.1293,2.0945,2.0644,2.0409,2.0347,2.0097,1.9698,1.8089,1.645,1.4721,1.3337,1.1963,1.0721,1.0721,1.0646,1.0493,1.0351,1.0202,0.9984,0.9893,0.9822,0.9822,0.9822,0.9669,0.9391,0.911,0.8922,0.8905,0.8892,0.8885,0.8885,0.8885,0.8885,0.8881,0.8881,0.8712,0.8484,0.8429,0.8211,0.7934,0.7662,0.7607,0.7493,0.7268,0.721,0.721,0.721,0.721,0.6932,0.5706,0.5427,0.5091,0.386,0.3525,0.334,0.323,0.2367,0.1587,0.1457,0.0664,0.0,0.0,0.0,0.0,0.0,0.0,0.0,0.0,0.0,0.0,0.0,0.0,0.0,0.0,0.0,0.0,0.0,0.0,0.0,0.0,0.0,0.0,0.0,0.0,0.0,0.0,0.0,0.0,0.0,0.0,0.0,1.751,1.7473,1.7422,1.7266,1.7444,1.7691,1.8097,1.8544,1.9015,1.9676,2.0467,2.1199,2.175,2.1904,2.2031,0.0,2.2016,2.1903,2.1865,2.1552,2.1325,2.1233,2.0978,2.0709,2.0571,2.0231,2.0002,1.9899,1.8219,1.6827,1.6143,1.3988,1.2553,1.1963,1.1115,1.0609,1.0371,1.031,1.0158,0.9856,0.9849,0.9822,0.9822,0.9822,0.9659,0.9364,0.9069,0.8885,0.8885,0.8885,0.8885,0.8885,0.8885,0.8885,0.8885,0.8885,0.8826,0.8712,0.8543,0.8429,0.8263,0.7934,0.7715,0.7607,0.7493,0.7324,0.721,0.721,0.721,0.7099,0.6596,0.6429,0.6318,0.5813,0.5105,0.4498,0.4473,0.3497,0.2603,0.2557,0.1673,0.0908,0.0908,0.0404,0.0,0.0,0.0,0.0,0.0,0.0,0.0,0.0,0.0,0.0,0.0,0.0,0.0,0.0,0.0,0.0,0.0,0.0,0.0,0.0,0.0,0.0,0.0,0.0,0.0,0.0,0.0,0.0,1.7265,1.726,1.7295,1.6968,1.7366,1.7798,1.7874,1.8315,1.8857,1.9392,2.0248,2.1091,2.172,2.1985,2.2138,2.2294,2.2134,2.1939,2.1803,2.1559,2.1352,2.1214,2.1012,2.0804,2.0741,2.0195,1.9887,1.9887,1.845,1.7431,1.7044,1.5093,1.3595,1.2816,1.1835,1.0967,1.0283,1.028,1.0127,0.9822,0.9822,0.9822,0.9819,0.9737,0.9585,0.9364,0.9069,0.8885,0.8885,0.8885,0.8885,0.8885,0.8885,0.8885,0.8885,0.8885,0.8885,0.8881,0.8657,0.8598,0.8543,0.8266,0.7992,0.7826,0.7718,0.7549,0.7324,0.7324,0.7265,0.721,0.721,0.721,0.721,0.721,0.6456,0.5699,0.5651,0.4611,0.3705,0.3639,0.2771,0.1966,0.1664,0.121,0.0707,0.0101,0.0252,0.0353,0.0051,0.0,0.0,0.0,0.0,0.0,0.0,0.0,0.0,0.0,0.0,0.0,0.0,0.0,0.0,0.0,0.0,0.0,0.0,0.0,0.0,0.0,0.0,0.0,1.7169,1.6903,1.6869,1.7345,1.7316,1.7216,1.7471,1.7987,1.851,1.8783,1.9781,2.0798,2.1424,2.2018,2.237,2.2327,2.2304,2.216,2.1835,2.1766,2.1628,2.1283,2.1214,2.1075,0.0,2.0195,1.9887,1.9887,1.938,1.8419,1.7044,1.691,1.5614,1.2882,1.275,1.1938,1.0347,1.028,1.0127,0.9822,0.9822,0.9822,0.9812,0.9527,0.9391,0.9364,0.9069,0.8885,0.8885,0.8885,0.8885,0.8885,0.8885,0.8885,0.8885,0.8885,0.8885,0.8885,0.8881,0.8881,0.8826,0.8598,0.8484,0.8429,0.81,0.7826,0.7607,0.7607,0.7379,0.721,0.721,0.721,0.721,0.721,0.7067,0.6897,0.6775,0.5813,0.4885,0.48,0.3879,0.2821,0.1765,0.2418,0.2418,0.0303,0.0908,0.116,0.0151,0.0,0.0,0.0,0.0,0.0,0.0,0.0,0.0,0.0,0.0,0.0,0.0,0.0,0.0,0.0,0.0,0.0,0.0,0.0,0.0,0.0,0.0,0.0,1.689,1.6888,1.7033,1.7165,1.7283,1.7376,1.7461,1.7803,1.8148,1.8487,1.9157,1.9962,2.0791,2.1455,2.1806,2.1675,2.1844,2.1766,2.1144,2.1081,2.1012,2.0873,2.0873,0.0,0.0,0.0,0.0,1.9887,1.9386,1.888,1.8419,1.7501,1.6138,1.4254,1.3272,1.2003,1.0347,1.028,1.0127,0.9822,0.9822,0.9822,0.9812,0.9513,0.9381,0.9364,0.9069,0.8885,0.8885,0.8885,0.8885,0.8885,0.8885,0.8885,0.8885,0.8885,0.8885,0.8885,0.8885,0.8885,0.8881,0.8771,0.8654,0.8484,0.8374,0.81,0.7878,0.7878,0.766,0.7438,0.7438,0.7324,0.721,0.721,0.7005,0.6903,0.702,0.6483,0.5979,0.6097,0.5135,0.413,0.3776,0.3425,0.2972,0.2217,0.121,0.0404,0.0051,0.0,0.0,0.0,0.0,0.0,0.0,0.0,0.0,0.0,0.0,0.0,0.0,0.0,0.0,0.0,0.0,0.0,0.0,0.0,0.0,0.0,0.0,0.0,1.6802,1.694,1.7117,1.7207,1.7358,1.7485,1.7485,1.7612,1.7822,1.8165,1.8605,1.9251,2.0263,2.0801,2.1109,2.1286,2.1363,2.1239,2.0792,2.0665,2.0665,2.0665,2.0665,2.0665,0.0,0.0,0.0,1.9887,1.947,1.9175,1.9084,1.8221,1.7114,1.5684,1.425,1.2775,1.1094,1.0531,1.0127,0.9822,0.9822,0.9822,0.9812,0.9513,0.9381,0.9364,0.9069,0.8885,0.8885,0.8885,0.8885,0.8885,0.8885,0.8885,0.8885,0.8885,0.8885,0.8885,0.8885,0.8885,0.8885,0.8885,0.8771,0.8654,0.8654,0.8432,0.8152,0.8152,0.7989,0.7771,0.7771,0.7549,0.7324,0.7324,0.7171,0.7065,0.7176,0.7001,0.6844,0.6901,0.6189,0.5386,0.5033,0.3977,0.3324,0.3726,0.2267,0.116,0.116,0.116,0.116,0.116,0.116,0.1142,0.1099,0.1095,0.1077,0.1035,0.1032,0.0853,0.0494,0.0494,0.0359,0.0,0.0,0.0,0.0,0.0,0.0,0.0,0.0,0.0,1.7011,1.7098,1.7171,1.7418,1.7485,1.7485,1.7485,1.7485,1.7545,1.7787,1.8168,1.872,1.9776,2.0121,2.0404,2.1105,2.0983,2.0773,2.0698,2.0665,2.0665,2.0665,2.0665,2.0665,2.0665,0.0,0.0,1.9887,0.0,1.9338,1.909,1.9078,1.8483,1.7044,1.5684,1.4189,1.2398,1.1013,1.011,0.9822,0.9822,0.9822,0.9812,0.9513,0.9381,0.9364,0.9069,0.8885,0.8885,0.8885,0.8885,0.8885,0.8885,0.8885,0.8885,0.8885,0.8885,0.8885,0.8885,0.8885,0.8885,0.8885,0.8885,0.8885,0.8885,0.8712,0.854,0.854,0.8266,0.8045,0.8045,0.7826,0.7607,0.7607,0.7506,0.7376,0.7246,0.7382,0.7454,0.7266,0.6992,0.6489,0.5482,0.4227,0.3726,0.4782,0.4028,0.3324,0.3224,0.3224,0.3224,0.3224,0.3224,0.3126,0.3008,0.2996,0.2993,0.2924,0.2913,0.2465,0.1524,0.148,0.1077,0.018,0.0135,0.0136,0.0093,0.0142,0.0145,0.0098,0.01,0.0101,1.7056,1.7237,1.74,1.7467,1.7485,1.7485,1.7485,1.7485,1.7449,1.7316,1.7757,1.8199,1.8485,1.9234,1.9914,2.0303,2.0614,0.0,2.0698,2.0665,2.0665,2.0665,2.0665,2.0665,2.0665,2.037,0.0,0.0,1.9446,1.9145,1.9078,1.9078,1.8483,1.7044,1.6656,1.5144,1.2402,1.0783,0.99,0.9822,0.9822,0.9822,0.9812,0.9513,0.9381,0.9364,0.9069,0.8885,0.8885,0.8885,0.8885,0.8885,0.8885,0.8885,0.8885,0.8885,0.8885,0.8885,0.8885,0.8885,0.8885,0.8885,0.8885,0.8885,0.8885,0.8826,0.8826,0.8826,0.8598,0.8377,0.8377,0.8156,0.7881,0.7881,0.7831,0.7753,0.7778,0.7641,0.7508,0.7522,0.7291,0.6989,0.6736,0.6237,0.6037,0.6537,0.6034,0.5031,0.3425,0.3224,0.3224,0.3224,0.3224,0.3192,0.3164,0.3068,0.301,0.298,0.2935,0.2778,0.2509,0.251,0.2419,0.2152,0.2228,0.185,0.104,0.1926,0.1965,0.1202,0.1208,0.1211,1.7231,1.737,1.7485,1.7485,1.7485,1.7485,1.7485,1.7485,1.7501,1.7472,1.7653,1.7938,1.8307,1.8775,1.9319,1.9876,2.0259,2.0502,2.0686,2.0665,2.0665,2.0665,2.0665,2.0665,2.0665,2.0327,2.0044,0.0,1.9489,1.9193,1.9084,1.9078,1.8746,1.7958,1.7302,1.5529,1.2402,1.0638,0.9822,0.9822,0.9822,0.9788,0.972,0.9486,0.9344,0.9269,0.0,0.8885,0.8885,0.8885,0.8885,0.8885,0.8885,0.8885,0.8885,0.8885,0.8885,0.8885,0.8885,0.8885,0.8885,0.8885,0.8885,0.8885,0.8885,0.8885,0.8885,0.8885,0.8771,0.8657,0.8657,0.8432,0.8211,0.8211,0.8204,0.8148,0.8002,0.7949,0.7885,0.7635,0.7494,0.7341,0.7238,0.7089,0.7039,0.7188,0.6936,0.6284,0.4931,0.468,0.4628,0.4628,0.4628,0.4595,0.4559,0.4506,0.4439,0.4352,0.4265,0.4036,0.3629,0.3554,0.3315,0.2911,0.2968,0.2702,0.2092,0.286,0.2869,0.2318,0.2318,0.2318,1.7243,1.7361,1.7485,1.7485,1.7485,1.7485,1.7485,1.7485,1.759,1.7806,1.7704,1.7736,1.8548,1.838,1.8571,1.9677,1.9801,1.9989,2.0581,2.0665,2.0665,2.0665,2.0665,2.0665,2.0665,2.0195,1.9887,1.9887,1.9591,1.9384,1.909,1.9078,1.906,1.9024,1.768,1.5518,1.2674,1.0934,0.994,0.9822,0.9822,0.9747,0.9605,0.9452,0.9354,0.9204,0.0,0.0,0.8885,0.8885,0.8885,0.8885,0.8885,0.8885,0.8885,0.8885,0.8885,0.8885,0.8885,0.8885,0.8885,0.8885,0.8885,0.8885,0.8885,0.8885,0.8885,0.8885,0.8885,0.8885,0.8885,0.8712,0.8543,0.8543,0.8543,0.8465,0.8123,0.8243,0.8298,0.7742,0.7646,0.7593,0.7338,0.7288,0.7288,0.7288,0.7238,0.7138,0.6945,0.6639,0.6437,0.6387,0.6387,0.6396,0.6298,0.6325,0.6273,0.6116,0.598,0.5535,0.4702,0.457,0.4119,0.3269,0.3342,0.3362,0.3185,0.3498,0.3567,0.3425,0.3425,0.3425,1.6214,1.6703,1.7485,1.7485,1.7485,1.7485,1.7485,1.7485,1.7424,1.7265,1.7367,1.7496,1.7415,1.7552,1.7997,1.9063,1.9228,1.9555,2.0533,2.0665,2.0665,2.0665,2.0665,2.0665,2.0665,2.0195,0.0,0.0,0.0,1.9126,1.9078,1.9078,1.8976,1.8758,1.7321,1.5634,1.384,1.2214,1.0846,0.9822,0.9822,0.9747,0.9605,0.9452,0.9354,0.9204,0.0,0.0,0.8885,0.8885,0.8885,0.8885,0.8885,0.8885,0.8885,0.8885,0.8885,0.8885,0.8885,0.8885,0.8885,0.8885,0.8885,0.8885,0.8885,0.8885,0.8885,0.8885,0.8885,0.8885,0.8885,0.8881,0.8826,0.8826,0.8826,0.8746,0.8494,0.8238,0.8052,0.7949,0.7942,0.7942,0.7889,0.7693,0.7593,0.7839,0.7487,0.7238,0.7447,0.7045,0.6642,0.6437,0.6387,0.6379,0.6407,0.6323,0.6309,0.6287,0.6026,0.5812,0.5672,0.552,0.5374,0.5238,0.5432,0.5115,0.4229,0.5314,0.5366,0.4533,0.4533,0.4533,1.5569,1.6048,1.6649,1.7303,1.7485,1.7485,1.7485,1.7485,1.7507,1.756,1.7535,1.7494,1.7563,1.7551,1.7738,1.8563,1.8586,1.8873,2.0092,2.0134,2.0195,2.0617,2.0665,2.0617,2.0478,2.0116,1.9827,1.9682,0.0,1.9078,1.9078,1.8945,1.8813,1.8686,1.7089,1.5544,1.4094,1.25,1.1088,0.9822,0.9822,0.9703,0.949,0.9415,0.9259,0.9035,0.0,0.0,0.8885,0.8885,0.8885,0.8885,0.8885,0.8885,0.8885,0.8885,0.8885,0.8885,0.8885,0.8885,0.8885,0.8885,0.8885,0.8885,0.8885,0.8885,0.8885,0.8885,0.8885,0.8885,0.8885,0.8885,0.8885,0.8885,0.8818,0.8662,0.8513,0.8248,0.7988,0.7988,0.7988,0.7988,0.7988,0.7892,0.7842,0.7988,0.7789,0.759,0.7596,0.7397,0.7095,0.6836,0.6689,0.6589,0.6589,0.6437,0.6355,0.6355,0.6192,0.6064,0.6002,0.5885,0.575,0.5691,0.5966,0.5847,0.5322,0.6075,0.6134,0.5636,0.5636,0.5636,1.456,1.5154,1.5811,1.6826,1.7303,1.7485,1.7485,1.7485,1.7543,1.7849,1.7677,1.7596,1.7864,1.7615,1.7612,1.8143,1.807,1.8372,1.9549,1.967,1.9942,2.0509,2.0635,2.0563,2.0303,2.0038,0.0,1.9489,0.0,0.0,1.9072,1.8831,1.8656,1.8601,1.7198,1.5777,1.4453,1.2902,1.1507,1.0183,0.994,0.9666,0.9381,0.9381,0.9222,0.8885,0.0,0.0,0.0,0.8885,0.8885,0.8885,0.8885,0.8885,0.8885,0.8885,0.8885,0.8885,0.8885,0.8885,0.8885,0.8885,0.8885,0.8885,0.8885,0.8885,0.8885,0.8885,0.8885,0.8885,0.8885,0.8885,0.8875,0.8844,0.8679,0.8472,0.8442,0.8228,0.7988,0.7988,0.7988,0.7988,0.7988,0.7988,0.7988,0.7988,0.7988,0.7942,0.7693,0.7696,0.7593,0.7388,0.7092,0.6892,0.6892,0.6639,0.6487,0.6487,0.638,0.6273,0.613,0.6007,0.5899,0.5766,0.6015,0.6124,0.6124,0.6333,0.6387,0.6387,0.6387,0.6387,1.235,1.378,1.5634,1.5752,1.6649,1.7485,1.7485,1.7485,1.7485,1.7543,1.7525,1.7513,1.7537,1.7325,1.7325,1.7823,1.8106,1.8463,1.9066,1.976,2.0231,2.0303,2.0527,2.0563,2.0303,2.0038,1.9772,0.0,0.0,0.0,1.906,1.8831,1.8577,1.8336,1.7967,1.6974,1.5488,1.4152,1.2826,1.1511,1.0365,0.9666,0.9381,0.9381,0.9222,0.8885,0.0,0.0,0.0,0.8885,0.8885,0.8885,0.8885,0.8885,0.8885,0.8885,0.8885,0.8885,0.8885,0.8885,0.8885,0.8885,0.8885,0.8885,0.8885,0.8885,0.8885,0.8885,0.8885,0.8885,0.8885,0.8885,0.8848,0.8764,0.8604,0.8445,0.8371,0.816,0.7988,0.7988,0.7988,0.7988,0.7988,0.7988,0.7988,0.7988,0.7988,0.7988,0.7992,0.7942,0.7939,0.7939,0.7487,0.7138,0.7138,0.6942,0.6742,0.6742,0.6481,0.6311,0.63,0.6132,0.6064,0.6053,0.6184,0.63,0.63,0.6377,0.6387,0.6387,0.6387,0.6387,1.1603,1.247,1.3426,1.4262,1.5391,1.6349,1.6349,1.6944,1.7485,1.7485,1.7485,1.7485,1.7485,1.7267,1.7159,1.737,1.7225,1.7322,1.8022,1.8529,1.9066,1.9712,2.0032,2.0158,0.0,0.0,1.9519,0.0,0.0,0.0,1.8837,1.8432,1.8149,1.8046,1.7781,1.6984,1.5634,1.5095,1.3784,1.1687,1.1104,1.0343,0.9378,0.9344,0.9133,0.8885,0.0,0.0,0.0,0.8885,0.8885,0.8885,0.8885,0.8885,0.8885,0.8885,0.8885,0.8885,0.8885,0.8885,0.8885,0.8885,0.8885,0.8885,0.8885,0.8885,0.8885,0.8885,0.8885,0.8885,0.8885,0.8885,0.8868,0.8807,0.8662,0.8465,0.8411,0.8211,0.7988,0.7988,0.7988,0.7988,0.7988,0.7988,0.7988,0.7988,0.7988,0.7988,0.7988,0.7988,0.7988,0.7988,0.7643,0.7444,0.7444,0.7191,0.7039,0.7039,0.6746,0.6588,0.656,0.6319,0.6162,0.6086,0.6254,0.6317,0.6317,0.6382,0.6387,0.6387,0.6387,0.6387,1.0808,1.1354,1.1929,1.2891,1.4381,1.5575,1.5575,1.6585,1.7485,1.7485,1.7485,1.7485,1.7485,1.7267,1.7062,1.699,1.6718,1.6742,1.7394,1.7847,1.8512,1.9356,0.0,1.9857,0.0,1.9513,0.0,0.0,0.0,0.0,0.0,1.801,1.7793,1.7871,1.7618,1.7062,1.6166,1.5811,1.4465,1.2201,1.1718,1.072,0.931,0.9258,0.9076,0.8885,0.0,0.0,0.0,0.8885,0.8885,0.8885,0.8885,0.8885,0.8885,0.8885,0.8885,0.8885,0.8885,0.8885,0.8885,0.8885,0.8885,0.8885,0.8885,0.8885,0.8885,0.8885,0.8885,0.8885,0.8885,0.8885,0.8871,0.8828,0.8672,0.8469,0.8428,0.8221,0.7988,0.7988,0.7988,0.7988,0.7988,0.7988,0.7988,0.7988,0.7988,0.7988,0.7988,0.7988,0.7988,0.7988,0.7842,0.7693,0.7693,0.749,0.7341,0.7341,0.7092,0.6901,0.6856,0.6614,0.6425,0.6288,0.6322,0.6317,0.632,0.6396,0.6387,0.6387,0.6387,0.6387,0.9612,1.061,1.1692,1.1692,1.366,1.5575,1.5575,1.6585,1.7485,1.7485,1.7485,1.7485,1.7485,1.7267,1.7008,1.6748,1.6917,0.0,1.7443,1.8173,1.8873,1.9469,1.9718,1.9778,1.9501,1.9235,0.0,0.0,0.0,0.0,0.0,1.763,1.7605,1.7865,1.7618,1.7479,1.7485,1.6225,1.4857,1.3343,1.2123,1.0717,0.921,0.921,0.9076,0.0,0.0,0.0,0.0,0.8885,0.8885,0.8885,0.8885,0.8885,0.8885,0.8885,0.8885,0.8885,0.8885,0.8885,0.8885,0.8885,0.8885,0.8885,0.8885,0.8885,0.8885,0.8885,0.8885,0.8885,0.8885,0.8885,0.8844,0.875,0.8594,0.8442,0.8354,0.815,0.7988,0.7988,0.7988,0.7988,0.7988,0.7988,0.7988,0.7988,0.7988,0.7988,0.7988,0.7988,0.7988,0.7988,0.7988,0.7988,0.7988,0.7743,0.7596,0.7596,0.7341,0.7188,0.7185,0.6939,0.6792,0.6789,0.6537,0.6384,0.6384,0.6387,0.6387,0.6387,0.6387,0.6387,0.9581,1.0014,1.0425,1.0425,1.2341,1.4321,1.4321,1.593,1.743,1.7249,1.7213,1.7159,1.6984,1.6881,1.6857,1.6954,1.7038,0.0,1.7449,1.8022,1.8547,1.8891,1.9326,1.9495,0.0,0.0,0.0,0.0,0.0,0.0,0.0,1.7624,1.7521,1.7605,1.7527,1.7485,1.7485,1.6891,1.5939,1.4629,1.392,1.2463,1.0381,1.0262,0.0,0.0,0.0,0.0,0.0,0.8885,0.8885,0.8885,0.8885,0.8885,0.8885,0.8885,0.8885,0.8885,0.8885,0.8885,0.8885,0.8885,0.8885,0.8885,0.8885,0.8885,0.8885,0.8885,0.8885,0.8885,0.8885,0.8885,0.8844,0.8747,0.8594,0.8442,0.835,0.815,0.7988,0.7988,0.7988,0.7988,0.7988,0.7988,0.7988,0.7988,0.7988,0.7988,0.7988,0.7988,0.7988,0.7988,0.7988,0.7988,0.7988,0.7942,0.7892,0.7892,0.7643,0.7494,0.7494,0.7241,0.7089,0.7089,0.6792,0.6692,0.6692,0.6487,0.6387,0.6387,0.6387,0.6387,0.9496,0.9669,0.9943,1.0425,1.2105,1.3844,1.4321,1.6048,1.7436,1.7274,1.7159,1.7044,1.6881,1.6688,1.6604,1.6761,1.67,1.6803,1.7267,1.7714,1.8197,1.8764,0.0,0.0,0.0,0.0,0.0,0.0,0.0,0.0,0.0,0.0,1.7485,1.7485,1.7485,1.7436,1.7334,1.7171,1.635,1.495,1.4715,1.3523,1.1445,1.094,0.0,0.0,0.0,0.0,0.0,0.8885,0.8885,0.8885,0.8885,0.8885,0.8885,0.8885,0.8885,0.8885,0.8885,0.8885,0.8885,0.8885,0.8885,0.8885,0.8885,0.8885,0.8885,0.8885,0.8885,0.8885,0.8885,0.8885,0.8844,0.8747,0.8594,0.8442,0.835,0.815,0.7988,0.7988,0.7988,0.7988,0.7988,0.7988,0.7988,0.7988,0.7988,0.7988,0.7988,0.7988,0.7988,0.7988,0.7988,0.7988,0.7988,0.7988,0.7988,0.7988,0.7842,0.7743,0.7743,0.7494,0.7341,0.7341,0.7092,0.6942,0.6942,0.6689,0.6539,0.6539,0.6437,0.6387,0.0,0.9588,1.0061,1.1269,1.2646,1.4023,1.5213,1.6526,0.0,1.7461,1.7243,1.7062,1.7062,1.6634,1.629,1.6332,1.6133,1.6247,1.7038,1.7388,1.7943,0.0,1.9078,0.0,0.0,0.0,0.0,0.0,0.0,0.0,0.0,0.0,1.7473,1.7455,1.7455,1.734,1.7092,1.7056,1.6271,1.4735,1.4718,1.3931,1.2472,1.1437,0.0,0.0,0.0,0.0,0.0,0.8885,0.8885,0.8885,0.8885,0.8885,0.8885,0.8885,0.8885,0.8885,0.8885,0.8885,0.8885,0.8885,0.8885,0.8885,0.8885,0.8885,0.8885,0.8885,0.8885,0.8885,0.8885,0.8885,0.8841,0.8733,0.8584,0.8438,0.8286,0.814,0.7988,0.7988,0.7988,0.7988,0.7988,0.7988,0.7988,0.7988,0.7988,0.7988,0.7988,0.7988,0.7988,0.7988,0.7988,0.7988,0.7988,0.7988,0.7988,0.7988,0.7988,0.7988,0.7988,0.7743,0.7646,0.7646,0.7341,0.7238,0.7188,0.6942,0.6795,0.6795,0.6539,0.6437,0.9296,0.0,0.9879,1.0183,1.1985,1.3784,0.0,1.5871,1.7424,1.7225,1.6972,1.6791,1.6791,1.6356,1.6187,1.6803,1.6851,1.7014,1.7605,1.81,1.8571,1.9024,1.9078,1.9,0.0,0.0,0.0,0.0,0.0,0.0,0.0,0.0,1.7394,1.7189,1.7183,1.7153,1.7092,1.6694,1.6312,1.5895,1.5694,1.4973,1.3786,1.3511,0.0,0.0,0.0,0.0,0.0,0.8885,0.8885,0.8885,0.8885,0.8885,0.8885,0.8885,0.8885,0.8885,0.8885,0.8885,0.8885,0.8885,0.8885,0.8885,0.8885,0.8885,0.8885,0.8885,0.8885,0.8885,0.8885,0.8885,0.8814,0.8601,0.8509,0.8411,0.815,0.8015,0.7988,0.7988,0.7988,0.7988,0.7988,0.7988,0.7988,0.7988,0.7988,0.7988,0.7988,0.7988,0.7988,0.7988,0.7988,0.7988,0.7988,0.7988,0.7988,0.7988,0.7988,0.7988,0.7988,0.7942,0.7892,0.7892,0.7643,0.7391,0.7188,0.7138,0.6992,0.6795,0.6742,0.6589,0.9231,0.9479,0.9923,1.0452,1.1687,1.3126,1.4321,1.5634,1.6698,1.7026,1.6881,1.6664,1.6531,1.6169,1.6072,1.6628,1.6718,1.699,1.7768,1.8239,1.8644,1.903,1.8969,0.0,0.0,0.0,0.0,0.0,0.0,0.0,0.0,0.0,1.7183,1.6917,1.6785,1.6718,1.6718,1.6441,1.6229,1.6097,1.5958,1.5571,1.4976,1.4439,0.0,0.0,0.0,0.0,0.9699,0.9103,0.8885,0.8885,0.8885,0.8885,0.8885,0.8885,0.8885,0.8885,0.8885,0.8885,0.8885,0.8885,0.8885,0.8885,0.8885,0.8885,0.8885,0.8885,0.8885,0.8885,0.8885,0.8885,0.8807,0.8554,0.8482,0.8401,0.8052,0.7988,0.7988,0.7988,0.7988,0.7988,0.7988,0.7988,0.7988,0.7988,0.7988,0.7988,0.7988,0.7988,0.7988,0.7988,0.7988,0.7988,0.7988,0.7988,0.7988,0.7988,0.7988,0.7988,0.7988,0.7988,0.7988,0.7988,0.7842,0.769,0.7587,0.7441,0.7294,0.7144,0.7042,0.6889,0.9176,0.9432,0.9968,1.098,1.1419,1.2256,1.449,1.5128,1.5579,1.661,1.6562,1.6351,1.638,1.6127,1.6036,1.6302,1.641,1.6821,1.7853,1.8203,1.8529,1.9018,1.8843,0.0,0.0,0.0,0.0,0.0,0.0,0.0,0.0,0.0,0.0,1.6646,1.6404,1.626,1.6223,1.6223,1.6109,1.5891,1.5891,1.5891,1.5891,1.4922,0.0,0.0,0.0,0.0,1.0621,0.9372,0.8885,0.8885,0.8885,0.8885,0.8885,0.8885,0.8885,0.8885,0.8885,0.8885,0.8885,0.8885,0.8885,0.8885,0.8885,0.8885,0.8885,0.8885,0.8885,0.8885,0.8885,0.8885,0.8811,0.8584,0.8499,0.8408,0.8133,0.8005,0.7988,0.7988,0.7988,0.7988,0.7988,0.7988,0.7988,0.7988,0.7988,0.7988,0.7988,0.7988,0.7988,0.7988,0.7988,0.7988,0.7988,0.7988,0.7988,0.7988,0.7988,0.7988,0.7988,0.7988,0.7988,0.7988,0.7988,0.7988,0.7988,0.7793,0.7646,0.7596,0.7391,0.7238,0.8971,0.9205,0.9531,0.9815,1.0739,1.168,1.2192,1.3049,1.4088,1.523,1.5163,1.5294,1.643,1.641,1.6314,1.6592,1.7008,1.7593,0.0,0.0,1.8734,1.9042,0.0,0.0,0.0,0.0,0.0,0.0,0.0,0.0,0.0,0.0,0.0,1.6356,1.6302,1.6175,1.5952,1.5946,1.5928,1.5891,1.5891,1.5891,1.5891,1.5725,1.5137,0.0,0.0,0.0,1.0621,0.9372,0.8885,0.8885,0.8885,0.8885,0.8885,0.8885,0.8885,0.8885,0.8885,0.8885,0.8885,0.8885,0.8885,0.8885,0.8885,0.8885,0.8885,0.8885,0.8885,0.8885,0.8885,0.8885,0.8841,0.8716,0.8577,0.8435,0.8272,0.8133,0.7988,0.7988,0.7988,0.7988,0.7988,0.7988,0.7988,0.7988,0.7988,0.7988,0.7988,0.7988,0.7988,0.7988,0.7988,0.7988,0.7988,0.7988,0.7988,0.7988,0.7988,0.7988,0.7988,0.7988,0.7988,0.7988,0.7988,0.7988,0.7988,0.7942,0.7842,0.7596,0.7547,0.7391,0.8713,0.8913,0.9161,0.9228,0.989,1.0786,1.1431,1.2026,1.2749,1.3808,1.4401,1.4832,1.5242,1.5889,1.6423,1.6845,1.7231,1.766,1.8173,1.8245,1.8348,0.0,0.0,0.0,0.0,0.0,0.0,0.0,0.0,0.0,0.0,0.0,0.0,0.0,1.6066,1.6012,1.5891,1.5891,1.5891,1.5891,1.5891,1.5891,1.5891,1.5891,1.5618,0.0,0.0,1.2694,1.1546,1.0351,0.9482,0.8885,0.8885,0.8885,0.8885,0.8885,0.8885,0.8885,0.8885,0.8885,0.8885,0.8885,0.8885,0.8885,0.8885,0.8885,0.8885,0.8885,0.8885,0.8885,0.8885,0.8885,0.8844,0.8747,0.8594,0.8442,0.835,0.815,0.7988,0.7988,0.7988,0.7988,0.7988,0.7988,0.7988,0.7988,0.7988,0.7988,0.7988,0.7988,0.7988,0.7988,0.7988,0.7988,0.7988,0.7988,0.7988,0.7988,0.7988,0.7988,0.7988,0.7988,0.7988,0.7988,0.7988,0.7988,0.7988,0.7988,0.7942,0.7793,0.7793,0.7743,0.8557,0.8706,0.8821,0.8842,0.9279,0.9936,1.0858,1.1086,1.1442,1.2414,1.3303,1.3912,1.3897,1.5071,1.6304,1.7125,1.7443,1.7666,1.7937,1.7968,0.0,0.0,0.0,0.0,0.0,0.0,0.0,0.0,0.0,0.0,0.0,0.0,0.0,0.0,1.5998,1.5998,1.5998,1.5998,1.5945,1.5891,1.5891,1.5891,1.5891,1.5891,1.5891,1.5838,1.4702,1.3511,1.2304,1.1164,0.997,0.8885,0.8885,0.8885,0.8885,0.8885,0.8885,0.8885,0.8885,0.8885,0.8885,0.8885,0.8885,0.8885,0.8885,0.8885,0.8885,0.8885,0.8885,0.8885,0.8885,0.8885,0.8844,0.8747,0.8594,0.8442,0.835,0.815,0.7988,0.7988,0.7988,0.7988,0.7988,0.7988,0.7988,0.7988,0.7988,0.7988,0.7988,0.7988,0.7988,0.7988,0.7988,0.7988,0.7988,0.7988,0.7988,0.7988,0.7988,0.7988,0.7988,0.7988,0.7988,0.7988,0.7988,0.7988,0.7988,0.7988,0.7988,0.7988,0.7988,0.7988,0.8659,0.871,0.8693,0.855,0.8967,0.9504,0.9696,0.9624,0.9905,1.1188,1.1384,1.1721,1.2766,1.426,1.5851,1.7554,1.7835,1.7943,1.8221,0.0,0.0,0.0,0.0,0.0,0.0,0.0,0.0,0.0,0.0,0.0,0.0,0.0,0.0,0.0,0.0,1.6271,1.6271,1.6271,1.6164,1.5891,1.5891,1.5891,1.5891,1.5891,1.5891,1.5838,1.4702,1.3511,1.2304,1.1164,0.997,0.8885,0.8885,0.8885,0.8885,0.8885,0.8885,0.8885,0.8885,0.8885,0.8885,0.8885,0.8885,0.8885,0.8885,0.8885,0.8885,0.8885,0.8885,0.8885,0.8885,0.8885,0.8844,0.8747,0.8594,0.8442,0.835,0.815,0.7988,0.7988,0.7988,0.7988,0.7988,0.7988,0.7988,0.7988,0.7988,0.7988,0.7988,0.7988,0.7988,0.7988,0.7988,0.7988,0.7988,0.7988,0.7988,0.7988,0.7988,0.7988,0.7988,0.7988,0.7988,0.7988,0.7988,0.7988,0.7988,0.7988,0.7988,0.7988,0.7988,0.7988,0.8577,0.8774,0.8927,0.8686,0.9005,0.9371,0.9334,0.9429,0.9655,1.0121,1.0781,1.1608,1.2887,1.365,1.4567,1.6191,1.6484,1.6762,0.0,0.0,0.0,0.0,0.0,0.0,0.0,0.0,0.0,0.0,0.0,0.0,0.0,0.0,0.0,0.0,0.0,1.653,1.653,1.6377,1.6271,1.6164,1.5998,1.5891,1.5891,1.5891,1.5891,1.5891,1.5458,1.4595,1.3452,1.2254,1.1055,0.997,0.921,0.8885,0.8885,0.8885,0.8885,0.8885,0.8885,0.8885,0.8885,0.8885,0.8885,0.8885,0.8885,0.8885,0.8885,0.8885,0.8885,0.8885,0.8885,0.8885,0.8844,0.8747,0.8594,0.8442,0.835,0.815,0.7988,0.7988,0.7988,0.7988,0.7988,0.7988,0.7988,0.7988,0.7988,0.7988,0.7988,0.7988,0.7988,0.7988,0.7988,0.7988,0.7988,0.7988,0.7988,0.7988,0.7988,0.7988,0.7988,0.7988,0.7988,0.7988,0.7988,0.7988,0.7988,0.7988,0.7988,0.7988,0.7988,0.7988,0.8509,0.874,0.8964,0.876,0.9011,0.9354,0.9296,0.9388,0.9564,0.9656,1.0224,1.1201,1.2559,1.2754,1.3248,0.0,1.5332,0.0,0.0,0.0,0.0,0.0,0.0,0.0,0.0,0.0,0.0,0.0,0.0,0.0,0.0,0.0,0.0,0.0,0.0,0.0,1.6842,1.6583,1.6377,1.6324,1.6051,1.5891,1.5891,1.5891,1.5891,1.5891,1.5891,1.5244,1.411,1.2906,1.1492,1.0076,0.921,0.8885,0.8885,0.8885,0.8885,0.8885,0.8885,0.8885,0.8885,0.8885,0.8885,0.8885,0.8885,0.8885,0.8885,0.8885,0.8885,0.8885,0.8885,0.8885,0.8834,0.8686,0.8557,0.8428,0.8238,0.8113,0.7988,0.7988,0.7988,0.7988,0.7988,0.7988,0.7988,0.7988,0.7988,0.7988,0.7988,0.7988,0.7988,0.7988,0.7988,0.7988,0.7988,0.7988,0.7988,0.7988,0.7988,0.7988,0.7988,0.7988,0.7988,0.7988,0.7988,0.7988,0.7988,0.7988,0.7988,0.7988,0.7988,0.7988,0.8482,0.8598,0.8713,0.8713,0.8937,0.9251,0.9347,0.9384,0.9466,0.9761,0.971,1.001,1.1422,1.1546,0.0,1.3448,0.0,0.0,0.0,0.0,0.0,0.0,0.0,0.0,0.0,0.0,0.0,0.0,0.0,0.0,0.0,0.0,0.0,0.0,0.0,0.0,1.7179,1.6849,1.6577,1.6324,1.6051,1.5891,1.5891,1.5891,1.5891,1.5891,1.5891,1.5244,1.4116,1.2906,1.1004,0.8937,0.8885,0.8885,0.894,0.8885,0.8885,0.8885,0.8885,0.8885,0.8885,0.8885,0.8885,0.8885,0.8885,0.8885,0.8885,0.8885,0.8885,0.8885,0.8885,0.8885,0.8807,0.8554,0.8482,0.8401,0.8052,0.7988,0.7988,0.7988,0.7988,0.7988,0.7988,0.7988,0.7988,0.7988,0.7988,0.7988,0.7988,0.7988,0.7988,0.7988,0.7988,0.7988,0.7988,0.7988,0.7988,0.7988,0.7988,0.7988,0.7988,0.7988,0.7988,0.7988,0.7988,0.7988,0.7988,0.7988,0.7988,0.7988,0.7988,0.7988,0.8672,0.8828,0.9077,0.9077,0.9224,0.9354,0.9507,0.954,0.9595,0.9781,0.9788,0.9892,1.0297,1.0325,0.0,0.0,0.0,0.0,0.0,0.0,0.0,0.0,0.0,0.0,0.0,0.0,0.0,0.0,0.0,0.0,0.0,0.0,0.0,0.0,0.0,0.0,1.7483,1.7219,1.7014,1.6908,1.6636,1.6258,1.5891,1.5891,1.5891,1.5891,1.5891,1.5731,1.5244,1.3231,1.1982,1.1223,0.9537,0.9427,1.0076,0.921,0.8885,0.8885,0.8885,0.8885,0.8885,0.8885,0.8885,0.8885,0.8885,0.8885,0.8885,0.8885,0.8885,0.8885,0.8885,0.8885,0.8807,0.8554,0.8482,0.8401,0.8052,0.7988,0.7988,0.7988,0.7988,0.7988,0.7988,0.7988,0.7988,0.7988,0.7988,0.7988,0.7988,0.7988,0.7988,0.7988,0.7988,0.7988,0.7988,0.7988,0.7988,0.7988,0.7988,0.7988,0.7988,0.7988,0.7988,0.7988,0.7988,0.7988,0.7988,0.7988,0.7988,0.7988,0.7988,0.7988,0.872,0.8886,0.9096,0.9272,0.9313,0.9435,0.9646,0.9693,0.97,0.973,0.969,0.9646,0.9646,0.9595,0.0,0.0,0.0,0.0,0.0,0.0,0.0,0.0,0.0,0.0,0.0,0.0,0.0,0.0,0.0,0.0,0.0,0.0,0.0,0.0,0.0,0.0,1.7582,1.7331,1.7179,1.7179,1.6842,1.6471,1.6051,1.6051,1.5998,1.5891,1.5891,1.5624,1.5137,1.3722,1.2852,1.22,1.0351,1.0076,1.0562,0.932,0.8885,0.8885,0.8885,0.8885,0.8885,0.8885,0.8885,0.8885,0.8885,0.8885,0.8885,0.8885,0.8885,0.8885,0.8885,0.8885,0.8821,0.8632,0.8574,0.8506,0.8269,0.8214,0.8197,0.8143,0.8133,0.8113,0.8002,0.7988,0.7988,0.7988,0.7988,0.7988,0.7988,0.7988,0.7988,0.7988,0.7988,0.7988,0.7988,0.7988,0.7988,0.7988,0.7988,0.7988,0.7988,0.7988,0.7988,0.7988,0.7988,0.7988,0.7988,0.7988,0.7988,0.7988,0.7988,0.7958,0.8655,0.8821,0.9025,0.931,0.9401,0.949,0.9744,0.9802,0.9764,0.9635,0.949,0.9381,0.9381,0.9323,0.0,0.0,0.0,0.0,0.0,0.0,0.0,0.0,0.0,0.0,0.0,0.0,0.0,0.0,0.0,0.0,0.0,0.0,0.0,0.0,0.0,0.0,1.7582,1.7384,1.7226,0.0,1.6948,1.663,1.6377,1.6324,1.6164,1.5891,1.5891,1.5298,1.4331,1.4223,1.3619,1.2575,1.1328,1.0836,1.0726,0.9482,0.8992,0.8885,0.8885,0.8885,0.8885,0.8885,0.8885,0.8885,0.8885,0.8885,0.8885,0.8885,0.8885,0.8885,0.8885,0.8885,0.8848,0.8764,0.872,0.8665,0.8499,0.8462,0.8421,0.8279,0.8248,0.8204,0.8015,0.7988,0.7988,0.7988,0.7988,0.7988,0.7988,0.7988,0.7988,0.7988,0.7988,0.7988,0.7988,0.7988,0.7988,0.7988,0.7988,0.7988,0.7988,0.7988,0.7988,0.7988,0.7988,0.7988,0.7988,0.7988,0.7988,0.7988,0.7988,0.7917,0.8554,0.8815,0.915,0.9337,0.9554,0.9713,0.9666,0.9656,0.9646,0.9615,0.949,0.9381,0.9381,0.9354,0.0,0.0,0.0,0.0,0.0,0.0,0.0,0.0,0.0,0.0,0.0,0.0,0.0,0.0,0.0,0.0,0.0,0.0,0.0,0.0,0.0,1.7582,1.7582,1.7529,1.7529,0.0,1.7424,1.7272,1.6967,1.6537,1.6164,1.5891,1.5891,1.5779,1.5458,1.4546,1.4595,1.4965,1.2847,1.2037,1.1869,1.0726,0.9695,0.8885,0.8885,0.8885,0.8885,0.8885,0.8885,0.8885,0.8885,0.8885,0.8885,0.8885,0.8885,0.8885,0.8885,0.8885,0.8875,0.8841,0.8798,0.8638,0.8374,0.8368,0.8269,0.8119,0.8089,0.8029,0.7995,0.7988,0.7988,0.7988,0.7988,0.7988,0.7988,0.7988,0.7988,0.7988,0.7988,0.7988,0.7988,0.7988,0.7988,0.7988,0.7988,0.7988,0.7988,0.7988,0.7988,0.7988,0.7988,0.7988,0.7988,0.7988,0.7988,0.7988,0.7988,0.7971,0.8574,0.876,0.9011,0.9306,0.9551,0.97,0.9629,0.9496,0.9391,0.9391,0.9327,0.9252,0.9181,0.0,0.0,0.0,0.0,0.0,0.0,0.0,0.0,0.0,0.0,0.0,0.0,0.0,0.0,0.0,0.0,0.0,0.0,0.0,0.0,0.0,1.7582,1.7582,1.7582,1.7582,1.7582,1.7582,1.7582,1.7378,1.6955,1.6483,1.6164,1.5891,1.5891,1.5891,1.5832,1.5244,1.5351,1.5725,1.3938,1.2911,1.225,1.1109,0.9915,0.8885,0.8885,0.8885,0.8885,0.8885,0.8885,0.8885,0.8885,0.8885,0.8885,0.8885,0.8885,0.8885,0.8885,0.8885,0.8885,0.8885,0.8821,0.8777,0.8625,0.8533,0.8435,0.8282,0.8197,0.8126,0.8002,0.7988,0.7988,0.7988,0.7988,0.7988,0.7988,0.8432,0.8581,0.8038,0.8482,0.8577,0.8038,0.7988,0.7988,0.7988,0.7988,0.7988,0.7988,0.7988,0.7988,0.7988,0.7988,0.7988,0.7988,0.7988,0.7988,0.7988,0.7988,0.7951,0.8567,0.8689,0.8852,0.9276,0.9476,0.9564,0.9537,0.9337,0.9204,0.9176,0.9173,0.9079,0.0,0.0,0.0,0.0,0.0,0.0,0.0,0.0,0.0,0.0,0.0,0.0,0.0,0.0,0.0,0.0,0.0,0.0,0.0,0.0,1.7582,1.7582,1.7582,1.7582,1.7582,1.7582,1.7582,1.7582,1.7582,1.7265,1.6677,1.6477,1.6211,1.5891,1.5891,1.5891,1.5891,1.5891,1.5891,1.5838,1.4869,1.3781,1.258,1.1433,1.0241,0.921,0.921,0.9103,0.8937,0.9154,0.9047,0.8885,0.8885,0.8885,0.8885,0.8885,0.8885,0.8885,0.8885,0.8885,0.8885,0.8885,0.8885,0.8875,0.8851,0.8777,0.8625,0.8476,0.833,0.8191,0.8012,0.7988,0.7988,0.7988,0.8137,0.8283,0.8283,0.9217,0.9558,0.8627,0.9167,0.9266,0.8333,0.8088,0.7988,0.7988,0.7988,0.7988,0.7988,0.7988,0.7988,0.7988,0.7988,0.7988,0.7988,0.7988,0.7988,0.7988,0.7988,0.7921,0.8371,0.8615,0.8984,0.9303,0.9398,0.9378,0.9303,0.9241,0.9173,0.0,0.8967,0.0,0.0,0.0,0.0,0.0,0.0,0.0,0.0,0.0,0.0,0.0,0.0,0.0,0.0,0.0,0.0,0.0,0.0,0.0,0.0,1.7582,1.7582,1.7582,1.7582,1.7582,1.7582,1.7582,1.7582,1.7582,1.7582,1.7265,1.6677,1.6677,1.6365,1.5891,1.5891,1.5891,1.5891,1.5891,1.5891,1.5885,1.5725,1.4976,1.3786,1.2635,1.1437,1.0457,1.0457,0.9754,0.9047,1.0131,0.975,0.8885,0.8885,0.8885,0.8885,0.8885,0.8885,0.8885,0.8885,0.8885,0.8885,0.8885,0.8885,0.8848,0.8771,0.8621,0.8469,0.8378,0.8174,0.8015,0.7992,0.7988,0.7988,0.7988,0.8775,0.9361,0.9361,1.0342,1.093,1.0779,1.0047,0.9558,0.941,0.8531,0.7988,0.7988,0.7988,0.7988,0.7988,0.7988,0.7988,0.7988,0.7988,0.7988,0.7988,0.7988,0.7988,0.7988,0.7988,0.7978,0.8343,0.8659,0.8935,0.9201,0.9309,0.9292,0.9394,0.937,0.9349,0.9389,0.0,0.0,0.0,0.0,0.0,0.0,0.0,0.0,0.0,0.0,0.0,0.0,0.0,0.0,0.0,0.0,0.0,0.0,0.0,0.0,1.7582,1.7582,1.7582,1.7582,1.7582,0.0,1.7582,1.7582,1.7582,1.7582,1.7582,1.7378,1.6955,1.6789,1.6418,1.5891,1.5891,1.5891,1.5891,1.5891,1.5891,1.5891,1.5891,1.519,1.4056,1.2852,1.2087,1.1546,1.0945,1.0347,0.997,1.0511,0.986,0.8885,0.8885,0.9372,0.9754,0.9103,0.9372,0.975,0.9103,0.8885,0.9047,0.975,0.9372,0.9247,1.0524,0.9598,0.8414,0.8184,0.8157,0.8341,0.879,0.8874,0.9118,0.9702,1.0194,1.0489,1.0489,1.1414,1.1804,1.1268,1.1268,1.1121,1.0534,1.0047,0.9801,0.9801,0.9801,0.9801,0.9801,0.9801,0.9801,0.9801,0.8627,0.7988,0.7988,0.7988,0.7988,0.7988,0.7988,0.7988,0.8299,0.8567,0.8811,0.8994,0.9181,0.9321,0.949,0.0,0.9544,0.0,0.0,0.0,0.0,0.0,0.0,0.0,0.0,0.0,0.0,0.0,0.0,0.0,0.0,0.0,0.0,0.0,0.0,0.0,0.0,0.0,1.7582,1.7582,1.7582,1.7582,1.7582,1.7582,1.7582,1.7582,1.7582,1.7582,1.7582,1.7483,1.7179,1.6842,1.6418,1.5998,1.5945,1.5891,1.5891,1.5891,1.5891,1.5891,1.5891,1.5405,1.4487,1.329,1.2852,1.2743,1.1873,1.1383,1.1164,1.1492,1.0785,0.9809,0.9809,1.0406,1.0945,1.0025,1.046,1.0945,1.0025,0.9809,1.0025,1.0945,1.046,1.0178,1.1593,1.0572,0.9279,0.8991,0.9006,0.9222,0.9875,0.9998,1.0293,1.1072,1.1414,1.156,1.156,1.2484,1.2829,1.2052,1.2436,1.2387,1.1658,1.1365,1.1219,1.1219,1.1219,1.1219,1.1219,1.1219,1.1219,1.1219,0.9608,0.8676,0.8382,0.8382,0.8283,0.7988,0.7988,0.7988,0.7968,0.818,0.8374,0.8662,0.9061,0.9393,0.9389,0.0,0.9761,0.0,0.0,0.0,0.0,0.0,0.0,0.0,0.0,0.0,0.0,0.0,0.0,0.0,0.0,0.0,0.0,0.0,0.0,0.0,0.0,0.0,1.7582,1.7582,1.7582,1.7582,1.7582,1.7582,1.7582,1.7582,1.7582,1.7582,1.7582,1.7483,1.7179,1.6842,1.653,1.6271,1.5998,1.5891,1.5891,1.5891,1.5891,1.5891,1.5891,1.5838,1.5678,1.4546,1.411,1.411,1.4056,1.329,1.2526,1.3673,1.3181,1.22,1.22,1.225,1.2304,1.2254,1.225,1.2304,1.2254,1.22,1.2254,1.2304,1.225,1.1932,1.084,1.1116,1.1574,1.1455,1.1213,1.1037,1.1126,1.1121,1.1126,1.117,1.1999,1.263,1.263,1.3565,1.4202,1.4148,1.327,1.2684,1.263,1.1755,1.1219,1.1219,1.1219,1.1219,1.1219,1.1219,1.1219,1.1219,1.1072,1.0538,0.9509,0.9509,0.897,0.7988,0.7988,0.7988,0.8346,0.835,0.8419,0.8577,0.885,0.9151,0.9468,0.9847,1.0143,0.0,0.0,0.0,0.0,0.0,0.0,0.0,0.0,0.0,0.0,0.0,0.0,0.0,0.0,0.0,0.0,0.0,0.0,0.0,0.0,0.0,1.7582,1.7582,1.7582,1.7582,1.7582,1.7582,1.7582,1.7582,1.7582,1.7582,1.7582,1.7536,1.743,1.6948,1.6736,1.6855,1.6158,1.5891,1.5891,1.5891,1.5891,1.5891,1.5891,1.5891,1.5779,1.46,1.4648,1.519,1.4439,1.3894,1.3619,1.4056,1.3398,1.2417,1.2417,1.296,1.3398,1.2635,1.2965,1.3398,1.258,1.2417,1.2417,1.2417,1.3555,1.4293,1.314,1.2361,1.1803,1.1423,1.1331,1.1529,1.2073,1.2145,1.2387,1.3076,1.3511,1.3709,1.3709,1.4052,1.4298,1.4298,1.3956,1.3806,1.3956,1.3661,1.3516,1.3709,1.3709,1.3709,1.3709,1.3709,1.3709,1.3709,1.3709,1.2684,1.0632,1.0632,1.044,1.0047,1.0047,1.0047,0.8408,0.835,0.8423,0.8643,0.8823,0.9109,0.9538,0.0,1.0317,0.0,0.0,0.0,0.0,0.0,0.0,0.0,0.0,0.0,0.0,0.0,0.0,0.0,0.0,0.0,0.0,0.0,0.0,0.0,0.0,0.0,1.7582,1.7582,1.7582,1.7582,1.7582,1.7582,1.7582,1.7582,1.7582,1.7582,1.7582,1.7582,1.7582,1.7107,1.7008,1.7179,1.6477,1.6099,1.6051,1.5945,1.5891,1.5891,1.5891,1.5891,1.5838,1.503,1.5244,1.5779,1.503,1.4761,1.4761,1.4761,1.4213,1.3555,1.3555,1.4153,1.4595,1.3776,1.4159,1.4595,1.3771,1.3555,1.3555,1.3555,1.475,1.5624,1.4713,1.3751,1.292,1.2568,1.2425,1.2571,1.3152,1.3221,1.3463,1.4202,1.4298,1.4298,1.4298,1.4298,1.4346,1.4442,1.4442,1.4544,1.479,1.4838,1.4885,1.5083,1.5083,1.5083,1.5083,1.5083,1.5083,1.5083,1.5083,1.425,1.249,1.2145,1.1764,1.1303,1.1211,1.1129,0.0,0.0,0.0,0.869,0.0,0.0,0.9593,0.0,0.0,0.0,0.0,0.0,0.0,0.0,0.0,0.0,0.0,0.0,0.0,0.0,0.0,0.0,0.0,0.0,0.0,0.0,0.0,0.0,0.0,1.7582,1.7582,1.7582,1.7582,1.7582,1.7582,1.7582,1.7582,1.7582,1.7582,1.7582,1.7582,1.7582,1.7582,1.7331,1.7179,1.7179,1.6842,1.6577,1.6324,1.6051,1.5891,1.5891,1.5891,1.5891,1.5891,1.5891,1.5891,1.5891,1.5891,1.5891,1.5891,1.5891,1.5891,1.5891,1.5891,1.5891,1.5891,1.5891,1.5891,1.5891,1.5891,1.5891,1.5891,1.5891,1.5891,1.5753,1.5234,1.5113,1.5107,1.5089,1.466,1.4298,1.4298,1.4298,1.4298,1.4298,1.4298,1.4298,1.4298,1.4298,1.4394,1.4688,1.4694,1.4838,1.5083,1.5131,1.5131,1.5131,1.5131,1.5131,1.5131,1.5131,1.5131,1.5131,1.5131,1.5131,1.5131,1.4052,1.2896,1.1606,1.139,1.1093,0.8563,0.0,0.0,0.0,0.0,0.0,0.0,0.0,0.0,0.0,0.0,0.0,0.0,0.0,0.0,0.0,0.0,0.0,0.0,0.0,0.0,0.0,0.0,0.0,0.0,0.0,0.0,0.0,1.7582,1.7582,1.7582,1.7582,1.7582,1.7582,1.7582,1.7582,1.7582,1.7582,1.7582,1.7582,1.7582,1.7582,1.7582,1.7331,1.7331,1.7477,1.6948,1.6789,1.6914,1.6377,1.6057,1.5891,1.5891,1.5891,1.5891,1.5891,1.5998,1.6164,1.6164,1.6164,1.6164,1.6164,1.6051,1.5945,1.6105,1.6051,1.5945,1.6105,1.6051,1.5891,1.5891,1.5891,1.5891,1.5891,1.5891,1.5801,1.5463,1.524,1.4992,1.46,1.4401,1.4298,1.4298,1.4298,1.4298,1.4298,1.4298,1.4298,1.4298,1.4496,1.464,1.4688,1.4885,1.5077,1.5356,1.5404,1.5452,1.5594,1.5594,1.5594,1.5594,1.5594,1.5594,1.5594,1.5594,1.5594,1.5594,1.4975,1.4453,1.4082,1.404,1.3809,0.8755,0.8677,0.8633,0.8601,0.0,0.0,0.0,0.9284,0.0,0.0,0.0,0.0,0.0,0.0,0.0,0.0,0.0,0.0,0.0,0.0,0.0,0.0,0.0,0.0,0.0,0.0,0.0,0.0,1.7582,1.7582,1.7582,1.7468,1.7454,1.7454,1.7454,1.7454,1.7454,1.7522,1.7582,1.7582,1.7582,1.7582,1.7582,1.743,1.7364,1.7402,1.7082,1.6866,1.6821,1.6458,1.6271,1.6205,1.6105,1.6051,1.6051,1.5945,1.6051,1.6324,1.6324,1.6371,1.6477,1.6477,1.6264,1.6105,1.6371,1.6264,1.6105,1.6371,1.6264,1.6105,1.6205,1.6072,1.594,1.6039,1.6005,1.5799,1.5426,1.5198,1.4991,1.4533,1.4377,1.4298,1.4298,1.4298,1.4298,1.4298,1.4394,1.4496,1.4496,1.4688,1.4933,1.5022,1.5166,1.5356,1.5588,1.5635,1.5683,1.5778,1.5784,1.5784,1.5784,1.5784,1.5784,1.5784,1.5784,1.5784,1.5784,1.5553,1.5305,1.5094,1.5094,1.4903,0.8861,0.8755,0.8731,0.882,0.0,0.0,0.9245,0.9194,0.9181,0.0,0.0,0.0,0.0,0.0,0.0,0.0,0.0,0.0,0.0,0.0,0.0,0.0,0.0,0.0,0.0,0.0,1.7582,1.7582,1.7582,1.7582,1.7582,1.736,1.7199,1.7199,1.7199,1.7199,1.7199,1.7494,1.7582,1.7582,1.7582,1.7562,1.7535,1.7535,1.7427,1.7152,1.7152,1.6852,1.6319,1.6319,1.6458,1.6588,1.6337,1.6249,1.6227,1.5956,1.608,1.6324,1.6324,1.653,1.6736,1.6736,1.6577,1.6371,1.6683,1.6583,1.6371,1.6624,1.653,1.6365,1.6592,1.6298,1.6019,1.6233,1.6088,1.5783,1.5251,1.514,1.5091,1.4826,1.4516,1.4346,1.4394,1.4394,1.4394,1.4394,1.4592,1.4742,1.4742,1.4981,1.522,1.5493,1.554,1.5588,1.5784,1.5784,1.5784,1.5784,1.5784,1.5784,1.5784,1.5784,1.5784,1.5784,1.5784,1.5784,1.5784,1.5784,1.5604,1.5166,1.5113,1.5001,0.912,0.912,0.9224,0.0,0.0,0.0,0.8966,0.9015,0.9076,0.0,0.0,0.0,0.0,0.0,0.0,0.0,0.0,0.0,0.0,0.0,0.0,0.0,0.0,0.0,0.0,0.0,1.7582,1.7582,1.7582,1.7582,1.7582,1.736,1.7199,1.7199,1.7199,1.7199,1.7199,1.7494,1.7582,1.7582,1.7582,1.7514,1.7286,1.7286,1.7125,1.6794,1.6794,1.671,1.6607,1.6607,1.6428,1.6018,1.5757,1.5797,1.5949,1.5682,1.602,1.663,1.663,1.6849,1.712,1.712,1.6902,1.6683,1.7008,1.6902,1.6624,1.6677,1.6677,1.6573,1.6404,1.6309,1.6163,1.6037,1.5948,1.5827,1.5504,1.5441,1.5329,1.5059,1.4827,1.4688,1.4885,1.4933,1.4933,1.4933,1.4987,1.5035,1.5035,1.5261,1.5452,1.5493,1.5635,1.5778,1.5784,1.5784,1.5784,1.5784,1.5784,1.5784,1.5784,1.5784,1.5784,1.5784,1.5784,1.5784,1.5784,1.5784,1.5751,1.5651,1.5651,1.5524,0.0,0.0,0.0,0.9879,0.0,0.0,0.0,0.0,0.0,0.0,0.0,0.0,0.0,0.0,0.0,0.0,0.0,0.0,0.0,0.0,0.0,0.0,0.0,0.0,0.0,0.0,1.7582,1.7582,1.7582,1.7582,1.7582,1.736,1.7199,1.7199,1.7199,1.7199,1.7199,1.7494,1.7582,1.7582,1.7582,1.7481,1.7199,1.7199,1.6958,1.6486,1.6486,1.6406,1.6266,1.6266,1.6071,1.5859,1.5902,1.5999,1.6094,1.5969,1.6256,1.6709,1.6903,1.7166,1.7378,1.7378,1.7219,1.7008,1.7325,1.7265,1.7153,1.7153,1.7054,1.6975,1.6931,1.6633,1.6285,1.6288,1.609,1.5794,1.5554,1.5522,1.5483,1.5341,1.5166,1.5118,1.5083,1.5083,1.5083,1.5083,1.522,1.5315,1.5315,1.5499,1.5635,1.5635,1.573,1.5784,1.5784,1.5784,1.5784,1.5784,1.5784,1.5784,1.5784,1.5784,1.5784,1.5784,1.5784,1.5784,1.5784,1.5784,1.5784,1.5784,1.5784,1.5752,0.0,0.0,0.0,0.0,0.0,0.949,0.0,0.0,0.0,0.0,0.0,0.0,0.0,0.0,0.0,0.0,0.0,0.0,0.0,0.0,0.0,0.0,0.0,0.0,0.0,0.0,1.7382,1.7488,1.7448,1.7462,1.7575,1.7306,1.7139,1.7199,1.7146,1.7139,1.7199,1.7494,1.7555,1.7502,1.7502,1.7373,1.7032,1.7032,1.6737,1.6186,1.6186,1.6052,1.5784,1.5784,1.5784,1.5831,1.6065,1.6188,1.6216,1.6183,1.635,1.6645,1.6932,1.7213,1.7415,1.7415,1.7305,1.7246,1.7449,1.7542,1.7582,1.7582,1.7391,1.7239,1.7383,1.6874,1.6321,1.6504,1.6124,1.5778,1.5588,1.554,1.554,1.554,1.554,1.5499,1.5267,1.522,1.522,1.522,1.5404,1.554,1.554,1.5683,1.5784,1.5784,1.5784,1.5784,1.5784,1.5784,1.5784,1.5784,1.5784,1.5784,1.5784,1.5784,1.5784,1.5784,1.5784,1.5784,1.5784,1.5784,1.5784,1.5784,1.5784,1.5784,0.0,0.0,0.0,0.0,1.2224,0.0,0.0,0.0,0.0,0.0,0.0,0.0,0.0,0.0,0.0,0.0,0.0,0.0,0.0,0.0,0.0,0.0,0.0,0.0,0.0,0.0,0.0,1.7213,1.6954,1.7034,1.7555,1.7054,1.6874,1.7192,1.6894,1.6881,1.7199,1.7494,1.7507,1.7253,1.7253,1.6958,1.6422,1.6422,1.6192,1.5879,1.5879,1.5858,1.5784,1.5784,1.5784,1.5791,1.566,1.5761,1.5904,1.5678,1.59,1.6377,1.641,1.6562,1.6807,1.6807,1.6987,1.7201,1.7253,1.7427,1.7582,1.7582,1.7402,1.7141,1.6874,1.6567,1.6211,1.5992,1.5831,1.5778,1.5784,1.5784,1.5784,1.5784,1.5784,1.5784,1.5737,1.5737,1.5737,1.5737,1.5737,1.5784,1.5784,1.5778,1.5784,1.5784,1.5784,1.5784,1.5784,1.5784,1.5784,1.5784,1.5784,1.5784,1.5784,1.5784,1.5784,1.5784,1.5784,1.5784,1.5784,1.5784,1.5784,1.5784,1.5784,1.5784,0.0,0.0,0.0,0.0,0.0,0.0,1.2144,0.0,1.1124,0.0,0.0,0.0,0.0,0.0,0.0,0.0,0.0,0.0,0.0,0.0,0.0,0.0,0.0,0.0,0.0,0.0,0.0,0.0,0.0,1.6714,1.7353,1.7146,1.7152,1.744,1.7281,1.7275,1.7454,1.7522,1.7494,1.7199,1.7199,1.6891,1.6321,1.6321,1.6112,1.5784,1.5784,1.5784,1.5784,1.5784,1.5784,1.5778,1.573,1.5721,1.5853,1.5921,1.6108,1.6338,1.6504,1.6613,1.6707,1.6707,1.6794,1.6894,1.6894,1.6974,1.7074,1.7074,1.6987,1.6867,1.674,1.6486,1.6239,1.6119,1.5952,1.5784,1.5784,1.5784,1.5784,1.5784,1.5784,1.5784,1.5784,1.5784,1.5784,1.5784,1.5784,1.5784,1.5784,1.5784,1.5784,1.5784,1.5784,1.5784,1.5784,1.5784,1.5784,1.5784,1.5784,1.5784,1.5784,1.5784,1.5784,1.5784,1.5784,1.5784,1.5784,1.5784,1.5784,1.5784,1.5784,1.5784,1.5245,0.0,0.0,0.0,0.0,0.0,0.0,0.0,0.0,0.0,0.0,0.0,0.0,0.0,0.0,0.0,0.0,0.0,0.0,0.0,0.0,0.0,0.0,0.0,0.0,0.0,0.0,0.0,0.0,0.0,1.7159,1.7125,1.7253,1.7569,1.7508,1.7554,1.7582,1.7554,1.7373,1.7079,1.6998,1.669,1.6152,1.6152,1.6032,1.5784,1.5784,1.5784,1.5784,1.5784,1.5784,1.5784,1.5784,1.5784,1.5804,1.6072,1.6152,1.6179,1.6393,1.6466,1.6466,1.6466,1.652,1.6587,1.6587,1.6647,1.6707,1.6707,1.6647,1.6587,1.6587,1.6366,1.6152,1.6152,1.5985,1.5784,1.5784,1.5784,1.5784,1.5784,1.5784,1.5784,1.5784,1.5784,1.5784,1.5784,1.5784,1.5784,1.5784,1.5784,1.5784,1.5784,1.5784,1.5784,1.5784,1.5784,1.5784,1.5784,1.5784,1.5784,1.5784,1.5784,1.5784,1.5784,1.5784,1.5784,1.5784,1.5784,1.5784,1.5784,1.5784,1.5784,0.0,0.0,0.0,1.6487,0.0,0.0,0.0,0.0,1.2711,0.0,0.0,0.0,0.0,0.0,1.4032,1.4855,0.0,0.0,0.0,0.0,0.0,0.0,0.0,0.0,0.0,0.0,0.0,0.0,0.0,0.0,1.7139,1.6874,1.6981,1.7562,1.736,1.7347,1.7582,1.7353,1.7065,1.6714,1.6433,1.6139,1.5798,1.5798,1.5791,1.5784,1.5784,1.5784,1.5784,1.5784,1.5784,1.5784,1.5784,1.5784,1.5784,1.5791,1.5798,1.5798,1.5804,1.5811,1.5811,1.5811,1.6052,1.6286,1.6286,1.648,1.6707,1.6707,1.6506,1.6286,1.6286,1.6066,1.5798,1.5798,1.5791,1.5784,1.5784,1.5784,1.5784,1.5784,1.5784,1.5784,1.5784,1.5784,1.5784,1.5784,1.5784,1.5784,1.5784,1.5784,1.5784,1.5784,1.5784,1.5784,1.5784,1.5784,1.5784,1.5784,1.5784,1.5784,1.5784,1.5784,1.5784,1.5784,1.5784,1.5784,1.5784,1.5784,1.5784,1.5784,1.5784,1.5784,0.0,0.0,1.7003,1.7043,0.0,0.0,0.0,0.0,0.0,0.0,0.0,0.0,0.0,0.0,1.4069,1.4868,1.471,0.0,0.0,0.0,0.0,0.0,0.0,0.0,0.0,0.0,0.0,0.0,0.0,0.0,0.0,1.666,1.6887,1.7333,1.744,1.7534,1.7582,1.7347,1.7052,1.67,1.6413,1.6119,1.5784,1.5784,1.5784,1.5784,1.5784,1.5784,1.5784,1.5784,1.5784,1.5784,1.5784,1.5784,1.5784,1.5784,1.5784,1.5784,1.5784,1.5784,1.5784,1.5784,1.5899,1.5979,1.5979,1.6046,1.6077,1.6077,1.6059,1.5979,1.5979,1.5905,1.5784,1.5784,1.5784,1.5784,1.5784,1.5784,1.5784,1.5784,1.5784,1.5784,1.5784,1.5784,1.5784,1.5784,1.5784,1.5784,1.5784,1.5784,1.5784,1.5784,1.5784,1.5784,1.5784,1.5784,1.5784,1.5784,1.5784,1.5784,1.5784,1.5784,1.5784,1.5784,1.5784,1.5784,1.5784,1.5784,1.5784,1.5784,1.5784,1.5784,1.7582,1.7582,0.0,0.0,1.6847,0.0,1.6072,0.0,0.0,0.0,0.0,0.0,0.0,0.0,1.4376,1.49,1.471,1.4422,0.0,0.0,0.0,0.0,0.0,0.0,0.0,0.0,1.4609,1.5197,0.0,0.0,0.0,0.0,1.684,1.7192,1.7481,1.7582,1.7582,1.7239,1.6894,1.67,1.6306,1.6012,1.5784,1.5784,1.5784,1.5784,1.5784,1.5784,1.5784,1.5784,1.5784,1.5784,1.5784,1.5784,1.5784,1.5784,1.5784,1.5784,1.5784,1.5784,1.5784,1.5784,1.5784,1.5784,1.5784,1.5784,1.5784,1.5784,1.5784,1.5784,1.5784,1.5784,1.5784,1.5784,1.5784,1.5784,1.5784,1.5784,1.5784,1.5784,1.5784,1.5784,1.5784,1.5784,1.5784,1.5784,1.5784,1.5784,1.5784,1.5784,1.5784,1.5784,1.5784,1.5784,1.5784,1.5784,1.5784,1.5784,1.5784,1.5784,1.5784,1.5784,1.5784,1.5784,1.5784,1.5784,1.5784,1.5784,1.5784,1.5784,1.5784,1.5724]}]]